<?xml version="1.0" encoding="UTF-8" standalone="no" ?>
<gpx xmlns="http://www.topografix.com/GPX/1/1" xmlns:xsi="http://www.w3.org/2001/XMLSchema-instance" xsi:schemaLocation="http://www.topografix.com/GPX/1/1 http://www.topografix.com/GPX/1/1/gpx.xsd" version="1.1" creator="VisuGPX - https://www.visugpx.com">
  <metadata>
    <name>BelleBarbe-Suvières</name>
    <desc><![CDATA[Estérel : du col de Belle Barbe à la Cime des Suvières (retour via le lac de l\'Ecureuil)]]></desc>
  </metadata>
  <trk>
    <name><![CDATA[Tracé actuel: 11 DEC 2010 22:15]]></name>
    <trkseg>
      <trkpt lat="43.62246" lon="7.01139">
        <ele>237.1</ele>
        <time>2010-12-11T21:15:24Z</time>
      </trkpt>
      <trkpt lat="43.6224" lon="7.01145">
        <ele>239.99</ele>
        <time>2010-12-11T21:15:44Z</time>
      </trkpt>
      <trkpt lat="43.6224" lon="7.01145">
        <ele>239.51</ele>
        <time>2010-12-11T21:16:23Z</time>
      </trkpt>
      <trkpt lat="43.62239" lon="7.01145">
        <ele>239.02</ele>
        <time>2010-12-11T21:17:04Z</time>
      </trkpt>
      <trkpt lat="43.62239" lon="7.01145">
        <ele>239.51</ele>
        <time>2010-12-11T21:17:20Z</time>
      </trkpt>
    </trkseg>
  </trk>
  <trk>
    <name><![CDATA[BelleBarbe-Suvieres 2010 09:22]]></name>
    <trkseg>
      <trkpt lat="43.45656" lon="6.86873">
        <ele>105.88</ele>
        <time>2010-12-12T08:22:05Z</time>
      </trkpt>
      <trkpt lat="43.45657" lon="6.86874">
        <ele>105.88</ele>
        <time>2010-12-12T08:22:06Z</time>
      </trkpt>
      <trkpt lat="43.45656" lon="6.86875">
        <ele>101.56</ele>
        <time>2010-12-12T08:22:10Z</time>
      </trkpt>
      <trkpt lat="43.45656" lon="6.86874">
        <ele>98.19</ele>
        <time>2010-12-12T08:22:12Z</time>
      </trkpt>
      <trkpt lat="43.45656" lon="6.86873">
        <ele>94.35</ele>
        <time>2010-12-12T08:22:14Z</time>
      </trkpt>
      <trkpt lat="43.45655" lon="6.86871">
        <ele>90.02</ele>
        <time>2010-12-12T08:22:17Z</time>
      </trkpt>
      <trkpt lat="43.45654" lon="6.8687">
        <ele>86.18</ele>
        <time>2010-12-12T08:22:19Z</time>
      </trkpt>
      <trkpt lat="43.45653" lon="6.8687">
        <ele>83.29</ele>
        <time>2010-12-12T08:22:22Z</time>
      </trkpt>
      <trkpt lat="43.45653" lon="6.8687">
        <ele>81.85</ele>
        <time>2010-12-12T08:22:24Z</time>
      </trkpt>
      <trkpt lat="43.45653" lon="6.8687">
        <ele>80.89</ele>
        <time>2010-12-12T08:22:26Z</time>
      </trkpt>
      <trkpt lat="43.45653" lon="6.8687">
        <ele>78</ele>
        <time>2010-12-12T08:22:29Z</time>
      </trkpt>
      <trkpt lat="43.45653" lon="6.8687">
        <ele>75.12</ele>
        <time>2010-12-12T08:22:33Z</time>
      </trkpt>
      <trkpt lat="43.45654" lon="6.86871">
        <ele>71.76</ele>
        <time>2010-12-12T08:22:36Z</time>
      </trkpt>
      <trkpt lat="43.45654" lon="6.8687">
        <ele>68.87</ele>
        <time>2010-12-12T08:22:40Z</time>
      </trkpt>
      <trkpt lat="43.45654" lon="6.8687">
        <ele>65.51</ele>
        <time>2010-12-12T08:22:45Z</time>
      </trkpt>
      <trkpt lat="43.45654" lon="6.8687">
        <ele>63.58</ele>
        <time>2010-12-12T08:22:48Z</time>
      </trkpt>
      <trkpt lat="43.45654" lon="6.86869">
        <ele>62.14</ele>
        <time>2010-12-12T08:22:54Z</time>
      </trkpt>
      <trkpt lat="43.45655" lon="6.8687">
        <ele>58.78</ele>
        <time>2010-12-12T08:23:06Z</time>
      </trkpt>
      <trkpt lat="43.45655" lon="6.86871">
        <ele>55.41</ele>
        <time>2010-12-12T08:23:22Z</time>
      </trkpt>
      <trkpt lat="43.45654" lon="6.86868">
        <ele>52.05</ele>
        <time>2010-12-12T08:23:39Z</time>
      </trkpt>
      <trkpt lat="43.45654" lon="6.86867">
        <ele>50.13</ele>
        <time>2010-12-12T08:24:12Z</time>
      </trkpt>
      <trkpt lat="43.45655" lon="6.86869">
        <ele>46.76</ele>
        <time>2010-12-12T08:24:37Z</time>
      </trkpt>
      <trkpt lat="43.45655" lon="6.86871">
        <ele>48.2</ele>
        <time>2010-12-12T08:24:38Z</time>
      </trkpt>
      <trkpt lat="43.45656" lon="6.86875">
        <ele>50.13</ele>
        <time>2010-12-12T08:24:40Z</time>
      </trkpt>
      <trkpt lat="43.45658" lon="6.86878">
        <ele>50.13</ele>
        <time>2010-12-12T08:24:43Z</time>
      </trkpt>
      <trkpt lat="43.45671" lon="6.86884">
        <ele>52.05</ele>
        <time>2010-12-12T08:24:57Z</time>
      </trkpt>
      <trkpt lat="43.45676" lon="6.86887">
        <ele>53.49</ele>
        <time>2010-12-12T08:25:09Z</time>
      </trkpt>
      <trkpt lat="43.45685" lon="6.8689">
        <ele>54.45</ele>
        <time>2010-12-12T08:25:17Z</time>
      </trkpt>
      <trkpt lat="43.45696" lon="6.8689">
        <ele>55.41</ele>
        <time>2010-12-12T08:25:31Z</time>
      </trkpt>
      <trkpt lat="43.45705" lon="6.86887">
        <ele>56.86</ele>
        <time>2010-12-12T08:25:45Z</time>
      </trkpt>
      <trkpt lat="43.45715" lon="6.8689">
        <ele>58.3</ele>
        <time>2010-12-12T08:25:59Z</time>
      </trkpt>
      <trkpt lat="43.45723" lon="6.86896">
        <ele>59.74</ele>
        <time>2010-12-12T08:26:14Z</time>
      </trkpt>
      <trkpt lat="43.45732" lon="6.86907">
        <ele>61.18</ele>
        <time>2010-12-12T08:26:29Z</time>
      </trkpt>
      <trkpt lat="43.45731" lon="6.86917">
        <ele>61.66</ele>
        <time>2010-12-12T08:26:43Z</time>
      </trkpt>
      <trkpt lat="43.45727" lon="6.86929">
        <ele>62.62</ele>
        <time>2010-12-12T08:26:57Z</time>
      </trkpt>
      <trkpt lat="43.45726" lon="6.86936">
        <ele>63.1</ele>
        <time>2010-12-12T08:27:10Z</time>
      </trkpt>
      <trkpt lat="43.45726" lon="6.86946">
        <ele>64.55</ele>
        <time>2010-12-12T08:27:26Z</time>
      </trkpt>
      <trkpt lat="43.45729" lon="6.86959">
        <ele>65.99</ele>
        <time>2010-12-12T08:27:43Z</time>
      </trkpt>
      <trkpt lat="43.4573" lon="6.86968">
        <ele>67.43</ele>
        <time>2010-12-12T08:27:58Z</time>
      </trkpt>
      <trkpt lat="43.45734" lon="6.86978">
        <ele>68.39</ele>
        <time>2010-12-12T08:28:14Z</time>
      </trkpt>
      <trkpt lat="43.45736" lon="6.86993">
        <ele>69.83</ele>
        <time>2010-12-12T08:28:31Z</time>
      </trkpt>
      <trkpt lat="43.45735" lon="6.86999">
        <ele>70.79</ele>
        <time>2010-12-12T08:28:37Z</time>
      </trkpt>
      <trkpt lat="43.45735" lon="6.87018">
        <ele>71.76</ele>
        <time>2010-12-12T08:28:53Z</time>
      </trkpt>
      <trkpt lat="43.45738" lon="6.87031">
        <ele>73.68</ele>
        <time>2010-12-12T08:29:08Z</time>
      </trkpt>
      <trkpt lat="43.45738" lon="6.87034">
        <ele>73.68</ele>
        <time>2010-12-12T08:29:11Z</time>
      </trkpt>
      <trkpt lat="43.45741" lon="6.8705">
        <ele>76.08</ele>
        <time>2010-12-12T08:29:28Z</time>
      </trkpt>
      <trkpt lat="43.45741" lon="6.87063">
        <ele>77.52</ele>
        <time>2010-12-12T08:29:42Z</time>
      </trkpt>
      <trkpt lat="43.45743" lon="6.87078">
        <ele>78.97</ele>
        <time>2010-12-12T08:29:57Z</time>
      </trkpt>
      <trkpt lat="43.45745" lon="6.87095">
        <ele>80.89</ele>
        <time>2010-12-12T08:30:14Z</time>
      </trkpt>
      <trkpt lat="43.4575" lon="6.87111">
        <ele>82.81</ele>
        <time>2010-12-12T08:30:30Z</time>
      </trkpt>
      <trkpt lat="43.45755" lon="6.87124">
        <ele>84.73</ele>
        <time>2010-12-12T08:30:45Z</time>
      </trkpt>
      <trkpt lat="43.45759" lon="6.87135">
        <ele>85.69</ele>
        <time>2010-12-12T08:31:00Z</time>
      </trkpt>
      <trkpt lat="43.45764" lon="6.87142">
        <ele>86.66</ele>
        <time>2010-12-12T08:31:13Z</time>
      </trkpt>
      <trkpt lat="43.4577" lon="6.87151">
        <ele>88.1</ele>
        <time>2010-12-12T08:31:29Z</time>
      </trkpt>
      <trkpt lat="43.45777" lon="6.87158">
        <ele>89.06</ele>
        <time>2010-12-12T08:31:43Z</time>
      </trkpt>
      <trkpt lat="43.45784" lon="6.87167">
        <ele>90.5</ele>
        <time>2010-12-12T08:31:57Z</time>
      </trkpt>
      <trkpt lat="43.45791" lon="6.8717">
        <ele>90.98</ele>
        <time>2010-12-12T08:32:08Z</time>
      </trkpt>
      <trkpt lat="43.45796" lon="6.8717">
        <ele>90.98</ele>
        <time>2010-12-12T08:32:23Z</time>
      </trkpt>
      <trkpt lat="43.45796" lon="6.8717">
        <ele>91.94</ele>
        <time>2010-12-12T08:32:42Z</time>
      </trkpt>
      <trkpt lat="43.45795" lon="6.8717">
        <ele>85.21</ele>
        <time>2010-12-12T08:32:56Z</time>
      </trkpt>
      <trkpt lat="43.45795" lon="6.8717">
        <ele>90.02</ele>
        <time>2010-12-12T08:32:57Z</time>
      </trkpt>
      <trkpt lat="43.45795" lon="6.8717">
        <ele>99.15</ele>
        <time>2010-12-12T08:33:00Z</time>
      </trkpt>
      <trkpt lat="43.45795" lon="6.8717">
        <ele>92.9</ele>
        <time>2010-12-12T08:33:01Z</time>
      </trkpt>
      <trkpt lat="43.45795" lon="6.8717">
        <ele>91.46</ele>
        <time>2010-12-12T08:33:03Z</time>
      </trkpt>
      <trkpt lat="43.45795" lon="6.8717">
        <ele>91.46</ele>
        <time>2010-12-12T08:33:23Z</time>
      </trkpt>
      <trkpt lat="43.45795" lon="6.8717">
        <ele>91.46</ele>
        <time>2010-12-12T08:33:50Z</time>
      </trkpt>
      <trkpt lat="43.45795" lon="6.8717">
        <ele>90.98</ele>
        <time>2010-12-12T08:34:20Z</time>
      </trkpt>
      <trkpt lat="43.45799" lon="6.87168">
        <ele>91.46</ele>
        <time>2010-12-12T08:34:36Z</time>
      </trkpt>
      <trkpt lat="43.45814" lon="6.87166">
        <ele>93.87</ele>
        <time>2010-12-12T08:34:52Z</time>
      </trkpt>
      <trkpt lat="43.45825" lon="6.87167">
        <ele>95.31</ele>
        <time>2010-12-12T08:35:07Z</time>
      </trkpt>
      <trkpt lat="43.4583" lon="6.8717">
        <ele>96.75</ele>
        <time>2010-12-12T08:35:19Z</time>
      </trkpt>
      <trkpt lat="43.45841" lon="6.87177">
        <ele>98.67</ele>
        <time>2010-12-12T08:35:35Z</time>
      </trkpt>
      <trkpt lat="43.4585" lon="6.87183">
        <ele>99.63</ele>
        <time>2010-12-12T08:35:51Z</time>
      </trkpt>
      <trkpt lat="43.4585" lon="6.87184">
        <ele>99.63</ele>
        <time>2010-12-12T08:35:52Z</time>
      </trkpt>
      <trkpt lat="43.45856" lon="6.87199">
        <ele>100.6</ele>
        <time>2010-12-12T08:36:07Z</time>
      </trkpt>
      <trkpt lat="43.45858" lon="6.87206">
        <ele>101.56</ele>
        <time>2010-12-12T08:36:13Z</time>
      </trkpt>
      <trkpt lat="43.45862" lon="6.87215">
        <ele>103</ele>
        <time>2010-12-12T08:36:28Z</time>
      </trkpt>
      <trkpt lat="43.45866" lon="6.87223">
        <ele>103.48</ele>
        <time>2010-12-12T08:36:42Z</time>
      </trkpt>
      <trkpt lat="43.45872" lon="6.87236">
        <ele>105.88</ele>
        <time>2010-12-12T08:36:57Z</time>
      </trkpt>
      <trkpt lat="43.45877" lon="6.87249">
        <ele>107.81</ele>
        <time>2010-12-12T08:37:12Z</time>
      </trkpt>
      <trkpt lat="43.45878" lon="6.87256">
        <ele>108.77</ele>
        <time>2010-12-12T08:37:26Z</time>
      </trkpt>
      <trkpt lat="43.45879" lon="6.87264">
        <ele>109.25</ele>
        <time>2010-12-12T08:37:39Z</time>
      </trkpt>
      <trkpt lat="43.45882" lon="6.87275">
        <ele>110.69</ele>
        <time>2010-12-12T08:37:52Z</time>
      </trkpt>
      <trkpt lat="43.45887" lon="6.87287">
        <ele>112.13</ele>
        <time>2010-12-12T08:38:05Z</time>
      </trkpt>
      <trkpt lat="43.4589" lon="6.87295">
        <ele>112.61</ele>
        <time>2010-12-12T08:38:13Z</time>
      </trkpt>
      <trkpt lat="43.45897" lon="6.87308">
        <ele>113.57</ele>
        <time>2010-12-12T08:38:28Z</time>
      </trkpt>
      <trkpt lat="43.45898" lon="6.87313">
        <ele>114.53</ele>
        <time>2010-12-12T08:38:34Z</time>
      </trkpt>
      <trkpt lat="43.459" lon="6.87316">
        <ele>114.53</ele>
        <time>2010-12-12T08:38:38Z</time>
      </trkpt>
      <trkpt lat="43.45902" lon="6.87324">
        <ele>115.01</ele>
        <time>2010-12-12T08:38:52Z</time>
      </trkpt>
      <trkpt lat="43.45905" lon="6.87329">
        <ele>115.5</ele>
        <time>2010-12-12T08:39:07Z</time>
      </trkpt>
      <trkpt lat="43.45905" lon="6.87329">
        <ele>115.5</ele>
        <time>2010-12-12T08:39:33Z</time>
      </trkpt>
      <trkpt lat="43.45907" lon="6.87338">
        <ele>116.46</ele>
        <time>2010-12-12T08:40:02Z</time>
      </trkpt>
      <trkpt lat="43.4591" lon="6.87348">
        <ele>116.94</ele>
        <time>2010-12-12T08:40:15Z</time>
      </trkpt>
      <trkpt lat="43.4591" lon="6.87348">
        <ele>116.46</ele>
        <time>2010-12-12T08:40:47Z</time>
      </trkpt>
      <trkpt lat="43.45909" lon="6.87348">
        <ele>116.46</ele>
        <time>2010-12-12T08:41:15Z</time>
      </trkpt>
      <trkpt lat="43.4591" lon="6.87348">
        <ele>115.5</ele>
        <time>2010-12-12T08:41:41Z</time>
      </trkpt>
      <trkpt lat="43.4591" lon="6.87348">
        <ele>115.98</ele>
        <time>2010-12-12T08:42:20Z</time>
      </trkpt>
      <trkpt lat="43.4591" lon="6.87349">
        <ele>115.98</ele>
        <time>2010-12-12T08:42:35Z</time>
      </trkpt>
      <trkpt lat="43.45914" lon="6.87354">
        <ele>115.98</ele>
        <time>2010-12-12T08:42:39Z</time>
      </trkpt>
      <trkpt lat="43.45925" lon="6.87369">
        <ele>117.42</ele>
        <time>2010-12-12T08:42:54Z</time>
      </trkpt>
      <trkpt lat="43.45933" lon="6.87382">
        <ele>117.9</ele>
        <time>2010-12-12T08:43:07Z</time>
      </trkpt>
      <trkpt lat="43.45939" lon="6.87396">
        <ele>118.38</ele>
        <time>2010-12-12T08:43:19Z</time>
      </trkpt>
      <trkpt lat="43.45943" lon="6.87401">
        <ele>118.38</ele>
        <time>2010-12-12T08:43:28Z</time>
      </trkpt>
      <trkpt lat="43.45947" lon="6.87404">
        <ele>118.38</ele>
        <time>2010-12-12T08:43:33Z</time>
      </trkpt>
      <trkpt lat="43.45957" lon="6.87419">
        <ele>118.86</ele>
        <time>2010-12-12T08:43:49Z</time>
      </trkpt>
      <trkpt lat="43.45966" lon="6.87431">
        <ele>118.86</ele>
        <time>2010-12-12T08:44:01Z</time>
      </trkpt>
      <trkpt lat="43.45967" lon="6.87434">
        <ele>120.3</ele>
        <time>2010-12-12T08:44:04Z</time>
      </trkpt>
      <trkpt lat="43.45978" lon="6.87452">
        <ele>119.82</ele>
        <time>2010-12-12T08:44:22Z</time>
      </trkpt>
      <trkpt lat="43.45979" lon="6.87453">
        <ele>120.3</ele>
        <time>2010-12-12T08:44:23Z</time>
      </trkpt>
      <trkpt lat="43.45992" lon="6.87464">
        <ele>120.3</ele>
        <time>2010-12-12T08:44:38Z</time>
      </trkpt>
      <trkpt lat="43.45998" lon="6.8747">
        <ele>120.3</ele>
        <time>2010-12-12T08:44:54Z</time>
      </trkpt>
      <trkpt lat="43.46005" lon="6.87475">
        <ele>120.3</ele>
        <time>2010-12-12T08:45:07Z</time>
      </trkpt>
      <trkpt lat="43.46011" lon="6.87479">
        <ele>119.82</ele>
        <time>2010-12-12T08:45:14Z</time>
      </trkpt>
      <trkpt lat="43.46021" lon="6.87479">
        <ele>119.34</ele>
        <time>2010-12-12T08:45:30Z</time>
      </trkpt>
      <trkpt lat="43.46027" lon="6.87472">
        <ele>120.78</ele>
        <time>2010-12-12T08:45:46Z</time>
      </trkpt>
      <trkpt lat="43.46037" lon="6.8746">
        <ele>120.3</ele>
        <time>2010-12-12T08:46:02Z</time>
      </trkpt>
      <trkpt lat="43.46045" lon="6.87451">
        <ele>121.26</ele>
        <time>2010-12-12T08:46:12Z</time>
      </trkpt>
      <trkpt lat="43.46057" lon="6.87434">
        <ele>121.26</ele>
        <time>2010-12-12T08:46:30Z</time>
      </trkpt>
      <trkpt lat="43.46065" lon="6.8742">
        <ele>122.22</ele>
        <time>2010-12-12T08:46:45Z</time>
      </trkpt>
      <trkpt lat="43.46068" lon="6.87413">
        <ele>122.22</ele>
        <time>2010-12-12T08:46:54Z</time>
      </trkpt>
      <trkpt lat="43.46068" lon="6.8741">
        <ele>121.74</ele>
        <time>2010-12-12T08:46:56Z</time>
      </trkpt>
      <trkpt lat="43.46077" lon="6.87402">
        <ele>122.22</ele>
        <time>2010-12-12T08:47:11Z</time>
      </trkpt>
      <trkpt lat="43.46082" lon="6.87399">
        <ele>122.22</ele>
        <time>2010-12-12T08:47:15Z</time>
      </trkpt>
      <trkpt lat="43.46097" lon="6.87388">
        <ele>121.26</ele>
        <time>2010-12-12T08:47:34Z</time>
      </trkpt>
      <trkpt lat="43.46103" lon="6.87387">
        <ele>123.67</ele>
        <time>2010-12-12T08:47:40Z</time>
      </trkpt>
      <trkpt lat="43.46114" lon="6.87377">
        <ele>122.71</ele>
        <time>2010-12-12T08:47:54Z</time>
      </trkpt>
      <trkpt lat="43.46117" lon="6.87374">
        <ele>123.19</ele>
        <time>2010-12-12T08:48:00Z</time>
      </trkpt>
      <trkpt lat="43.46124" lon="6.8737">
        <ele>123.19</ele>
        <time>2010-12-12T08:48:20Z</time>
      </trkpt>
      <trkpt lat="43.4613" lon="6.87365">
        <ele>123.19</ele>
        <time>2010-12-12T08:48:41Z</time>
      </trkpt>
      <trkpt lat="43.46133" lon="6.87362">
        <ele>122.71</ele>
        <time>2010-12-12T08:48:46Z</time>
      </trkpt>
      <trkpt lat="43.46142" lon="6.87349">
        <ele>123.19</ele>
        <time>2010-12-12T08:49:02Z</time>
      </trkpt>
      <trkpt lat="43.4615" lon="6.87337">
        <ele>122.71</ele>
        <time>2010-12-12T08:49:13Z</time>
      </trkpt>
      <trkpt lat="43.46157" lon="6.87322">
        <ele>123.67</ele>
        <time>2010-12-12T08:49:27Z</time>
      </trkpt>
      <trkpt lat="43.46162" lon="6.87305">
        <ele>124.15</ele>
        <time>2010-12-12T08:49:42Z</time>
      </trkpt>
      <trkpt lat="43.46164" lon="6.87297">
        <ele>123.67</ele>
        <time>2010-12-12T08:49:48Z</time>
      </trkpt>
      <trkpt lat="43.46165" lon="6.87279">
        <ele>124.15</ele>
        <time>2010-12-12T08:50:03Z</time>
      </trkpt>
      <trkpt lat="43.46167" lon="6.87267">
        <ele>124.15</ele>
        <time>2010-12-12T08:50:15Z</time>
      </trkpt>
      <trkpt lat="43.46181" lon="6.87264">
        <ele>124.63</ele>
        <time>2010-12-12T08:50:28Z</time>
      </trkpt>
      <trkpt lat="43.46196" lon="6.87265">
        <ele>125.11</ele>
        <time>2010-12-12T08:50:43Z</time>
      </trkpt>
      <trkpt lat="43.46209" lon="6.8726">
        <ele>126.55</ele>
        <time>2010-12-12T08:50:58Z</time>
      </trkpt>
      <trkpt lat="43.4622" lon="6.87258">
        <ele>127.99</ele>
        <time>2010-12-12T08:51:12Z</time>
      </trkpt>
      <trkpt lat="43.46227" lon="6.87255">
        <ele>128.95</ele>
        <time>2010-12-12T08:51:24Z</time>
      </trkpt>
      <trkpt lat="43.46228" lon="6.87253">
        <ele>128.95</ele>
        <time>2010-12-12T08:51:40Z</time>
      </trkpt>
      <trkpt lat="43.46228" lon="6.87253">
        <ele>121.26</ele>
        <time>2010-12-12T08:51:58Z</time>
      </trkpt>
      <trkpt lat="43.46228" lon="6.87253">
        <ele>116.46</ele>
        <time>2010-12-12T08:51:59Z</time>
      </trkpt>
      <trkpt lat="43.46228" lon="6.87253">
        <ele>137.13</ele>
        <time>2010-12-12T08:52:00Z</time>
      </trkpt>
      <trkpt lat="43.46228" lon="6.87252">
        <ele>129.43</ele>
        <time>2010-12-12T08:52:01Z</time>
      </trkpt>
      <trkpt lat="43.46228" lon="6.87252">
        <ele>128.95</ele>
        <time>2010-12-12T08:52:20Z</time>
      </trkpt>
      <trkpt lat="43.46228" lon="6.87252">
        <ele>129.92</ele>
        <time>2010-12-12T08:52:39Z</time>
      </trkpt>
      <trkpt lat="43.46228" lon="6.87252">
        <ele>125.59</ele>
        <time>2010-12-12T08:52:59Z</time>
      </trkpt>
      <trkpt lat="43.46228" lon="6.87252">
        <ele>130.4</ele>
        <time>2010-12-12T08:53:00Z</time>
      </trkpt>
      <trkpt lat="43.46228" lon="6.87252">
        <ele>128.95</ele>
        <time>2010-12-12T08:53:19Z</time>
      </trkpt>
      <trkpt lat="43.46228" lon="6.87252">
        <ele>128.47</ele>
        <time>2010-12-12T08:53:46Z</time>
      </trkpt>
      <trkpt lat="43.46228" lon="6.87252">
        <ele>128.95</ele>
        <time>2010-12-12T08:54:11Z</time>
      </trkpt>
      <trkpt lat="43.46239" lon="6.87245">
        <ele>130.4</ele>
        <time>2010-12-12T08:54:27Z</time>
      </trkpt>
      <trkpt lat="43.46251" lon="6.87238">
        <ele>132.8</ele>
        <time>2010-12-12T08:54:46Z</time>
      </trkpt>
      <trkpt lat="43.46261" lon="6.87232">
        <ele>135.68</ele>
        <time>2010-12-12T08:55:01Z</time>
      </trkpt>
      <trkpt lat="43.4627" lon="6.87224">
        <ele>137.61</ele>
        <time>2010-12-12T08:55:18Z</time>
      </trkpt>
      <trkpt lat="43.46279" lon="6.8721">
        <ele>138.09</ele>
        <time>2010-12-12T08:55:34Z</time>
      </trkpt>
      <trkpt lat="43.46279" lon="6.87199">
        <ele>138.09</ele>
        <time>2010-12-12T08:55:53Z</time>
      </trkpt>
      <trkpt lat="43.46278" lon="6.8718">
        <ele>138.09</ele>
        <time>2010-12-12T08:56:10Z</time>
      </trkpt>
      <trkpt lat="43.46286" lon="6.87157">
        <ele>137.13</ele>
        <time>2010-12-12T08:56:27Z</time>
      </trkpt>
      <trkpt lat="43.4629" lon="6.87134">
        <ele>135.2</ele>
        <time>2010-12-12T08:56:44Z</time>
      </trkpt>
      <trkpt lat="43.46291" lon="6.87111">
        <ele>134.24</ele>
        <time>2010-12-12T08:56:59Z</time>
      </trkpt>
      <trkpt lat="43.46294" lon="6.87086">
        <ele>133.28</ele>
        <time>2010-12-12T08:57:16Z</time>
      </trkpt>
      <trkpt lat="43.46294" lon="6.87084">
        <ele>132.8</ele>
        <time>2010-12-12T08:57:18Z</time>
      </trkpt>
      <trkpt lat="43.46292" lon="6.87056">
        <ele>131.36</ele>
        <time>2010-12-12T08:57:36Z</time>
      </trkpt>
      <trkpt lat="43.4629" lon="6.87049">
        <ele>130.4</ele>
        <time>2010-12-12T08:57:41Z</time>
      </trkpt>
      <trkpt lat="43.46305" lon="6.87038">
        <ele>129.92</ele>
        <time>2010-12-12T08:57:56Z</time>
      </trkpt>
      <trkpt lat="43.46319" lon="6.87031">
        <ele>128.95</ele>
        <time>2010-12-12T08:58:11Z</time>
      </trkpt>
      <trkpt lat="43.46333" lon="6.87018">
        <ele>127.51</ele>
        <time>2010-12-12T08:58:27Z</time>
      </trkpt>
      <trkpt lat="43.46341" lon="6.87008">
        <ele>127.03</ele>
        <time>2010-12-12T08:58:39Z</time>
      </trkpt>
      <trkpt lat="43.46343" lon="6.87007">
        <ele>126.55</ele>
        <time>2010-12-12T08:58:41Z</time>
      </trkpt>
      <trkpt lat="43.46351" lon="6.87">
        <ele>126.07</ele>
        <time>2010-12-12T08:58:52Z</time>
      </trkpt>
      <trkpt lat="43.46365" lon="6.86993">
        <ele>125.11</ele>
        <time>2010-12-12T08:59:07Z</time>
      </trkpt>
      <trkpt lat="43.46366" lon="6.86991">
        <ele>124.63</ele>
        <time>2010-12-12T08:59:08Z</time>
      </trkpt>
      <trkpt lat="43.46372" lon="6.86982">
        <ele>124.15</ele>
        <time>2010-12-12T08:59:23Z</time>
      </trkpt>
      <trkpt lat="43.46372" lon="6.86981">
        <ele>124.63</ele>
        <time>2010-12-12T08:59:41Z</time>
      </trkpt>
      <trkpt lat="43.46372" lon="6.86981">
        <ele>124.15</ele>
        <time>2010-12-12T09:00:08Z</time>
      </trkpt>
      <trkpt lat="43.46372" lon="6.86981">
        <ele>124.15</ele>
        <time>2010-12-12T09:00:37Z</time>
      </trkpt>
      <trkpt lat="43.46372" lon="6.86981">
        <ele>124.15</ele>
        <time>2010-12-12T09:00:58Z</time>
      </trkpt>
      <trkpt lat="43.46372" lon="6.86981">
        <ele>124.15</ele>
        <time>2010-12-12T09:01:22Z</time>
      </trkpt>
      <trkpt lat="43.46372" lon="6.86981">
        <ele>123.19</ele>
        <time>2010-12-12T09:01:55Z</time>
      </trkpt>
      <trkpt lat="43.46372" lon="6.8698">
        <ele>123.19</ele>
        <time>2010-12-12T09:02:24Z</time>
      </trkpt>
      <trkpt lat="43.46375" lon="6.86976">
        <ele>122.71</ele>
        <time>2010-12-12T09:02:37Z</time>
      </trkpt>
      <trkpt lat="43.46379" lon="6.86977">
        <ele>122.71</ele>
        <time>2010-12-12T09:02:56Z</time>
      </trkpt>
      <trkpt lat="43.46384" lon="6.8698">
        <ele>121.74</ele>
        <time>2010-12-12T09:03:11Z</time>
      </trkpt>
      <trkpt lat="43.46392" lon="6.86981">
        <ele>121.26</ele>
        <time>2010-12-12T09:03:25Z</time>
      </trkpt>
      <trkpt lat="43.46397" lon="6.86981">
        <ele>121.26</ele>
        <time>2010-12-12T09:03:31Z</time>
      </trkpt>
      <trkpt lat="43.46399" lon="6.86982">
        <ele>121.26</ele>
        <time>2010-12-12T09:03:33Z</time>
      </trkpt>
      <trkpt lat="43.46402" lon="6.86999">
        <ele>120.3</ele>
        <time>2010-12-12T09:03:48Z</time>
      </trkpt>
      <trkpt lat="43.46409" lon="6.8702">
        <ele>119.34</ele>
        <time>2010-12-12T09:04:05Z</time>
      </trkpt>
      <trkpt lat="43.46413" lon="6.87032">
        <ele>118.86</ele>
        <time>2010-12-12T09:04:16Z</time>
      </trkpt>
      <trkpt lat="43.46417" lon="6.87046">
        <ele>117.9</ele>
        <time>2010-12-12T09:04:28Z</time>
      </trkpt>
      <trkpt lat="43.4642" lon="6.8706">
        <ele>116.94</ele>
        <time>2010-12-12T09:04:39Z</time>
      </trkpt>
      <trkpt lat="43.46421" lon="6.87065">
        <ele>116.94</ele>
        <time>2010-12-12T09:04:43Z</time>
      </trkpt>
      <trkpt lat="43.46422" lon="6.87069">
        <ele>116.46</ele>
        <time>2010-12-12T09:04:46Z</time>
      </trkpt>
      <trkpt lat="43.4643" lon="6.87091">
        <ele>115.01</ele>
        <time>2010-12-12T09:05:02Z</time>
      </trkpt>
      <trkpt lat="43.46435" lon="6.8711">
        <ele>114.05</ele>
        <time>2010-12-12T09:05:16Z</time>
      </trkpt>
      <trkpt lat="43.46441" lon="6.8712">
        <ele>113.57</ele>
        <time>2010-12-12T09:05:26Z</time>
      </trkpt>
      <trkpt lat="43.46443" lon="6.87122">
        <ele>113.57</ele>
        <time>2010-12-12T09:05:29Z</time>
      </trkpt>
      <trkpt lat="43.46461" lon="6.87107">
        <ele>112.13</ele>
        <time>2010-12-12T09:05:45Z</time>
      </trkpt>
      <trkpt lat="43.46471" lon="6.87099">
        <ele>112.61</ele>
        <time>2010-12-12T09:06:02Z</time>
      </trkpt>
      <trkpt lat="43.46488" lon="6.87108">
        <ele>112.61</ele>
        <time>2010-12-12T09:06:19Z</time>
      </trkpt>
      <trkpt lat="43.46494" lon="6.8711">
        <ele>113.09</ele>
        <time>2010-12-12T09:06:25Z</time>
      </trkpt>
      <trkpt lat="43.46513" lon="6.87113">
        <ele>114.05</ele>
        <time>2010-12-12T09:06:42Z</time>
      </trkpt>
      <trkpt lat="43.46519" lon="6.87121">
        <ele>115.01</ele>
        <time>2010-12-12T09:06:50Z</time>
      </trkpt>
      <trkpt lat="43.46536" lon="6.87128">
        <ele>115.98</ele>
        <time>2010-12-12T09:07:08Z</time>
      </trkpt>
      <trkpt lat="43.46549" lon="6.87136">
        <ele>115.98</ele>
        <time>2010-12-12T09:07:25Z</time>
      </trkpt>
      <trkpt lat="43.46556" lon="6.87148">
        <ele>116.46</ele>
        <time>2010-12-12T09:07:42Z</time>
      </trkpt>
      <trkpt lat="43.46564" lon="6.87163">
        <ele>115.5</ele>
        <time>2010-12-12T09:07:59Z</time>
      </trkpt>
      <trkpt lat="43.4657" lon="6.87181">
        <ele>114.05</ele>
        <time>2010-12-12T09:08:17Z</time>
      </trkpt>
      <trkpt lat="43.46577" lon="6.87199">
        <ele>113.09</ele>
        <time>2010-12-12T09:08:36Z</time>
      </trkpt>
      <trkpt lat="43.46578" lon="6.87204">
        <ele>113.57</ele>
        <time>2010-12-12T09:08:40Z</time>
      </trkpt>
      <trkpt lat="43.4659" lon="6.87223">
        <ele>113.57</ele>
        <time>2010-12-12T09:09:00Z</time>
      </trkpt>
      <trkpt lat="43.46598" lon="6.87232">
        <ele>113.09</ele>
        <time>2010-12-12T09:09:18Z</time>
      </trkpt>
      <trkpt lat="43.46604" lon="6.87238">
        <ele>113.57</ele>
        <time>2010-12-12T09:09:32Z</time>
      </trkpt>
      <trkpt lat="43.46613" lon="6.87247">
        <ele>114.05</ele>
        <time>2010-12-12T09:09:49Z</time>
      </trkpt>
      <trkpt lat="43.46616" lon="6.87249">
        <ele>114.05</ele>
        <time>2010-12-12T09:10:11Z</time>
      </trkpt>
      <trkpt lat="43.4662" lon="6.87249">
        <ele>114.05</ele>
        <time>2010-12-12T09:10:14Z</time>
      </trkpt>
      <trkpt lat="43.46642" lon="6.87252">
        <ele>114.53</ele>
        <time>2010-12-12T09:10:32Z</time>
      </trkpt>
      <trkpt lat="43.4666" lon="6.8726">
        <ele>115.98</ele>
        <time>2010-12-12T09:10:47Z</time>
      </trkpt>
      <trkpt lat="43.46674" lon="6.87271">
        <ele>116.94</ele>
        <time>2010-12-12T09:11:03Z</time>
      </trkpt>
      <trkpt lat="43.46687" lon="6.87286">
        <ele>118.38</ele>
        <time>2010-12-12T09:11:20Z</time>
      </trkpt>
      <trkpt lat="43.46703" lon="6.87302">
        <ele>119.34</ele>
        <time>2010-12-12T09:11:40Z</time>
      </trkpt>
      <trkpt lat="43.46716" lon="6.87314">
        <ele>120.78</ele>
        <time>2010-12-12T09:11:56Z</time>
      </trkpt>
      <trkpt lat="43.46734" lon="6.8732">
        <ele>122.71</ele>
        <time>2010-12-12T09:12:14Z</time>
      </trkpt>
      <trkpt lat="43.46754" lon="6.87325">
        <ele>123.67</ele>
        <time>2010-12-12T09:12:33Z</time>
      </trkpt>
      <trkpt lat="43.46756" lon="6.87325">
        <ele>124.15</ele>
        <time>2010-12-12T09:12:36Z</time>
      </trkpt>
      <trkpt lat="43.46771" lon="6.87318">
        <ele>125.59</ele>
        <time>2010-12-12T09:12:54Z</time>
      </trkpt>
      <trkpt lat="43.46772" lon="6.87314">
        <ele>126.55</ele>
        <time>2010-12-12T09:13:07Z</time>
      </trkpt>
      <trkpt lat="43.46784" lon="6.87307">
        <ele>128.47</ele>
        <time>2010-12-12T09:13:23Z</time>
      </trkpt>
      <trkpt lat="43.46796" lon="6.87298">
        <ele>130.88</ele>
        <time>2010-12-12T09:13:41Z</time>
      </trkpt>
      <trkpt lat="43.46804" lon="6.87292">
        <ele>131.84</ele>
        <time>2010-12-12T09:13:56Z</time>
      </trkpt>
      <trkpt lat="43.46806" lon="6.87291">
        <ele>132.32</ele>
        <time>2010-12-12T09:13:59Z</time>
      </trkpt>
      <trkpt lat="43.46822" lon="6.87272">
        <ele>134.72</ele>
        <time>2010-12-12T09:14:19Z</time>
      </trkpt>
      <trkpt lat="43.46831" lon="6.87257">
        <ele>137.61</ele>
        <time>2010-12-12T09:14:36Z</time>
      </trkpt>
      <trkpt lat="43.46841" lon="6.8724">
        <ele>139.53</ele>
        <time>2010-12-12T09:14:57Z</time>
      </trkpt>
      <trkpt lat="43.46851" lon="6.87224">
        <ele>141.45</ele>
        <time>2010-12-12T09:15:16Z</time>
      </trkpt>
      <trkpt lat="43.46859" lon="6.87211">
        <ele>143.85</ele>
        <time>2010-12-12T09:15:34Z</time>
      </trkpt>
      <trkpt lat="43.46871" lon="6.87199">
        <ele>146.26</ele>
        <time>2010-12-12T09:15:53Z</time>
      </trkpt>
      <trkpt lat="43.46884" lon="6.87189">
        <ele>148.66</ele>
        <time>2010-12-12T09:16:14Z</time>
      </trkpt>
      <trkpt lat="43.46898" lon="6.87185">
        <ele>151.06</ele>
        <time>2010-12-12T09:16:32Z</time>
      </trkpt>
      <trkpt lat="43.46912" lon="6.87183">
        <ele>153.47</ele>
        <time>2010-12-12T09:16:51Z</time>
      </trkpt>
      <trkpt lat="43.46925" lon="6.87183">
        <ele>154.91</ele>
        <time>2010-12-12T09:17:08Z</time>
      </trkpt>
      <trkpt lat="43.46937" lon="6.87177">
        <ele>156.35</ele>
        <time>2010-12-12T09:17:26Z</time>
      </trkpt>
      <trkpt lat="43.4695" lon="6.87174">
        <ele>158.27</ele>
        <time>2010-12-12T09:17:46Z</time>
      </trkpt>
      <trkpt lat="43.4696" lon="6.8717">
        <ele>160.68</ele>
        <time>2010-12-12T09:18:04Z</time>
      </trkpt>
      <trkpt lat="43.46967" lon="6.87171">
        <ele>161.16</ele>
        <time>2010-12-12T09:18:12Z</time>
      </trkpt>
      <trkpt lat="43.46978" lon="6.87175">
        <ele>164.04</ele>
        <time>2010-12-12T09:18:30Z</time>
      </trkpt>
      <trkpt lat="43.46983" lon="6.87178">
        <ele>165.48</ele>
        <time>2010-12-12T09:18:37Z</time>
      </trkpt>
      <trkpt lat="43.46989" lon="6.87179">
        <ele>165.96</ele>
        <time>2010-12-12T09:18:44Z</time>
      </trkpt>
      <trkpt lat="43.47004" lon="6.87173">
        <ele>166.45</ele>
        <time>2010-12-12T09:19:00Z</time>
      </trkpt>
      <trkpt lat="43.47011" lon="6.87173">
        <ele>166.93</ele>
        <time>2010-12-12T09:19:18Z</time>
      </trkpt>
      <trkpt lat="43.47011" lon="6.87173">
        <ele>167.41</ele>
        <time>2010-12-12T09:19:36Z</time>
      </trkpt>
      <trkpt lat="43.4701" lon="6.87174">
        <ele>166.45</ele>
        <time>2010-12-12T09:20:08Z</time>
      </trkpt>
      <trkpt lat="43.4701" lon="6.87174">
        <ele>166.93</ele>
        <time>2010-12-12T09:20:32Z</time>
      </trkpt>
      <trkpt lat="43.4701" lon="6.87174">
        <ele>166.93</ele>
        <time>2010-12-12T09:20:56Z</time>
      </trkpt>
      <trkpt lat="43.4701" lon="6.87174">
        <ele>166.45</ele>
        <time>2010-12-12T09:21:20Z</time>
      </trkpt>
      <trkpt lat="43.4701" lon="6.87173">
        <ele>167.89</ele>
        <time>2010-12-12T09:21:35Z</time>
      </trkpt>
      <trkpt lat="43.47011" lon="6.87173">
        <ele>166.93</ele>
        <time>2010-12-12T09:22:12Z</time>
      </trkpt>
      <trkpt lat="43.47011" lon="6.87173">
        <ele>162.12</ele>
        <time>2010-12-12T09:22:26Z</time>
      </trkpt>
      <trkpt lat="43.47011" lon="6.87173">
        <ele>166.93</ele>
        <time>2010-12-12T09:22:27Z</time>
      </trkpt>
      <trkpt lat="43.47012" lon="6.87167">
        <ele>163.56</ele>
        <time>2010-12-12T09:22:41Z</time>
      </trkpt>
      <trkpt lat="43.47022" lon="6.87168">
        <ele>167.89</ele>
        <time>2010-12-12T09:22:57Z</time>
      </trkpt>
      <trkpt lat="43.47033" lon="6.87166">
        <ele>168.37</ele>
        <time>2010-12-12T09:23:12Z</time>
      </trkpt>
      <trkpt lat="43.47046" lon="6.87163">
        <ele>168.85</ele>
        <time>2010-12-12T09:23:28Z</time>
      </trkpt>
      <trkpt lat="43.47051" lon="6.87163">
        <ele>169.33</ele>
        <time>2010-12-12T09:23:32Z</time>
      </trkpt>
      <trkpt lat="43.47065" lon="6.87163">
        <ele>170.29</ele>
        <time>2010-12-12T09:23:47Z</time>
      </trkpt>
      <trkpt lat="43.4708" lon="6.87162">
        <ele>170.77</ele>
        <time>2010-12-12T09:24:03Z</time>
      </trkpt>
      <trkpt lat="43.47097" lon="6.87161">
        <ele>172.21</ele>
        <time>2010-12-12T09:24:18Z</time>
      </trkpt>
      <trkpt lat="43.47116" lon="6.87156">
        <ele>173.17</ele>
        <time>2010-12-12T09:24:37Z</time>
      </trkpt>
      <trkpt lat="43.47126" lon="6.8715">
        <ele>173.17</ele>
        <time>2010-12-12T09:24:53Z</time>
      </trkpt>
      <trkpt lat="43.47132" lon="6.8714">
        <ele>173.17</ele>
        <time>2010-12-12T09:25:06Z</time>
      </trkpt>
      <trkpt lat="43.47133" lon="6.87124">
        <ele>173.66</ele>
        <time>2010-12-12T09:25:17Z</time>
      </trkpt>
      <trkpt lat="43.47128" lon="6.87101">
        <ele>174.62</ele>
        <time>2010-12-12T09:25:35Z</time>
      </trkpt>
      <trkpt lat="43.47123" lon="6.87077">
        <ele>174.62</ele>
        <time>2010-12-12T09:25:53Z</time>
      </trkpt>
      <trkpt lat="43.47126" lon="6.87051">
        <ele>174.62</ele>
        <time>2010-12-12T09:26:10Z</time>
      </trkpt>
      <trkpt lat="43.47131" lon="6.87024">
        <ele>175.58</ele>
        <time>2010-12-12T09:26:28Z</time>
      </trkpt>
      <trkpt lat="43.47137" lon="6.86996">
        <ele>175.1</ele>
        <time>2010-12-12T09:26:46Z</time>
      </trkpt>
      <trkpt lat="43.47141" lon="6.8697">
        <ele>175.1</ele>
        <time>2010-12-12T09:27:03Z</time>
      </trkpt>
      <trkpt lat="43.47143" lon="6.86957">
        <ele>175.58</ele>
        <time>2010-12-12T09:27:12Z</time>
      </trkpt>
      <trkpt lat="43.47159" lon="6.86941">
        <ele>175.1</ele>
        <time>2010-12-12T09:27:30Z</time>
      </trkpt>
      <trkpt lat="43.47162" lon="6.86939">
        <ele>175.58</ele>
        <time>2010-12-12T09:27:34Z</time>
      </trkpt>
      <trkpt lat="43.4718" lon="6.86933">
        <ele>176.06</ele>
        <time>2010-12-12T09:27:51Z</time>
      </trkpt>
      <trkpt lat="43.47195" lon="6.86921">
        <ele>175.58</ele>
        <time>2010-12-12T09:28:07Z</time>
      </trkpt>
      <trkpt lat="43.47208" lon="6.86898">
        <ele>175.1</ele>
        <time>2010-12-12T09:28:25Z</time>
      </trkpt>
      <trkpt lat="43.47218" lon="6.86873">
        <ele>175.1</ele>
        <time>2010-12-12T09:28:44Z</time>
      </trkpt>
      <trkpt lat="43.47228" lon="6.86844">
        <ele>174.14</ele>
        <time>2010-12-12T09:29:02Z</time>
      </trkpt>
      <trkpt lat="43.47236" lon="6.86817">
        <ele>173.66</ele>
        <time>2010-12-12T09:29:21Z</time>
      </trkpt>
      <trkpt lat="43.47236" lon="6.86807">
        <ele>176.54</ele>
        <time>2010-12-12T09:29:35Z</time>
      </trkpt>
      <trkpt lat="43.47241" lon="6.86793">
        <ele>178.94</ele>
        <time>2010-12-12T09:29:51Z</time>
      </trkpt>
      <trkpt lat="43.47242" lon="6.86787">
        <ele>179.9</ele>
        <time>2010-12-12T09:29:55Z</time>
      </trkpt>
      <trkpt lat="43.47239" lon="6.86766">
        <ele>180.87</ele>
        <time>2010-12-12T09:30:13Z</time>
      </trkpt>
      <trkpt lat="43.47242" lon="6.86751">
        <ele>183.27</ele>
        <time>2010-12-12T09:30:30Z</time>
      </trkpt>
      <trkpt lat="43.4724" lon="6.8673">
        <ele>186.15</ele>
        <time>2010-12-12T09:30:51Z</time>
      </trkpt>
      <trkpt lat="43.4724" lon="6.86727">
        <ele>186.15</ele>
        <time>2010-12-12T09:30:53Z</time>
      </trkpt>
      <trkpt lat="43.47239" lon="6.86714">
        <ele>188.56</ele>
        <time>2010-12-12T09:31:13Z</time>
      </trkpt>
      <trkpt lat="43.47237" lon="6.86709">
        <ele>188.56</ele>
        <time>2010-12-12T09:31:17Z</time>
      </trkpt>
      <trkpt lat="43.47234" lon="6.86697">
        <ele>190</ele>
        <time>2010-12-12T09:31:33Z</time>
      </trkpt>
      <trkpt lat="43.47234" lon="6.8669">
        <ele>189.52</ele>
        <time>2010-12-12T09:31:53Z</time>
      </trkpt>
      <trkpt lat="43.47235" lon="6.86689">
        <ele>190</ele>
        <time>2010-12-12T09:31:54Z</time>
      </trkpt>
      <trkpt lat="43.47254" lon="6.86683">
        <ele>190.48</ele>
        <time>2010-12-12T09:32:12Z</time>
      </trkpt>
      <trkpt lat="43.47265" lon="6.86675">
        <ele>192.4</ele>
        <time>2010-12-12T09:32:30Z</time>
      </trkpt>
      <trkpt lat="43.47276" lon="6.86667">
        <ele>195.77</ele>
        <time>2010-12-12T09:32:48Z</time>
      </trkpt>
      <trkpt lat="43.47275" lon="6.86649">
        <ele>195.28</ele>
        <time>2010-12-12T09:33:05Z</time>
      </trkpt>
      <trkpt lat="43.47276" lon="6.86648">
        <ele>196.25</ele>
        <time>2010-12-12T09:33:12Z</time>
      </trkpt>
      <trkpt lat="43.47284" lon="6.86649">
        <ele>196.25</ele>
        <time>2010-12-12T09:33:28Z</time>
      </trkpt>
      <trkpt lat="43.47299" lon="6.86646">
        <ele>196.73</ele>
        <time>2010-12-12T09:33:43Z</time>
      </trkpt>
      <trkpt lat="43.47313" lon="6.86642">
        <ele>197.21</ele>
        <time>2010-12-12T09:33:59Z</time>
      </trkpt>
      <trkpt lat="43.47326" lon="6.86638">
        <ele>197.21</ele>
        <time>2010-12-12T09:34:12Z</time>
      </trkpt>
      <trkpt lat="43.47343" lon="6.86635">
        <ele>197.21</ele>
        <time>2010-12-12T09:34:27Z</time>
      </trkpt>
      <trkpt lat="43.47358" lon="6.86632">
        <ele>197.69</ele>
        <time>2010-12-12T09:34:42Z</time>
      </trkpt>
      <trkpt lat="43.47373" lon="6.86629">
        <ele>196.25</ele>
        <time>2010-12-12T09:34:57Z</time>
      </trkpt>
      <trkpt lat="43.47377" lon="6.86629">
        <ele>197.69</ele>
        <time>2010-12-12T09:35:00Z</time>
      </trkpt>
      <trkpt lat="43.47392" lon="6.86628">
        <ele>197.21</ele>
        <time>2010-12-12T09:35:16Z</time>
      </trkpt>
      <trkpt lat="43.47407" lon="6.86627">
        <ele>197.21</ele>
        <time>2010-12-12T09:35:33Z</time>
      </trkpt>
      <trkpt lat="43.47421" lon="6.86624">
        <ele>196.73</ele>
        <time>2010-12-12T09:35:50Z</time>
      </trkpt>
      <trkpt lat="43.47429" lon="6.86624">
        <ele>196.73</ele>
        <time>2010-12-12T09:36:04Z</time>
      </trkpt>
      <trkpt lat="43.47432" lon="6.86624">
        <ele>197.21</ele>
        <time>2010-12-12T09:36:08Z</time>
      </trkpt>
      <trkpt lat="43.47448" lon="6.86626">
        <ele>197.21</ele>
        <time>2010-12-12T09:36:24Z</time>
      </trkpt>
      <trkpt lat="43.47449" lon="6.86626">
        <ele>196.73</ele>
        <time>2010-12-12T09:36:25Z</time>
      </trkpt>
      <trkpt lat="43.47464" lon="6.86627">
        <ele>197.21</ele>
        <time>2010-12-12T09:36:42Z</time>
      </trkpt>
      <trkpt lat="43.47481" lon="6.86628">
        <ele>196.25</ele>
        <time>2010-12-12T09:36:57Z</time>
      </trkpt>
      <trkpt lat="43.47496" lon="6.86631">
        <ele>196.25</ele>
        <time>2010-12-12T09:37:13Z</time>
      </trkpt>
      <trkpt lat="43.47499" lon="6.86631">
        <ele>196.25</ele>
        <time>2010-12-12T09:37:35Z</time>
      </trkpt>
      <trkpt lat="43.47515" lon="6.86631">
        <ele>196.25</ele>
        <time>2010-12-12T09:37:52Z</time>
      </trkpt>
      <trkpt lat="43.47529" lon="6.86631">
        <ele>196.25</ele>
        <time>2010-12-12T09:38:08Z</time>
      </trkpt>
      <trkpt lat="43.47546" lon="6.86636">
        <ele>197.21</ele>
        <time>2010-12-12T09:38:25Z</time>
      </trkpt>
      <trkpt lat="43.47562" lon="6.86638">
        <ele>197.69</ele>
        <time>2010-12-12T09:38:42Z</time>
      </trkpt>
      <trkpt lat="43.47578" lon="6.86645">
        <ele>198.17</ele>
        <time>2010-12-12T09:38:59Z</time>
      </trkpt>
      <trkpt lat="43.47595" lon="6.86654">
        <ele>199.13</ele>
        <time>2010-12-12T09:39:18Z</time>
      </trkpt>
      <trkpt lat="43.47611" lon="6.86657">
        <ele>199.61</ele>
        <time>2010-12-12T09:39:35Z</time>
      </trkpt>
      <trkpt lat="43.47624" lon="6.86662">
        <ele>200.09</ele>
        <time>2010-12-12T09:39:52Z</time>
      </trkpt>
      <trkpt lat="43.4764" lon="6.86666">
        <ele>200.57</ele>
        <time>2010-12-12T09:40:09Z</time>
      </trkpt>
      <trkpt lat="43.47654" lon="6.86674">
        <ele>201.05</ele>
        <time>2010-12-12T09:40:30Z</time>
      </trkpt>
      <trkpt lat="43.47661" lon="6.86681">
        <ele>202.01</ele>
        <time>2010-12-12T09:40:40Z</time>
      </trkpt>
      <trkpt lat="43.47665" lon="6.86684">
        <ele>201.53</ele>
        <time>2010-12-12T09:40:44Z</time>
      </trkpt>
      <trkpt lat="43.4768" lon="6.86696">
        <ele>202.49</ele>
        <time>2010-12-12T09:41:03Z</time>
      </trkpt>
      <trkpt lat="43.47689" lon="6.86708">
        <ele>202.49</ele>
        <time>2010-12-12T09:41:20Z</time>
      </trkpt>
      <trkpt lat="43.47698" lon="6.86722">
        <ele>203.46</ele>
        <time>2010-12-12T09:41:39Z</time>
      </trkpt>
      <trkpt lat="43.47699" lon="6.86724">
        <ele>203.46</ele>
        <time>2010-12-12T09:42:12Z</time>
      </trkpt>
      <trkpt lat="43.47699" lon="6.86725">
        <ele>203.94</ele>
        <time>2010-12-12T09:42:14Z</time>
      </trkpt>
      <trkpt lat="43.477" lon="6.86729">
        <ele>203.46</ele>
        <time>2010-12-12T09:42:17Z</time>
      </trkpt>
      <trkpt lat="43.47704" lon="6.86734">
        <ele>203.46</ele>
        <time>2010-12-12T09:42:21Z</time>
      </trkpt>
      <trkpt lat="43.47707" lon="6.86741">
        <ele>203.46</ele>
        <time>2010-12-12T09:42:26Z</time>
      </trkpt>
      <trkpt lat="43.4772" lon="6.86754">
        <ele>204.42</ele>
        <time>2010-12-12T09:42:44Z</time>
      </trkpt>
      <trkpt lat="43.47732" lon="6.86762">
        <ele>204.9</ele>
        <time>2010-12-12T09:43:01Z</time>
      </trkpt>
      <trkpt lat="43.47745" lon="6.86774">
        <ele>205.38</ele>
        <time>2010-12-12T09:43:17Z</time>
      </trkpt>
      <trkpt lat="43.47757" lon="6.86785">
        <ele>205.38</ele>
        <time>2010-12-12T09:43:33Z</time>
      </trkpt>
      <trkpt lat="43.47767" lon="6.86798">
        <ele>206.34</ele>
        <time>2010-12-12T09:43:52Z</time>
      </trkpt>
      <trkpt lat="43.47771" lon="6.86818">
        <ele>206.82</ele>
        <time>2010-12-12T09:44:10Z</time>
      </trkpt>
      <trkpt lat="43.47784" lon="6.86828">
        <ele>207.78</ele>
        <time>2010-12-12T09:44:26Z</time>
      </trkpt>
      <trkpt lat="43.47786" lon="6.8683">
        <ele>207.3</ele>
        <time>2010-12-12T09:44:29Z</time>
      </trkpt>
      <trkpt lat="43.47793" lon="6.86856">
        <ele>207.78</ele>
        <time>2010-12-12T09:44:48Z</time>
      </trkpt>
      <trkpt lat="43.47795" lon="6.86859">
        <ele>207.78</ele>
        <time>2010-12-12T09:44:51Z</time>
      </trkpt>
      <trkpt lat="43.47809" lon="6.86871">
        <ele>208.26</ele>
        <time>2010-12-12T09:45:08Z</time>
      </trkpt>
      <trkpt lat="43.47819" lon="6.86857">
        <ele>206.82</ele>
        <time>2010-12-12T09:45:23Z</time>
      </trkpt>
      <trkpt lat="43.47829" lon="6.8684">
        <ele>205.38</ele>
        <time>2010-12-12T09:45:40Z</time>
      </trkpt>
      <trkpt lat="43.47841" lon="6.86829">
        <ele>204.42</ele>
        <time>2010-12-12T09:45:57Z</time>
      </trkpt>
      <trkpt lat="43.47857" lon="6.86825">
        <ele>204.42</ele>
        <time>2010-12-12T09:46:15Z</time>
      </trkpt>
      <trkpt lat="43.47861" lon="6.86824">
        <ele>203.46</ele>
        <time>2010-12-12T09:46:19Z</time>
      </trkpt>
      <trkpt lat="43.47874" lon="6.8682">
        <ele>202.49</ele>
        <time>2010-12-12T09:46:36Z</time>
      </trkpt>
      <trkpt lat="43.47889" lon="6.86816">
        <ele>201.05</ele>
        <time>2010-12-12T09:46:54Z</time>
      </trkpt>
      <trkpt lat="43.47903" lon="6.86811">
        <ele>200.09</ele>
        <time>2010-12-12T09:47:08Z</time>
      </trkpt>
      <trkpt lat="43.47917" lon="6.86802">
        <ele>198.65</ele>
        <time>2010-12-12T09:47:26Z</time>
      </trkpt>
      <trkpt lat="43.47932" lon="6.86793">
        <ele>197.21</ele>
        <time>2010-12-12T09:47:44Z</time>
      </trkpt>
      <trkpt lat="43.47935" lon="6.86793">
        <ele>197.69</ele>
        <time>2010-12-12T09:47:47Z</time>
      </trkpt>
      <trkpt lat="43.47949" lon="6.86792">
        <ele>197.21</ele>
        <time>2010-12-12T09:48:03Z</time>
      </trkpt>
      <trkpt lat="43.47955" lon="6.86789">
        <ele>196.73</ele>
        <time>2010-12-12T09:48:09Z</time>
      </trkpt>
      <trkpt lat="43.47967" lon="6.86769">
        <ele>195.28</ele>
        <time>2010-12-12T09:48:26Z</time>
      </trkpt>
      <trkpt lat="43.47976" lon="6.86756">
        <ele>194.32</ele>
        <time>2010-12-12T09:48:42Z</time>
      </trkpt>
      <trkpt lat="43.47986" lon="6.86744">
        <ele>193.36</ele>
        <time>2010-12-12T09:48:58Z</time>
      </trkpt>
      <trkpt lat="43.4799" lon="6.8674">
        <ele>192.88</ele>
        <time>2010-12-12T09:49:19Z</time>
      </trkpt>
      <trkpt lat="43.4799" lon="6.8674">
        <ele>193.36</ele>
        <time>2010-12-12T09:49:50Z</time>
      </trkpt>
      <trkpt lat="43.4799" lon="6.8674">
        <ele>193.36</ele>
        <time>2010-12-12T09:50:23Z</time>
      </trkpt>
      <trkpt lat="43.4799" lon="6.8674">
        <ele>193.36</ele>
        <time>2010-12-12T09:51:01Z</time>
      </trkpt>
      <trkpt lat="43.47992" lon="6.86738">
        <ele>192.88</ele>
        <time>2010-12-12T09:51:31Z</time>
      </trkpt>
      <trkpt lat="43.4801" lon="6.86727">
        <ele>191.44</ele>
        <time>2010-12-12T09:51:49Z</time>
      </trkpt>
      <trkpt lat="43.48024" lon="6.86719">
        <ele>190.48</ele>
        <time>2010-12-12T09:52:05Z</time>
      </trkpt>
      <trkpt lat="43.48027" lon="6.86718">
        <ele>190</ele>
        <time>2010-12-12T09:52:08Z</time>
      </trkpt>
      <trkpt lat="43.48047" lon="6.86713">
        <ele>188.56</ele>
        <time>2010-12-12T09:52:28Z</time>
      </trkpt>
      <trkpt lat="43.48065" lon="6.86711">
        <ele>187.59</ele>
        <time>2010-12-12T09:52:45Z</time>
      </trkpt>
      <trkpt lat="43.48078" lon="6.86709">
        <ele>186.63</ele>
        <time>2010-12-12T09:53:00Z</time>
      </trkpt>
      <trkpt lat="43.48084" lon="6.86711">
        <ele>186.15</ele>
        <time>2010-12-12T09:53:07Z</time>
      </trkpt>
      <trkpt lat="43.48101" lon="6.86717">
        <ele>184.71</ele>
        <time>2010-12-12T09:53:27Z</time>
      </trkpt>
      <trkpt lat="43.48115" lon="6.8672">
        <ele>184.23</ele>
        <time>2010-12-12T09:53:41Z</time>
      </trkpt>
      <trkpt lat="43.48124" lon="6.86701">
        <ele>182.79</ele>
        <time>2010-12-12T09:53:59Z</time>
      </trkpt>
      <trkpt lat="43.48136" lon="6.86683">
        <ele>182.79</ele>
        <time>2010-12-12T09:54:15Z</time>
      </trkpt>
      <trkpt lat="43.48151" lon="6.86673">
        <ele>183.75</ele>
        <time>2010-12-12T09:54:30Z</time>
      </trkpt>
      <trkpt lat="43.48166" lon="6.86657">
        <ele>184.71</ele>
        <time>2010-12-12T09:54:46Z</time>
      </trkpt>
      <trkpt lat="43.48167" lon="6.86656">
        <ele>185.67</ele>
        <time>2010-12-12T09:54:48Z</time>
      </trkpt>
      <trkpt lat="43.48171" lon="6.86652">
        <ele>185.67</ele>
        <time>2010-12-12T09:54:53Z</time>
      </trkpt>
      <trkpt lat="43.48179" lon="6.86646">
        <ele>187.11</ele>
        <time>2010-12-12T09:55:02Z</time>
      </trkpt>
      <trkpt lat="43.48193" lon="6.86633">
        <ele>188.56</ele>
        <time>2010-12-12T09:55:19Z</time>
      </trkpt>
      <trkpt lat="43.48207" lon="6.86625">
        <ele>190.48</ele>
        <time>2010-12-12T09:55:36Z</time>
      </trkpt>
      <trkpt lat="43.48222" lon="6.86617">
        <ele>192.4</ele>
        <time>2010-12-12T09:55:52Z</time>
      </trkpt>
      <trkpt lat="43.48235" lon="6.86613">
        <ele>193.84</ele>
        <time>2010-12-12T09:56:07Z</time>
      </trkpt>
      <trkpt lat="43.48252" lon="6.86606">
        <ele>194.8</ele>
        <time>2010-12-12T09:56:23Z</time>
      </trkpt>
      <trkpt lat="43.48269" lon="6.866">
        <ele>196.25</ele>
        <time>2010-12-12T09:56:41Z</time>
      </trkpt>
      <trkpt lat="43.48274" lon="6.86598">
        <ele>197.21</ele>
        <time>2010-12-12T09:56:46Z</time>
      </trkpt>
      <trkpt lat="43.48287" lon="6.86594">
        <ele>198.17</ele>
        <time>2010-12-12T09:57:00Z</time>
      </trkpt>
      <trkpt lat="43.4829" lon="6.86594">
        <ele>198.17</ele>
        <time>2010-12-12T09:57:03Z</time>
      </trkpt>
      <trkpt lat="43.483" lon="6.86598">
        <ele>198.17</ele>
        <time>2010-12-12T09:57:12Z</time>
      </trkpt>
      <trkpt lat="43.48313" lon="6.86612">
        <ele>198.65</ele>
        <time>2010-12-12T09:57:29Z</time>
      </trkpt>
      <trkpt lat="43.48321" lon="6.86642">
        <ele>200.09</ele>
        <time>2010-12-12T09:57:47Z</time>
      </trkpt>
      <trkpt lat="43.48325" lon="6.86673">
        <ele>199.61</ele>
        <time>2010-12-12T09:58:04Z</time>
      </trkpt>
      <trkpt lat="43.48323" lon="6.86692">
        <ele>200.09</ele>
        <time>2010-12-12T09:58:17Z</time>
      </trkpt>
      <trkpt lat="43.48325" lon="6.86715">
        <ele>200.57</ele>
        <time>2010-12-12T09:58:30Z</time>
      </trkpt>
      <trkpt lat="43.48329" lon="6.86743">
        <ele>200.09</ele>
        <time>2010-12-12T09:58:47Z</time>
      </trkpt>
      <trkpt lat="43.4833" lon="6.86745">
        <ele>200.57</ele>
        <time>2010-12-12T09:59:05Z</time>
      </trkpt>
      <trkpt lat="43.4833" lon="6.86745">
        <ele>200.57</ele>
        <time>2010-12-12T09:59:43Z</time>
      </trkpt>
      <trkpt lat="43.4833" lon="6.86751">
        <ele>202.01</ele>
        <time>2010-12-12T10:00:09Z</time>
      </trkpt>
      <trkpt lat="43.48333" lon="6.86786">
        <ele>201.53</ele>
        <time>2010-12-12T10:00:29Z</time>
      </trkpt>
      <trkpt lat="43.48338" lon="6.86812">
        <ele>202.49</ele>
        <time>2010-12-12T10:00:45Z</time>
      </trkpt>
      <trkpt lat="43.48345" lon="6.86842">
        <ele>202.98</ele>
        <time>2010-12-12T10:01:03Z</time>
      </trkpt>
      <trkpt lat="43.48352" lon="6.86861">
        <ele>202.98</ele>
        <time>2010-12-12T10:01:19Z</time>
      </trkpt>
      <trkpt lat="43.48357" lon="6.86874">
        <ele>203.46</ele>
        <time>2010-12-12T10:01:35Z</time>
      </trkpt>
      <trkpt lat="43.48367" lon="6.86892">
        <ele>202.98</ele>
        <time>2010-12-12T10:01:52Z</time>
      </trkpt>
      <trkpt lat="43.48369" lon="6.86896">
        <ele>203.94</ele>
        <time>2010-12-12T10:01:57Z</time>
      </trkpt>
      <trkpt lat="43.48384" lon="6.86907">
        <ele>204.42</ele>
        <time>2010-12-12T10:02:13Z</time>
      </trkpt>
      <trkpt lat="43.48395" lon="6.86908">
        <ele>204.9</ele>
        <time>2010-12-12T10:02:25Z</time>
      </trkpt>
      <trkpt lat="43.48412" lon="6.86896">
        <ele>204.42</ele>
        <time>2010-12-12T10:02:42Z</time>
      </trkpt>
      <trkpt lat="43.48428" lon="6.86894">
        <ele>203.94</ele>
        <time>2010-12-12T10:02:56Z</time>
      </trkpt>
      <trkpt lat="43.4844" lon="6.86897">
        <ele>204.42</ele>
        <time>2010-12-12T10:03:07Z</time>
      </trkpt>
      <trkpt lat="43.48444" lon="6.86898">
        <ele>203.46</ele>
        <time>2010-12-12T10:03:11Z</time>
      </trkpt>
      <trkpt lat="43.48455" lon="6.86898">
        <ele>203.94</ele>
        <time>2010-12-12T10:03:26Z</time>
      </trkpt>
      <trkpt lat="43.48455" lon="6.86896">
        <ele>203.94</ele>
        <time>2010-12-12T10:03:42Z</time>
      </trkpt>
      <trkpt lat="43.48455" lon="6.86896">
        <ele>203.94</ele>
        <time>2010-12-12T10:04:07Z</time>
      </trkpt>
      <trkpt lat="43.48464" lon="6.869">
        <ele>203.94</ele>
        <time>2010-12-12T10:04:25Z</time>
      </trkpt>
      <trkpt lat="43.48483" lon="6.86901">
        <ele>204.42</ele>
        <time>2010-12-12T10:04:42Z</time>
      </trkpt>
      <trkpt lat="43.48499" lon="6.86899">
        <ele>205.86</ele>
        <time>2010-12-12T10:04:57Z</time>
      </trkpt>
      <trkpt lat="43.48502" lon="6.86899">
        <ele>204.42</ele>
        <time>2010-12-12T10:04:59Z</time>
      </trkpt>
      <trkpt lat="43.4852" lon="6.86892">
        <ele>204.9</ele>
        <time>2010-12-12T10:05:15Z</time>
      </trkpt>
      <trkpt lat="43.48526" lon="6.86889">
        <ele>204.9</ele>
        <time>2010-12-12T10:05:21Z</time>
      </trkpt>
      <trkpt lat="43.48533" lon="6.86884">
        <ele>204.42</ele>
        <time>2010-12-12T10:05:28Z</time>
      </trkpt>
      <trkpt lat="43.48552" lon="6.8687">
        <ele>204.9</ele>
        <time>2010-12-12T10:05:46Z</time>
      </trkpt>
      <trkpt lat="43.48572" lon="6.86856">
        <ele>205.86</ele>
        <time>2010-12-12T10:06:04Z</time>
      </trkpt>
      <trkpt lat="43.48587" lon="6.86841">
        <ele>204.42</ele>
        <time>2010-12-12T10:06:19Z</time>
      </trkpt>
      <trkpt lat="43.48603" lon="6.86828">
        <ele>204.9</ele>
        <time>2010-12-12T10:06:35Z</time>
      </trkpt>
      <trkpt lat="43.4862" lon="6.86818">
        <ele>205.38</ele>
        <time>2010-12-12T10:06:50Z</time>
      </trkpt>
      <trkpt lat="43.48636" lon="6.86803">
        <ele>205.38</ele>
        <time>2010-12-12T10:07:06Z</time>
      </trkpt>
      <trkpt lat="43.48651" lon="6.86787">
        <ele>205.38</ele>
        <time>2010-12-12T10:07:22Z</time>
      </trkpt>
      <trkpt lat="43.48671" lon="6.8677">
        <ele>205.86</ele>
        <time>2010-12-12T10:07:41Z</time>
      </trkpt>
      <trkpt lat="43.4869" lon="6.86758">
        <ele>205.86</ele>
        <time>2010-12-12T10:07:57Z</time>
      </trkpt>
      <trkpt lat="43.48711" lon="6.86751">
        <ele>206.34</ele>
        <time>2010-12-12T10:08:15Z</time>
      </trkpt>
      <trkpt lat="43.48714" lon="6.86747">
        <ele>205.86</ele>
        <time>2010-12-12T10:08:21Z</time>
      </trkpt>
      <trkpt lat="43.48717" lon="6.86745">
        <ele>206.34</ele>
        <time>2010-12-12T10:08:24Z</time>
      </trkpt>
      <trkpt lat="43.48723" lon="6.86743">
        <ele>206.34</ele>
        <time>2010-12-12T10:08:40Z</time>
      </trkpt>
      <trkpt lat="43.48723" lon="6.86743">
        <ele>205.86</ele>
        <time>2010-12-12T10:08:54Z</time>
      </trkpt>
      <trkpt lat="43.48723" lon="6.86743">
        <ele>206.34</ele>
        <time>2010-12-12T10:09:19Z</time>
      </trkpt>
      <trkpt lat="43.48723" lon="6.86743">
        <ele>206.34</ele>
        <time>2010-12-12T10:09:50Z</time>
      </trkpt>
      <trkpt lat="43.48722" lon="6.86744">
        <ele>205.86</ele>
        <time>2010-12-12T10:10:11Z</time>
      </trkpt>
      <trkpt lat="43.48722" lon="6.86744">
        <ele>206.34</ele>
        <time>2010-12-12T10:10:36Z</time>
      </trkpt>
      <trkpt lat="43.48722" lon="6.86744">
        <ele>206.34</ele>
        <time>2010-12-12T10:11:08Z</time>
      </trkpt>
      <trkpt lat="43.48729" lon="6.86742">
        <ele>206.34</ele>
        <time>2010-12-12T10:11:38Z</time>
      </trkpt>
      <trkpt lat="43.48733" lon="6.86739">
        <ele>206.34</ele>
        <time>2010-12-12T10:11:42Z</time>
      </trkpt>
      <trkpt lat="43.48751" lon="6.86732">
        <ele>206.82</ele>
        <time>2010-12-12T10:11:58Z</time>
      </trkpt>
      <trkpt lat="43.48766" lon="6.86722">
        <ele>207.3</ele>
        <time>2010-12-12T10:12:13Z</time>
      </trkpt>
      <trkpt lat="43.48781" lon="6.86707">
        <ele>207.78</ele>
        <time>2010-12-12T10:12:30Z</time>
      </trkpt>
      <trkpt lat="43.48791" lon="6.86693">
        <ele>207.78</ele>
        <time>2010-12-12T10:12:46Z</time>
      </trkpt>
      <trkpt lat="43.48803" lon="6.86679">
        <ele>209.22</ele>
        <time>2010-12-12T10:13:01Z</time>
      </trkpt>
      <trkpt lat="43.48816" lon="6.86661">
        <ele>209.7</ele>
        <time>2010-12-12T10:13:18Z</time>
      </trkpt>
      <trkpt lat="43.48827" lon="6.86647">
        <ele>210.19</ele>
        <time>2010-12-12T10:13:33Z</time>
      </trkpt>
      <trkpt lat="43.48839" lon="6.8663">
        <ele>211.15</ele>
        <time>2010-12-12T10:13:50Z</time>
      </trkpt>
      <trkpt lat="43.4884" lon="6.86629">
        <ele>211.15</ele>
        <time>2010-12-12T10:13:51Z</time>
      </trkpt>
      <trkpt lat="43.48843" lon="6.86622">
        <ele>211.63</ele>
        <time>2010-12-12T10:13:56Z</time>
      </trkpt>
      <trkpt lat="43.48854" lon="6.86603">
        <ele>211.63</ele>
        <time>2010-12-12T10:14:11Z</time>
      </trkpt>
      <trkpt lat="43.48859" lon="6.86585">
        <ele>211.63</ele>
        <time>2010-12-12T10:14:26Z</time>
      </trkpt>
      <trkpt lat="43.48863" lon="6.86569">
        <ele>212.59</ele>
        <time>2010-12-12T10:14:38Z</time>
      </trkpt>
      <trkpt lat="43.48866" lon="6.86542">
        <ele>213.55</ele>
        <time>2010-12-12T10:14:57Z</time>
      </trkpt>
      <trkpt lat="43.48869" lon="6.86524">
        <ele>214.51</ele>
        <time>2010-12-12T10:15:10Z</time>
      </trkpt>
      <trkpt lat="43.48872" lon="6.86511">
        <ele>214.51</ele>
        <time>2010-12-12T10:15:27Z</time>
      </trkpt>
      <trkpt lat="43.48872" lon="6.86511">
        <ele>214.51</ele>
        <time>2010-12-12T10:15:49Z</time>
      </trkpt>
      <trkpt lat="43.48872" lon="6.86511">
        <ele>214.51</ele>
        <time>2010-12-12T10:16:08Z</time>
      </trkpt>
      <trkpt lat="43.48874" lon="6.86503">
        <ele>214.51</ele>
        <time>2010-12-12T10:16:24Z</time>
      </trkpt>
      <trkpt lat="43.48874" lon="6.86503">
        <ele>214.03</ele>
        <time>2010-12-12T10:16:58Z</time>
      </trkpt>
      <trkpt lat="43.48875" lon="6.86498">
        <ele>214.03</ele>
        <time>2010-12-12T10:17:07Z</time>
      </trkpt>
      <trkpt lat="43.4888" lon="6.86474">
        <ele>214.99</ele>
        <time>2010-12-12T10:17:23Z</time>
      </trkpt>
      <trkpt lat="43.48888" lon="6.86455">
        <ele>214.99</ele>
        <time>2010-12-12T10:17:40Z</time>
      </trkpt>
      <trkpt lat="43.48891" lon="6.86452">
        <ele>215.47</ele>
        <time>2010-12-12T10:17:45Z</time>
      </trkpt>
      <trkpt lat="43.48901" lon="6.86445">
        <ele>215.95</ele>
        <time>2010-12-12T10:17:55Z</time>
      </trkpt>
      <trkpt lat="43.48914" lon="6.86429">
        <ele>216.43</ele>
        <time>2010-12-12T10:18:12Z</time>
      </trkpt>
      <trkpt lat="43.4893" lon="6.86413">
        <ele>215.95</ele>
        <time>2010-12-12T10:18:29Z</time>
      </trkpt>
      <trkpt lat="43.48935" lon="6.86408">
        <ele>216.43</ele>
        <time>2010-12-12T10:18:37Z</time>
      </trkpt>
      <trkpt lat="43.48945" lon="6.86406">
        <ele>216.91</ele>
        <time>2010-12-12T10:18:46Z</time>
      </trkpt>
      <trkpt lat="43.48956" lon="6.86401">
        <ele>217.4</ele>
        <time>2010-12-12T10:18:59Z</time>
      </trkpt>
      <trkpt lat="43.48966" lon="6.86401">
        <ele>217.88</ele>
        <time>2010-12-12T10:19:12Z</time>
      </trkpt>
      <trkpt lat="43.48978" lon="6.86399">
        <ele>218.36</ele>
        <time>2010-12-12T10:19:26Z</time>
      </trkpt>
      <trkpt lat="43.48988" lon="6.864">
        <ele>218.84</ele>
        <time>2010-12-12T10:19:36Z</time>
      </trkpt>
      <trkpt lat="43.48997" lon="6.86388">
        <ele>218.84</ele>
        <time>2010-12-12T10:19:48Z</time>
      </trkpt>
      <trkpt lat="43.49009" lon="6.86383">
        <ele>218.84</ele>
        <time>2010-12-12T10:20:02Z</time>
      </trkpt>
      <trkpt lat="43.4901" lon="6.86382">
        <ele>219.32</ele>
        <time>2010-12-12T10:20:06Z</time>
      </trkpt>
      <trkpt lat="43.49012" lon="6.86377">
        <ele>219.32</ele>
        <time>2010-12-12T10:20:10Z</time>
      </trkpt>
      <trkpt lat="43.49014" lon="6.86375">
        <ele>219.32</ele>
        <time>2010-12-12T10:20:12Z</time>
      </trkpt>
      <trkpt lat="43.4902" lon="6.86357">
        <ele>219.32</ele>
        <time>2010-12-12T10:20:27Z</time>
      </trkpt>
      <trkpt lat="43.49027" lon="6.86348">
        <ele>220.76</ele>
        <time>2010-12-12T10:20:43Z</time>
      </trkpt>
      <trkpt lat="43.49028" lon="6.86346">
        <ele>220.28</ele>
        <time>2010-12-12T10:21:00Z</time>
      </trkpt>
      <trkpt lat="43.49028" lon="6.86344">
        <ele>220.76</ele>
        <time>2010-12-12T10:21:26Z</time>
      </trkpt>
      <trkpt lat="43.49033" lon="6.86339">
        <ele>220.76</ele>
        <time>2010-12-12T10:21:46Z</time>
      </trkpt>
      <trkpt lat="43.49033" lon="6.86339">
        <ele>220.76</ele>
        <time>2010-12-12T10:22:07Z</time>
      </trkpt>
      <trkpt lat="43.49038" lon="6.86329">
        <ele>220.76</ele>
        <time>2010-12-12T10:22:20Z</time>
      </trkpt>
      <trkpt lat="43.49051" lon="6.86316">
        <ele>221.24</ele>
        <time>2010-12-12T10:22:36Z</time>
      </trkpt>
      <trkpt lat="43.49054" lon="6.86314">
        <ele>221.72</ele>
        <time>2010-12-12T10:22:40Z</time>
      </trkpt>
      <trkpt lat="43.49065" lon="6.86306">
        <ele>221.72</ele>
        <time>2010-12-12T10:22:54Z</time>
      </trkpt>
      <trkpt lat="43.49079" lon="6.86301">
        <ele>222.2</ele>
        <time>2010-12-12T10:23:08Z</time>
      </trkpt>
      <trkpt lat="43.49084" lon="6.86299">
        <ele>222.68</ele>
        <time>2010-12-12T10:23:14Z</time>
      </trkpt>
      <trkpt lat="43.49101" lon="6.86301">
        <ele>222.68</ele>
        <time>2010-12-12T10:23:30Z</time>
      </trkpt>
      <trkpt lat="43.49117" lon="6.86305">
        <ele>224.12</ele>
        <time>2010-12-12T10:23:46Z</time>
      </trkpt>
      <trkpt lat="43.4912" lon="6.86305">
        <ele>224.12</ele>
        <time>2010-12-12T10:23:50Z</time>
      </trkpt>
      <trkpt lat="43.49134" lon="6.86306">
        <ele>225.09</ele>
        <time>2010-12-12T10:24:04Z</time>
      </trkpt>
      <trkpt lat="43.49146" lon="6.8631">
        <ele>225.09</ele>
        <time>2010-12-12T10:24:20Z</time>
      </trkpt>
      <trkpt lat="43.49153" lon="6.86322">
        <ele>225.57</ele>
        <time>2010-12-12T10:24:34Z</time>
      </trkpt>
      <trkpt lat="43.49157" lon="6.86338">
        <ele>226.53</ele>
        <time>2010-12-12T10:24:51Z</time>
      </trkpt>
      <trkpt lat="43.49158" lon="6.86348">
        <ele>227.01</ele>
        <time>2010-12-12T10:25:10Z</time>
      </trkpt>
      <trkpt lat="43.49158" lon="6.86348">
        <ele>226.05</ele>
        <time>2010-12-12T10:25:39Z</time>
      </trkpt>
      <trkpt lat="43.49158" lon="6.86348">
        <ele>227.01</ele>
        <time>2010-12-12T10:26:07Z</time>
      </trkpt>
      <trkpt lat="43.49159" lon="6.86354">
        <ele>228.45</ele>
        <time>2010-12-12T10:26:19Z</time>
      </trkpt>
      <trkpt lat="43.4916" lon="6.86364">
        <ele>226.53</ele>
        <time>2010-12-12T10:26:28Z</time>
      </trkpt>
      <trkpt lat="43.49161" lon="6.86395">
        <ele>227.49</ele>
        <time>2010-12-12T10:26:47Z</time>
      </trkpt>
      <trkpt lat="43.4916" lon="6.86425">
        <ele>228.93</ele>
        <time>2010-12-12T10:27:06Z</time>
      </trkpt>
      <trkpt lat="43.4916" lon="6.86448">
        <ele>228.93</ele>
        <time>2010-12-12T10:27:22Z</time>
      </trkpt>
      <trkpt lat="43.49159" lon="6.86469">
        <ele>229.41</ele>
        <time>2010-12-12T10:27:38Z</time>
      </trkpt>
      <trkpt lat="43.49159" lon="6.86475">
        <ele>229.41</ele>
        <time>2010-12-12T10:27:43Z</time>
      </trkpt>
      <trkpt lat="43.49159" lon="6.86495">
        <ele>229.89</ele>
        <time>2010-12-12T10:27:59Z</time>
      </trkpt>
      <trkpt lat="43.49158" lon="6.86519">
        <ele>230.37</ele>
        <time>2010-12-12T10:28:16Z</time>
      </trkpt>
      <trkpt lat="43.49152" lon="6.86539">
        <ele>231.33</ele>
        <time>2010-12-12T10:28:33Z</time>
      </trkpt>
      <trkpt lat="43.49147" lon="6.86557">
        <ele>231.81</ele>
        <time>2010-12-12T10:28:49Z</time>
      </trkpt>
      <trkpt lat="43.49135" lon="6.86576">
        <ele>232.3</ele>
        <time>2010-12-12T10:29:07Z</time>
      </trkpt>
      <trkpt lat="43.49134" lon="6.86579">
        <ele>232.3</ele>
        <time>2010-12-12T10:29:09Z</time>
      </trkpt>
      <trkpt lat="43.4913" lon="6.86597">
        <ele>232.78</ele>
        <time>2010-12-12T10:29:24Z</time>
      </trkpt>
      <trkpt lat="43.49136" lon="6.86621">
        <ele>233.74</ele>
        <time>2010-12-12T10:29:40Z</time>
      </trkpt>
      <trkpt lat="43.49146" lon="6.86645">
        <ele>234.7</ele>
        <time>2010-12-12T10:29:59Z</time>
      </trkpt>
      <trkpt lat="43.4915" lon="6.86658">
        <ele>234.7</ele>
        <time>2010-12-12T10:30:17Z</time>
      </trkpt>
      <trkpt lat="43.49152" lon="6.86664">
        <ele>235.18</ele>
        <time>2010-12-12T10:30:38Z</time>
      </trkpt>
      <trkpt lat="43.49154" lon="6.86686">
        <ele>236.62</ele>
        <time>2010-12-12T10:30:56Z</time>
      </trkpt>
      <trkpt lat="43.49151" lon="6.86708">
        <ele>236.62</ele>
        <time>2010-12-12T10:31:16Z</time>
      </trkpt>
      <trkpt lat="43.49151" lon="6.86729">
        <ele>237.1</ele>
        <time>2010-12-12T10:31:32Z</time>
      </trkpt>
      <trkpt lat="43.49146" lon="6.86743">
        <ele>237.58</ele>
        <time>2010-12-12T10:31:49Z</time>
      </trkpt>
      <trkpt lat="43.49144" lon="6.86746">
        <ele>238.06</ele>
        <time>2010-12-12T10:31:52Z</time>
      </trkpt>
      <trkpt lat="43.49142" lon="6.86773">
        <ele>238.54</ele>
        <time>2010-12-12T10:32:09Z</time>
      </trkpt>
      <trkpt lat="43.49143" lon="6.86782">
        <ele>238.54</ele>
        <time>2010-12-12T10:32:14Z</time>
      </trkpt>
      <trkpt lat="43.49153" lon="6.86802">
        <ele>239.02</ele>
        <time>2010-12-12T10:32:33Z</time>
      </trkpt>
      <trkpt lat="43.49156" lon="6.86819">
        <ele>239.51</ele>
        <time>2010-12-12T10:32:44Z</time>
      </trkpt>
      <trkpt lat="43.49154" lon="6.86833">
        <ele>239.51</ele>
        <time>2010-12-12T10:32:53Z</time>
      </trkpt>
      <trkpt lat="43.49159" lon="6.86848">
        <ele>240.47</ele>
        <time>2010-12-12T10:33:04Z</time>
      </trkpt>
      <trkpt lat="43.49159" lon="6.86863">
        <ele>240.47</ele>
        <time>2010-12-12T10:33:13Z</time>
      </trkpt>
      <trkpt lat="43.49157" lon="6.86882">
        <ele>239.02</ele>
        <time>2010-12-12T10:33:24Z</time>
      </trkpt>
      <trkpt lat="43.49166" lon="6.86901">
        <ele>240.95</ele>
        <time>2010-12-12T10:33:42Z</time>
      </trkpt>
      <trkpt lat="43.49168" lon="6.86906">
        <ele>241.43</ele>
        <time>2010-12-12T10:33:47Z</time>
      </trkpt>
      <trkpt lat="43.49171" lon="6.86927">
        <ele>241.91</ele>
        <time>2010-12-12T10:34:04Z</time>
      </trkpt>
      <trkpt lat="43.4918" lon="6.86946">
        <ele>243.35</ele>
        <time>2010-12-12T10:34:18Z</time>
      </trkpt>
      <trkpt lat="43.49183" lon="6.86967">
        <ele>243.83</ele>
        <time>2010-12-12T10:34:35Z</time>
      </trkpt>
      <trkpt lat="43.49186" lon="6.86986">
        <ele>243.35</ele>
        <time>2010-12-12T10:34:51Z</time>
      </trkpt>
      <trkpt lat="43.49187" lon="6.86989">
        <ele>243.35</ele>
        <time>2010-12-12T10:34:53Z</time>
      </trkpt>
      <trkpt lat="43.49189" lon="6.86997">
        <ele>243.83</ele>
        <time>2010-12-12T10:34:58Z</time>
      </trkpt>
      <trkpt lat="43.49196" lon="6.87012">
        <ele>243.83</ele>
        <time>2010-12-12T10:35:09Z</time>
      </trkpt>
      <trkpt lat="43.49215" lon="6.87019">
        <ele>242.39</ele>
        <time>2010-12-12T10:35:27Z</time>
      </trkpt>
      <trkpt lat="43.49225" lon="6.8703">
        <ele>240.95</ele>
        <time>2010-12-12T10:35:42Z</time>
      </trkpt>
      <trkpt lat="43.49228" lon="6.87042">
        <ele>239.51</ele>
        <time>2010-12-12T10:35:50Z</time>
      </trkpt>
      <trkpt lat="43.49234" lon="6.87049">
        <ele>239.99</ele>
        <time>2010-12-12T10:35:56Z</time>
      </trkpt>
      <trkpt lat="43.49255" lon="6.87063">
        <ele>240.95</ele>
        <time>2010-12-12T10:36:14Z</time>
      </trkpt>
      <trkpt lat="43.49272" lon="6.87072">
        <ele>240.95</ele>
        <time>2010-12-12T10:36:29Z</time>
      </trkpt>
      <trkpt lat="43.49283" lon="6.87075">
        <ele>240.95</ele>
        <time>2010-12-12T10:36:46Z</time>
      </trkpt>
      <trkpt lat="43.49283" lon="6.87075">
        <ele>240.47</ele>
        <time>2010-12-12T10:37:05Z</time>
      </trkpt>
      <trkpt lat="43.49283" lon="6.87075">
        <ele>240.47</ele>
        <time>2010-12-12T10:37:29Z</time>
      </trkpt>
      <trkpt lat="43.49283" lon="6.87075">
        <ele>240.47</ele>
        <time>2010-12-12T10:38:00Z</time>
      </trkpt>
      <trkpt lat="43.49283" lon="6.87075">
        <ele>240.47</ele>
        <time>2010-12-12T10:38:23Z</time>
      </trkpt>
      <trkpt lat="43.49283" lon="6.87075">
        <ele>240.47</ele>
        <time>2010-12-12T10:38:56Z</time>
      </trkpt>
      <trkpt lat="43.49291" lon="6.87075">
        <ele>240.47</ele>
        <time>2010-12-12T10:39:14Z</time>
      </trkpt>
      <trkpt lat="43.49292" lon="6.87075">
        <ele>240.95</ele>
        <time>2010-12-12T10:39:15Z</time>
      </trkpt>
      <trkpt lat="43.49294" lon="6.87075">
        <ele>240.95</ele>
        <time>2010-12-12T10:39:17Z</time>
      </trkpt>
      <trkpt lat="43.49311" lon="6.8707">
        <ele>241.43</ele>
        <time>2010-12-12T10:39:33Z</time>
      </trkpt>
      <trkpt lat="43.49325" lon="6.87062">
        <ele>241.91</ele>
        <time>2010-12-12T10:39:47Z</time>
      </trkpt>
      <trkpt lat="43.49339" lon="6.87057">
        <ele>243.35</ele>
        <time>2010-12-12T10:40:02Z</time>
      </trkpt>
      <trkpt lat="43.49349" lon="6.87054">
        <ele>243.83</ele>
        <time>2010-12-12T10:40:15Z</time>
      </trkpt>
      <trkpt lat="43.49352" lon="6.87055">
        <ele>244.79</ele>
        <time>2010-12-12T10:40:19Z</time>
      </trkpt>
      <trkpt lat="43.49362" lon="6.87072">
        <ele>246.72</ele>
        <time>2010-12-12T10:40:36Z</time>
      </trkpt>
      <trkpt lat="43.49368" lon="6.87089">
        <ele>248.16</ele>
        <time>2010-12-12T10:40:52Z</time>
      </trkpt>
      <trkpt lat="43.49375" lon="6.87107">
        <ele>248.16</ele>
        <time>2010-12-12T10:41:06Z</time>
      </trkpt>
      <trkpt lat="43.49376" lon="6.87109">
        <ele>248.64</ele>
        <time>2010-12-12T10:41:25Z</time>
      </trkpt>
      <trkpt lat="43.49384" lon="6.87122">
        <ele>250.56</ele>
        <time>2010-12-12T10:41:41Z</time>
      </trkpt>
      <trkpt lat="43.494" lon="6.87124">
        <ele>252</ele>
        <time>2010-12-12T10:41:53Z</time>
      </trkpt>
      <trkpt lat="43.49418" lon="6.87106">
        <ele>252.96</ele>
        <time>2010-12-12T10:42:09Z</time>
      </trkpt>
      <trkpt lat="43.49429" lon="6.87089">
        <ele>254.41</ele>
        <time>2010-12-12T10:42:24Z</time>
      </trkpt>
      <trkpt lat="43.49439" lon="6.8707">
        <ele>255.37</ele>
        <time>2010-12-12T10:42:39Z</time>
      </trkpt>
      <trkpt lat="43.49446" lon="6.87056">
        <ele>256.81</ele>
        <time>2010-12-12T10:42:50Z</time>
      </trkpt>
      <trkpt lat="43.49452" lon="6.87044">
        <ele>257.29</ele>
        <time>2010-12-12T10:43:00Z</time>
      </trkpt>
      <trkpt lat="43.4946" lon="6.87027">
        <ele>258.25</ele>
        <time>2010-12-12T10:43:13Z</time>
      </trkpt>
      <trkpt lat="43.49472" lon="6.87013">
        <ele>259.69</ele>
        <time>2010-12-12T10:43:27Z</time>
      </trkpt>
      <trkpt lat="43.49485" lon="6.87003">
        <ele>260.65</ele>
        <time>2010-12-12T10:43:40Z</time>
      </trkpt>
      <trkpt lat="43.49499" lon="6.86988">
        <ele>262.1</ele>
        <time>2010-12-12T10:43:56Z</time>
      </trkpt>
      <trkpt lat="43.4951" lon="6.86979">
        <ele>263.06</ele>
        <time>2010-12-12T10:44:10Z</time>
      </trkpt>
      <trkpt lat="43.49523" lon="6.86969">
        <ele>264.02</ele>
        <time>2010-12-12T10:44:24Z</time>
      </trkpt>
      <trkpt lat="43.49535" lon="6.86958">
        <ele>265.46</ele>
        <time>2010-12-12T10:44:37Z</time>
      </trkpt>
      <trkpt lat="43.4954" lon="6.86949">
        <ele>265.46</ele>
        <time>2010-12-12T10:44:50Z</time>
      </trkpt>
      <trkpt lat="43.49546" lon="6.8693">
        <ele>266.42</ele>
        <time>2010-12-12T10:45:04Z</time>
      </trkpt>
      <trkpt lat="43.49551" lon="6.86922">
        <ele>267.38</ele>
        <time>2010-12-12T10:45:14Z</time>
      </trkpt>
      <trkpt lat="43.49558" lon="6.86908">
        <ele>268.35</ele>
        <time>2010-12-12T10:45:28Z</time>
      </trkpt>
      <trkpt lat="43.49563" lon="6.86886">
        <ele>269.31</ele>
        <time>2010-12-12T10:45:44Z</time>
      </trkpt>
      <trkpt lat="43.49569" lon="6.86867">
        <ele>270.27</ele>
        <time>2010-12-12T10:45:58Z</time>
      </trkpt>
      <trkpt lat="43.49573" lon="6.86859">
        <ele>271.23</ele>
        <time>2010-12-12T10:46:07Z</time>
      </trkpt>
      <trkpt lat="43.49575" lon="6.86856">
        <ele>271.23</ele>
        <time>2010-12-12T10:46:09Z</time>
      </trkpt>
      <trkpt lat="43.49584" lon="6.86836">
        <ele>272.19</ele>
        <time>2010-12-12T10:46:25Z</time>
      </trkpt>
      <trkpt lat="43.49593" lon="6.86816">
        <ele>273.15</ele>
        <time>2010-12-12T10:46:42Z</time>
      </trkpt>
      <trkpt lat="43.49602" lon="6.86793">
        <ele>274.59</ele>
        <time>2010-12-12T10:47:00Z</time>
      </trkpt>
      <trkpt lat="43.4961" lon="6.86777">
        <ele>276.04</ele>
        <time>2010-12-12T10:47:15Z</time>
      </trkpt>
      <trkpt lat="43.49616" lon="6.86767">
        <ele>276.52</ele>
        <time>2010-12-12T10:47:25Z</time>
      </trkpt>
      <trkpt lat="43.49617" lon="6.86765">
        <ele>276.52</ele>
        <time>2010-12-12T10:47:27Z</time>
      </trkpt>
      <trkpt lat="43.49629" lon="6.86747">
        <ele>278.44</ele>
        <time>2010-12-12T10:47:44Z</time>
      </trkpt>
      <trkpt lat="43.49633" lon="6.86726">
        <ele>278.92</ele>
        <time>2010-12-12T10:47:58Z</time>
      </trkpt>
      <trkpt lat="43.49638" lon="6.86708">
        <ele>279.88</ele>
        <time>2010-12-12T10:48:12Z</time>
      </trkpt>
      <trkpt lat="43.49646" lon="6.86691">
        <ele>280.84</ele>
        <time>2010-12-12T10:48:26Z</time>
      </trkpt>
      <trkpt lat="43.49652" lon="6.86677">
        <ele>281.8</ele>
        <time>2010-12-12T10:48:38Z</time>
      </trkpt>
      <trkpt lat="43.49657" lon="6.86665">
        <ele>282.28</ele>
        <time>2010-12-12T10:48:48Z</time>
      </trkpt>
      <trkpt lat="43.49665" lon="6.86645">
        <ele>283.73</ele>
        <time>2010-12-12T10:49:02Z</time>
      </trkpt>
      <trkpt lat="43.49674" lon="6.86623">
        <ele>284.21</ele>
        <time>2010-12-12T10:49:18Z</time>
      </trkpt>
      <trkpt lat="43.49681" lon="6.86601">
        <ele>286.13</ele>
        <time>2010-12-12T10:49:35Z</time>
      </trkpt>
      <trkpt lat="43.49687" lon="6.8658">
        <ele>287.57</ele>
        <time>2010-12-12T10:49:51Z</time>
      </trkpt>
      <trkpt lat="43.49694" lon="6.86555">
        <ele>288.53</ele>
        <time>2010-12-12T10:50:09Z</time>
      </trkpt>
      <trkpt lat="43.49704" lon="6.86532">
        <ele>289.49</ele>
        <time>2010-12-12T10:50:27Z</time>
      </trkpt>
      <trkpt lat="43.49712" lon="6.8651">
        <ele>290.46</ele>
        <time>2010-12-12T10:50:43Z</time>
      </trkpt>
      <trkpt lat="43.4972" lon="6.86492">
        <ele>291.9</ele>
        <time>2010-12-12T10:50:58Z</time>
      </trkpt>
      <trkpt lat="43.49722" lon="6.86488">
        <ele>291.9</ele>
        <time>2010-12-12T10:51:01Z</time>
      </trkpt>
      <trkpt lat="43.49726" lon="6.86482">
        <ele>292.38</ele>
        <time>2010-12-12T10:51:07Z</time>
      </trkpt>
      <trkpt lat="43.49731" lon="6.86471">
        <ele>293.34</ele>
        <time>2010-12-12T10:51:16Z</time>
      </trkpt>
      <trkpt lat="43.49739" lon="6.86454">
        <ele>293.82</ele>
        <time>2010-12-12T10:51:31Z</time>
      </trkpt>
      <trkpt lat="43.49747" lon="6.86439">
        <ele>295.74</ele>
        <time>2010-12-12T10:51:46Z</time>
      </trkpt>
      <trkpt lat="43.49749" lon="6.86434">
        <ele>295.74</ele>
        <time>2010-12-12T10:52:00Z</time>
      </trkpt>
      <trkpt lat="43.49761" lon="6.86419">
        <ele>296.22</ele>
        <time>2010-12-12T10:52:16Z</time>
      </trkpt>
      <trkpt lat="43.4977" lon="6.86407">
        <ele>298.15</ele>
        <time>2010-12-12T10:52:31Z</time>
      </trkpt>
      <trkpt lat="43.49772" lon="6.86405">
        <ele>298.15</ele>
        <time>2010-12-12T10:52:48Z</time>
      </trkpt>
      <trkpt lat="43.49772" lon="6.86405">
        <ele>299.11</ele>
        <time>2010-12-12T10:53:00Z</time>
      </trkpt>
      <trkpt lat="43.49791" lon="6.86389">
        <ele>300.07</ele>
        <time>2010-12-12T10:53:15Z</time>
      </trkpt>
      <trkpt lat="43.49793" lon="6.86388">
        <ele>299.59</ele>
        <time>2010-12-12T10:53:17Z</time>
      </trkpt>
      <trkpt lat="43.4981" lon="6.86373">
        <ele>301.03</ele>
        <time>2010-12-12T10:53:34Z</time>
      </trkpt>
      <trkpt lat="43.49826" lon="6.8636">
        <ele>301.99</ele>
        <time>2010-12-12T10:53:52Z</time>
      </trkpt>
      <trkpt lat="43.49841" lon="6.86353">
        <ele>302.95</ele>
        <time>2010-12-12T10:54:07Z</time>
      </trkpt>
      <trkpt lat="43.4985" lon="6.86348">
        <ele>303.43</ele>
        <time>2010-12-12T10:54:15Z</time>
      </trkpt>
      <trkpt lat="43.49868" lon="6.86338">
        <ele>304.88</ele>
        <time>2010-12-12T10:54:33Z</time>
      </trkpt>
      <trkpt lat="43.49878" lon="6.86331">
        <ele>306.32</ele>
        <time>2010-12-12T10:54:44Z</time>
      </trkpt>
      <trkpt lat="43.49891" lon="6.86321">
        <ele>307.28</ele>
        <time>2010-12-12T10:55:00Z</time>
      </trkpt>
      <trkpt lat="43.49895" lon="6.86321">
        <ele>307.76</ele>
        <time>2010-12-12T10:55:04Z</time>
      </trkpt>
      <trkpt lat="43.4991" lon="6.86326">
        <ele>308.24</ele>
        <time>2010-12-12T10:55:21Z</time>
      </trkpt>
      <trkpt lat="43.49911" lon="6.86326">
        <ele>308.24</ele>
        <time>2010-12-12T10:55:23Z</time>
      </trkpt>
      <trkpt lat="43.49915" lon="6.86325">
        <ele>308.24</ele>
        <time>2010-12-12T10:55:27Z</time>
      </trkpt>
      <trkpt lat="43.49929" lon="6.86332">
        <ele>308.72</ele>
        <time>2010-12-12T10:55:42Z</time>
      </trkpt>
      <trkpt lat="43.49931" lon="6.86334">
        <ele>309.68</ele>
        <time>2010-12-12T10:55:45Z</time>
      </trkpt>
      <trkpt lat="43.49933" lon="6.86335">
        <ele>309.68</ele>
        <time>2010-12-12T10:55:47Z</time>
      </trkpt>
      <trkpt lat="43.49945" lon="6.86344">
        <ele>310.64</ele>
        <time>2010-12-12T10:56:01Z</time>
      </trkpt>
      <trkpt lat="43.49954" lon="6.86348">
        <ele>311.6</ele>
        <time>2010-12-12T10:56:11Z</time>
      </trkpt>
      <trkpt lat="43.4997" lon="6.86355">
        <ele>312.09</ele>
        <time>2010-12-12T10:56:26Z</time>
      </trkpt>
      <trkpt lat="43.49986" lon="6.86362">
        <ele>313.53</ele>
        <time>2010-12-12T10:56:43Z</time>
      </trkpt>
      <trkpt lat="43.49999" lon="6.86372">
        <ele>314.49</ele>
        <time>2010-12-12T10:56:58Z</time>
      </trkpt>
      <trkpt lat="43.50004" lon="6.86374">
        <ele>314.97</ele>
        <time>2010-12-12T10:57:13Z</time>
      </trkpt>
      <trkpt lat="43.50005" lon="6.86375">
        <ele>314.97</ele>
        <time>2010-12-12T10:57:30Z</time>
      </trkpt>
      <trkpt lat="43.50005" lon="6.86375">
        <ele>314.49</ele>
        <time>2010-12-12T10:57:58Z</time>
      </trkpt>
      <trkpt lat="43.50008" lon="6.86377">
        <ele>314.97</ele>
        <time>2010-12-12T10:58:10Z</time>
      </trkpt>
      <trkpt lat="43.50011" lon="6.86377">
        <ele>314.97</ele>
        <time>2010-12-12T10:58:13Z</time>
      </trkpt>
      <trkpt lat="43.50028" lon="6.86381">
        <ele>316.41</ele>
        <time>2010-12-12T10:58:27Z</time>
      </trkpt>
      <trkpt lat="43.50045" lon="6.86379">
        <ele>317.85</ele>
        <time>2010-12-12T10:58:43Z</time>
      </trkpt>
      <trkpt lat="43.5006" lon="6.86372">
        <ele>318.33</ele>
        <time>2010-12-12T10:58:59Z</time>
      </trkpt>
      <trkpt lat="43.50068" lon="6.86371">
        <ele>319.3</ele>
        <time>2010-12-12T10:59:07Z</time>
      </trkpt>
      <trkpt lat="43.50085" lon="6.86366">
        <ele>320.26</ele>
        <time>2010-12-12T10:59:24Z</time>
      </trkpt>
      <trkpt lat="43.50092" lon="6.86363">
        <ele>320.74</ele>
        <time>2010-12-12T10:59:33Z</time>
      </trkpt>
      <trkpt lat="43.50095" lon="6.86361">
        <ele>321.7</ele>
        <time>2010-12-12T10:59:36Z</time>
      </trkpt>
      <trkpt lat="43.50107" lon="6.8636">
        <ele>322.18</ele>
        <time>2010-12-12T10:59:50Z</time>
      </trkpt>
      <trkpt lat="43.50122" lon="6.8636">
        <ele>322.66</ele>
        <time>2010-12-12T11:00:05Z</time>
      </trkpt>
      <trkpt lat="43.50128" lon="6.86361">
        <ele>323.62</ele>
        <time>2010-12-12T11:00:12Z</time>
      </trkpt>
      <trkpt lat="43.50138" lon="6.86366">
        <ele>324.58</ele>
        <time>2010-12-12T11:00:25Z</time>
      </trkpt>
      <trkpt lat="43.50149" lon="6.86372">
        <ele>325.54</ele>
        <time>2010-12-12T11:00:40Z</time>
      </trkpt>
      <trkpt lat="43.50158" lon="6.86387">
        <ele>326.5</ele>
        <time>2010-12-12T11:00:56Z</time>
      </trkpt>
      <trkpt lat="43.50168" lon="6.86404">
        <ele>327.95</ele>
        <time>2010-12-12T11:01:14Z</time>
      </trkpt>
      <trkpt lat="43.50175" lon="6.86421">
        <ele>328.91</ele>
        <time>2010-12-12T11:01:31Z</time>
      </trkpt>
      <trkpt lat="43.50181" lon="6.8644">
        <ele>330.35</ele>
        <time>2010-12-12T11:01:49Z</time>
      </trkpt>
      <trkpt lat="43.50182" lon="6.86442">
        <ele>330.83</ele>
        <time>2010-12-12T11:01:51Z</time>
      </trkpt>
      <trkpt lat="43.50191" lon="6.86462">
        <ele>332.75</ele>
        <time>2010-12-12T11:02:08Z</time>
      </trkpt>
      <trkpt lat="43.50195" lon="6.86472">
        <ele>333.23</ele>
        <time>2010-12-12T11:02:15Z</time>
      </trkpt>
      <trkpt lat="43.50195" lon="6.86477">
        <ele>333.71</ele>
        <time>2010-12-12T11:02:18Z</time>
      </trkpt>
      <trkpt lat="43.50202" lon="6.86495">
        <ele>335.16</ele>
        <time>2010-12-12T11:02:35Z</time>
      </trkpt>
      <trkpt lat="43.50214" lon="6.86508">
        <ele>337.08</ele>
        <time>2010-12-12T11:02:52Z</time>
      </trkpt>
      <trkpt lat="43.50225" lon="6.86512">
        <ele>337.56</ele>
        <time>2010-12-12T11:03:05Z</time>
      </trkpt>
      <trkpt lat="43.5024" lon="6.86517">
        <ele>338.52</ele>
        <time>2010-12-12T11:03:19Z</time>
      </trkpt>
      <trkpt lat="43.50243" lon="6.86517">
        <ele>339</ele>
        <time>2010-12-12T11:03:23Z</time>
      </trkpt>
      <trkpt lat="43.50257" lon="6.86515">
        <ele>339.48</ele>
        <time>2010-12-12T11:03:36Z</time>
      </trkpt>
      <trkpt lat="43.50273" lon="6.86506">
        <ele>340.44</ele>
        <time>2010-12-12T11:03:54Z</time>
      </trkpt>
      <trkpt lat="43.50284" lon="6.86497">
        <ele>341.89</ele>
        <time>2010-12-12T11:04:08Z</time>
      </trkpt>
      <trkpt lat="43.50296" lon="6.86486">
        <ele>343.33</ele>
        <time>2010-12-12T11:04:24Z</time>
      </trkpt>
      <trkpt lat="43.50309" lon="6.86473">
        <ele>343.81</ele>
        <time>2010-12-12T11:04:42Z</time>
      </trkpt>
      <trkpt lat="43.5032" lon="6.86467">
        <ele>345.25</ele>
        <time>2010-12-12T11:04:57Z</time>
      </trkpt>
      <trkpt lat="43.50333" lon="6.86461">
        <ele>346.69</ele>
        <time>2010-12-12T11:05:13Z</time>
      </trkpt>
      <trkpt lat="43.50345" lon="6.86459">
        <ele>348.62</ele>
        <time>2010-12-12T11:05:28Z</time>
      </trkpt>
      <trkpt lat="43.50358" lon="6.86457">
        <ele>349.58</ele>
        <time>2010-12-12T11:05:44Z</time>
      </trkpt>
      <trkpt lat="43.50374" lon="6.86453">
        <ele>351.02</ele>
        <time>2010-12-12T11:06:00Z</time>
      </trkpt>
      <trkpt lat="43.50388" lon="6.86447">
        <ele>352.46</ele>
        <time>2010-12-12T11:06:15Z</time>
      </trkpt>
      <trkpt lat="43.50402" lon="6.86439">
        <ele>353.42</ele>
        <time>2010-12-12T11:06:31Z</time>
      </trkpt>
      <trkpt lat="43.50414" lon="6.86431">
        <ele>354.86</ele>
        <time>2010-12-12T11:06:46Z</time>
      </trkpt>
      <trkpt lat="43.50428" lon="6.8642">
        <ele>356.79</ele>
        <time>2010-12-12T11:07:02Z</time>
      </trkpt>
      <trkpt lat="43.5044" lon="6.86412">
        <ele>358.23</ele>
        <time>2010-12-12T11:07:19Z</time>
      </trkpt>
      <trkpt lat="43.50449" lon="6.86407">
        <ele>359.19</ele>
        <time>2010-12-12T11:07:34Z</time>
      </trkpt>
      <trkpt lat="43.50457" lon="6.86394">
        <ele>359.19</ele>
        <time>2010-12-12T11:07:46Z</time>
      </trkpt>
      <trkpt lat="43.50465" lon="6.86379">
        <ele>361.11</ele>
        <time>2010-12-12T11:07:59Z</time>
      </trkpt>
      <trkpt lat="43.50465" lon="6.86379">
        <ele>357.75</ele>
        <time>2010-12-12T11:08:01Z</time>
      </trkpt>
      <trkpt lat="43.50465" lon="6.86379">
        <ele>362.07</ele>
        <time>2010-12-12T11:08:02Z</time>
      </trkpt>
      <trkpt lat="43.50465" lon="6.86381">
        <ele>361.11</ele>
        <time>2010-12-12T11:08:06Z</time>
      </trkpt>
      <trkpt lat="43.50465" lon="6.86388">
        <ele>359.19</ele>
        <time>2010-12-12T11:08:10Z</time>
      </trkpt>
      <trkpt lat="43.50464" lon="6.8639">
        <ele>361.11</ele>
        <time>2010-12-12T11:08:12Z</time>
      </trkpt>
      <trkpt lat="43.50462" lon="6.86391">
        <ele>357.27</ele>
        <time>2010-12-12T11:08:14Z</time>
      </trkpt>
      <trkpt lat="43.50461" lon="6.86392">
        <ele>359.67</ele>
        <time>2010-12-12T11:08:15Z</time>
      </trkpt>
      <trkpt lat="43.50457" lon="6.86401">
        <ele>359.67</ele>
        <time>2010-12-12T11:08:29Z</time>
      </trkpt>
      <trkpt lat="43.50456" lon="6.86401">
        <ele>359.19</ele>
        <time>2010-12-12T11:08:51Z</time>
      </trkpt>
      <trkpt lat="43.50456" lon="6.86401">
        <ele>360.15</ele>
        <time>2010-12-12T11:08:55Z</time>
      </trkpt>
      <trkpt lat="43.50455" lon="6.86402">
        <ele>359.67</ele>
        <time>2010-12-12T11:09:21Z</time>
      </trkpt>
      <trkpt lat="43.50455" lon="6.86402">
        <ele>359.67</ele>
        <time>2010-12-12T11:09:43Z</time>
      </trkpt>
      <trkpt lat="43.50455" lon="6.86402">
        <ele>360.63</ele>
        <time>2010-12-12T11:10:07Z</time>
      </trkpt>
      <trkpt lat="43.50455" lon="6.86403">
        <ele>360.63</ele>
        <time>2010-12-12T11:10:32Z</time>
      </trkpt>
      <trkpt lat="43.50454" lon="6.86402">
        <ele>360.63</ele>
        <time>2010-12-12T11:10:58Z</time>
      </trkpt>
      <trkpt lat="43.50454" lon="6.86402">
        <ele>360.15</ele>
        <time>2010-12-12T11:11:25Z</time>
      </trkpt>
      <trkpt lat="43.50455" lon="6.86403">
        <ele>360.63</ele>
        <time>2010-12-12T11:11:52Z</time>
      </trkpt>
      <trkpt lat="43.50455" lon="6.86402">
        <ele>360.63</ele>
        <time>2010-12-12T11:12:23Z</time>
      </trkpt>
      <trkpt lat="43.50455" lon="6.86402">
        <ele>360.63</ele>
        <time>2010-12-12T11:12:58Z</time>
      </trkpt>
      <trkpt lat="43.50458" lon="6.86406">
        <ele>361.11</ele>
        <time>2010-12-12T11:13:15Z</time>
      </trkpt>
      <trkpt lat="43.50469" lon="6.86416">
        <ele>361.59</ele>
        <time>2010-12-12T11:13:32Z</time>
      </trkpt>
      <trkpt lat="43.50484" lon="6.86423">
        <ele>360.63</ele>
        <time>2010-12-12T11:13:48Z</time>
      </trkpt>
      <trkpt lat="43.50489" lon="6.86427">
        <ele>360.63</ele>
        <time>2010-12-12T11:13:54Z</time>
      </trkpt>
      <trkpt lat="43.50501" lon="6.86441">
        <ele>361.59</ele>
        <time>2010-12-12T11:14:10Z</time>
      </trkpt>
      <trkpt lat="43.50515" lon="6.86463">
        <ele>362.07</ele>
        <time>2010-12-12T11:14:34Z</time>
      </trkpt>
      <trkpt lat="43.50518" lon="6.86466">
        <ele>362.55</ele>
        <time>2010-12-12T11:14:41Z</time>
      </trkpt>
      <trkpt lat="43.50523" lon="6.86469">
        <ele>363.04</ele>
        <time>2010-12-12T11:14:46Z</time>
      </trkpt>
      <trkpt lat="43.50543" lon="6.86477">
        <ele>362.55</ele>
        <time>2010-12-12T11:15:03Z</time>
      </trkpt>
      <trkpt lat="43.50563" lon="6.86484">
        <ele>362.55</ele>
        <time>2010-12-12T11:15:20Z</time>
      </trkpt>
      <trkpt lat="43.50579" lon="6.86491">
        <ele>361.59</ele>
        <time>2010-12-12T11:15:36Z</time>
      </trkpt>
      <trkpt lat="43.50584" lon="6.86501">
        <ele>360.15</ele>
        <time>2010-12-12T11:15:50Z</time>
      </trkpt>
      <trkpt lat="43.50581" lon="6.86505">
        <ele>359.67</ele>
        <time>2010-12-12T11:15:54Z</time>
      </trkpt>
      <trkpt lat="43.50571" lon="6.86524">
        <ele>359.19</ele>
        <time>2010-12-12T11:16:11Z</time>
      </trkpt>
      <trkpt lat="43.50562" lon="6.86543">
        <ele>357.75</ele>
        <time>2010-12-12T11:16:29Z</time>
      </trkpt>
      <trkpt lat="43.50556" lon="6.86561">
        <ele>356.79</ele>
        <time>2010-12-12T11:16:43Z</time>
      </trkpt>
      <trkpt lat="43.5056" lon="6.86586">
        <ele>356.31</ele>
        <time>2010-12-12T11:17:02Z</time>
      </trkpt>
      <trkpt lat="43.50564" lon="6.86607">
        <ele>355.34</ele>
        <time>2010-12-12T11:17:19Z</time>
      </trkpt>
      <trkpt lat="43.5057" lon="6.86632">
        <ele>352.46</ele>
        <time>2010-12-12T11:17:37Z</time>
      </trkpt>
      <trkpt lat="43.50582" lon="6.86648">
        <ele>351.02</ele>
        <time>2010-12-12T11:17:54Z</time>
      </trkpt>
      <trkpt lat="43.50582" lon="6.86649">
        <ele>350.54</ele>
        <time>2010-12-12T11:18:14Z</time>
      </trkpt>
      <trkpt lat="43.50582" lon="6.86649">
        <ele>350.06</ele>
        <time>2010-12-12T11:18:43Z</time>
      </trkpt>
      <trkpt lat="43.50582" lon="6.86649">
        <ele>350.54</ele>
        <time>2010-12-12T11:19:10Z</time>
      </trkpt>
      <trkpt lat="43.50582" lon="6.86648">
        <ele>351.02</ele>
        <time>2010-12-12T11:19:44Z</time>
      </trkpt>
      <trkpt lat="43.50592" lon="6.86644">
        <ele>349.1</ele>
        <time>2010-12-12T11:20:00Z</time>
      </trkpt>
      <trkpt lat="43.50603" lon="6.86639">
        <ele>348.13</ele>
        <time>2010-12-12T11:20:11Z</time>
      </trkpt>
      <trkpt lat="43.50621" lon="6.86642">
        <ele>348.13</ele>
        <time>2010-12-12T11:20:27Z</time>
      </trkpt>
      <trkpt lat="43.50641" lon="6.86648">
        <ele>348.13</ele>
        <time>2010-12-12T11:20:45Z</time>
      </trkpt>
      <trkpt lat="43.50654" lon="6.86664">
        <ele>347.65</ele>
        <time>2010-12-12T11:21:03Z</time>
      </trkpt>
      <trkpt lat="43.50667" lon="6.86681">
        <ele>348.13</ele>
        <time>2010-12-12T11:21:20Z</time>
      </trkpt>
      <trkpt lat="43.50684" lon="6.86701">
        <ele>346.69</ele>
        <time>2010-12-12T11:21:39Z</time>
      </trkpt>
      <trkpt lat="43.50696" lon="6.86724">
        <ele>345.73</ele>
        <time>2010-12-12T11:21:59Z</time>
      </trkpt>
      <trkpt lat="43.50707" lon="6.86746">
        <ele>345.25</ele>
        <time>2010-12-12T11:22:18Z</time>
      </trkpt>
      <trkpt lat="43.50708" lon="6.86746">
        <ele>345.25</ele>
        <time>2010-12-12T11:22:45Z</time>
      </trkpt>
      <trkpt lat="43.50712" lon="6.86755">
        <ele>344.77</ele>
        <time>2010-12-12T11:23:15Z</time>
      </trkpt>
      <trkpt lat="43.50714" lon="6.86759">
        <ele>345.25</ele>
        <time>2010-12-12T11:23:17Z</time>
      </trkpt>
      <trkpt lat="43.50724" lon="6.86781">
        <ele>344.77</ele>
        <time>2010-12-12T11:23:36Z</time>
      </trkpt>
      <trkpt lat="43.50737" lon="6.86793">
        <ele>346.21</ele>
        <time>2010-12-12T11:23:53Z</time>
      </trkpt>
      <trkpt lat="43.50739" lon="6.86795">
        <ele>346.69</ele>
        <time>2010-12-12T11:23:58Z</time>
      </trkpt>
      <trkpt lat="43.50748" lon="6.86799">
        <ele>347.17</ele>
        <time>2010-12-12T11:24:08Z</time>
      </trkpt>
      <trkpt lat="43.50771" lon="6.86805">
        <ele>348.62</ele>
        <time>2010-12-12T11:24:33Z</time>
      </trkpt>
      <trkpt lat="43.50783" lon="6.86804">
        <ele>350.06</ele>
        <time>2010-12-12T11:24:49Z</time>
      </trkpt>
      <trkpt lat="43.50801" lon="6.86802">
        <ele>350.54</ele>
        <time>2010-12-12T11:25:07Z</time>
      </trkpt>
      <trkpt lat="43.50806" lon="6.86799">
        <ele>351.02</ele>
        <time>2010-12-12T11:25:15Z</time>
      </trkpt>
      <trkpt lat="43.5081" lon="6.86799">
        <ele>351.5</ele>
        <time>2010-12-12T11:25:20Z</time>
      </trkpt>
      <trkpt lat="43.50813" lon="6.86799">
        <ele>351.5</ele>
        <time>2010-12-12T11:25:24Z</time>
      </trkpt>
      <trkpt lat="43.50829" lon="6.86801">
        <ele>352.46</ele>
        <time>2010-12-12T11:25:46Z</time>
      </trkpt>
      <trkpt lat="43.50847" lon="6.86808">
        <ele>351.98</ele>
        <time>2010-12-12T11:26:05Z</time>
      </trkpt>
      <trkpt lat="43.50858" lon="6.86812">
        <ele>352.94</ele>
        <time>2010-12-12T11:26:22Z</time>
      </trkpt>
      <trkpt lat="43.50872" lon="6.8681">
        <ele>353.42</ele>
        <time>2010-12-12T11:26:38Z</time>
      </trkpt>
      <trkpt lat="43.50889" lon="6.86809">
        <ele>352.94</ele>
        <time>2010-12-12T11:26:55Z</time>
      </trkpt>
      <trkpt lat="43.50907" lon="6.86806">
        <ele>352.94</ele>
        <time>2010-12-12T11:27:14Z</time>
      </trkpt>
      <trkpt lat="43.50926" lon="6.86804">
        <ele>352.46</ele>
        <time>2010-12-12T11:27:34Z</time>
      </trkpt>
      <trkpt lat="43.50947" lon="6.86807">
        <ele>352.46</ele>
        <time>2010-12-12T11:27:53Z</time>
      </trkpt>
      <trkpt lat="43.50958" lon="6.86813">
        <ele>352.46</ele>
        <time>2010-12-12T11:28:10Z</time>
      </trkpt>
      <trkpt lat="43.50963" lon="6.86814">
        <ele>352.46</ele>
        <time>2010-12-12T11:28:28Z</time>
      </trkpt>
      <trkpt lat="43.50963" lon="6.86814">
        <ele>351.98</ele>
        <time>2010-12-12T11:28:59Z</time>
      </trkpt>
      <trkpt lat="43.50963" lon="6.86814">
        <ele>351.5</ele>
        <time>2010-12-12T11:29:28Z</time>
      </trkpt>
      <trkpt lat="43.50964" lon="6.86814">
        <ele>351.98</ele>
        <time>2010-12-12T11:29:53Z</time>
      </trkpt>
      <trkpt lat="43.50967" lon="6.86814">
        <ele>351.5</ele>
        <time>2010-12-12T11:29:57Z</time>
      </trkpt>
      <trkpt lat="43.50975" lon="6.86813">
        <ele>351.02</ele>
        <time>2010-12-12T11:30:05Z</time>
      </trkpt>
      <trkpt lat="43.50994" lon="6.86814">
        <ele>350.06</ele>
        <time>2010-12-12T11:30:23Z</time>
      </trkpt>
      <trkpt lat="43.51011" lon="6.86817">
        <ele>348.13</ele>
        <time>2010-12-12T11:30:41Z</time>
      </trkpt>
      <trkpt lat="43.51017" lon="6.8682">
        <ele>347.17</ele>
        <time>2010-12-12T11:30:48Z</time>
      </trkpt>
      <trkpt lat="43.51032" lon="6.8683">
        <ele>344.77</ele>
        <time>2010-12-12T11:31:04Z</time>
      </trkpt>
      <trkpt lat="43.51048" lon="6.86831">
        <ele>341.89</ele>
        <time>2010-12-12T11:31:25Z</time>
      </trkpt>
      <trkpt lat="43.51059" lon="6.8683">
        <ele>340.44</ele>
        <time>2010-12-12T11:31:41Z</time>
      </trkpt>
      <trkpt lat="43.51073" lon="6.8683">
        <ele>339</ele>
        <time>2010-12-12T11:31:58Z</time>
      </trkpt>
      <trkpt lat="43.51085" lon="6.86831">
        <ele>337.56</ele>
        <time>2010-12-12T11:32:15Z</time>
      </trkpt>
      <trkpt lat="43.51084" lon="6.86831">
        <ele>337.08</ele>
        <time>2010-12-12T11:32:47Z</time>
      </trkpt>
      <trkpt lat="43.51077" lon="6.86828">
        <ele>338.52</ele>
        <time>2010-12-12T11:33:05Z</time>
      </trkpt>
      <trkpt lat="43.51066" lon="6.86829">
        <ele>338.52</ele>
        <time>2010-12-12T11:33:22Z</time>
      </trkpt>
      <trkpt lat="43.51056" lon="6.86831">
        <ele>340.92</ele>
        <time>2010-12-12T11:33:36Z</time>
      </trkpt>
      <trkpt lat="43.51044" lon="6.86831">
        <ele>342.85</ele>
        <time>2010-12-12T11:33:53Z</time>
      </trkpt>
      <trkpt lat="43.51033" lon="6.8683">
        <ele>345.25</ele>
        <time>2010-12-12T11:34:12Z</time>
      </trkpt>
      <trkpt lat="43.5103" lon="6.86828">
        <ele>345.73</ele>
        <time>2010-12-12T11:34:18Z</time>
      </trkpt>
      <trkpt lat="43.51015" lon="6.86816">
        <ele>347.65</ele>
        <time>2010-12-12T11:34:33Z</time>
      </trkpt>
      <trkpt lat="43.51011" lon="6.86813">
        <ele>347.65</ele>
        <time>2010-12-12T11:34:37Z</time>
      </trkpt>
      <trkpt lat="43.51" lon="6.86812">
        <ele>342.37</ele>
        <time>2010-12-12T11:34:50Z</time>
      </trkpt>
      <trkpt lat="43.50999" lon="6.86812">
        <ele>349.1</ele>
        <time>2010-12-12T11:34:51Z</time>
      </trkpt>
      <trkpt lat="43.50995" lon="6.86811">
        <ele>350.54</ele>
        <time>2010-12-12T11:34:56Z</time>
      </trkpt>
      <trkpt lat="43.50983" lon="6.86811">
        <ele>351.5</ele>
        <time>2010-12-12T11:35:09Z</time>
      </trkpt>
      <trkpt lat="43.50962" lon="6.86811">
        <ele>351.98</ele>
        <time>2010-12-12T11:35:28Z</time>
      </trkpt>
      <trkpt lat="43.50942" lon="6.86805">
        <ele>351.98</ele>
        <time>2010-12-12T11:35:45Z</time>
      </trkpt>
      <trkpt lat="43.50922" lon="6.86805">
        <ele>351.98</ele>
        <time>2010-12-12T11:36:04Z</time>
      </trkpt>
      <trkpt lat="43.50901" lon="6.86805">
        <ele>352.94</ele>
        <time>2010-12-12T11:36:23Z</time>
      </trkpt>
      <trkpt lat="43.50885" lon="6.86808">
        <ele>352.46</ele>
        <time>2010-12-12T11:36:40Z</time>
      </trkpt>
      <trkpt lat="43.50878" lon="6.86809">
        <ele>352.46</ele>
        <time>2010-12-12T11:36:46Z</time>
      </trkpt>
      <trkpt lat="43.50859" lon="6.86806">
        <ele>352.46</ele>
        <time>2010-12-12T11:37:03Z</time>
      </trkpt>
      <trkpt lat="43.50847" lon="6.86805">
        <ele>352.46</ele>
        <time>2010-12-12T11:37:18Z</time>
      </trkpt>
      <trkpt lat="43.50831" lon="6.86802">
        <ele>351.98</ele>
        <time>2010-12-12T11:37:33Z</time>
      </trkpt>
      <trkpt lat="43.50812" lon="6.86799">
        <ele>351.02</ele>
        <time>2010-12-12T11:37:49Z</time>
      </trkpt>
      <trkpt lat="43.50793" lon="6.86807">
        <ele>350.54</ele>
        <time>2010-12-12T11:38:08Z</time>
      </trkpt>
      <trkpt lat="43.50771" lon="6.86805">
        <ele>349.1</ele>
        <time>2010-12-12T11:38:26Z</time>
      </trkpt>
      <trkpt lat="43.50754" lon="6.86798">
        <ele>347.65</ele>
        <time>2010-12-12T11:38:44Z</time>
      </trkpt>
      <trkpt lat="43.50744" lon="6.8679">
        <ele>346.21</ele>
        <time>2010-12-12T11:38:57Z</time>
      </trkpt>
      <trkpt lat="43.50728" lon="6.86775">
        <ele>345.25</ele>
        <time>2010-12-12T11:39:12Z</time>
      </trkpt>
      <trkpt lat="43.50715" lon="6.86765">
        <ele>345.73</ele>
        <time>2010-12-12T11:39:26Z</time>
      </trkpt>
      <trkpt lat="43.50706" lon="6.86737">
        <ele>345.73</ele>
        <time>2010-12-12T11:39:47Z</time>
      </trkpt>
      <trkpt lat="43.50696" lon="6.86715">
        <ele>346.69</ele>
        <time>2010-12-12T11:40:04Z</time>
      </trkpt>
      <trkpt lat="43.50683" lon="6.86694">
        <ele>347.65</ele>
        <time>2010-12-12T11:40:23Z</time>
      </trkpt>
      <trkpt lat="43.50665" lon="6.8667">
        <ele>348.62</ele>
        <time>2010-12-12T11:40:44Z</time>
      </trkpt>
      <trkpt lat="43.50657" lon="6.86662">
        <ele>348.62</ele>
        <time>2010-12-12T11:40:52Z</time>
      </trkpt>
      <trkpt lat="43.50639" lon="6.86643">
        <ele>348.62</ele>
        <time>2010-12-12T11:41:12Z</time>
      </trkpt>
      <trkpt lat="43.50636" lon="6.86641">
        <ele>348.62</ele>
        <time>2010-12-12T11:41:14Z</time>
      </trkpt>
      <trkpt lat="43.50613" lon="6.86635">
        <ele>348.62</ele>
        <time>2010-12-12T11:41:32Z</time>
      </trkpt>
      <trkpt lat="43.50606" lon="6.86632">
        <ele>349.1</ele>
        <time>2010-12-12T11:41:38Z</time>
      </trkpt>
      <trkpt lat="43.50595" lon="6.86636">
        <ele>350.06</ele>
        <time>2010-12-12T11:41:49Z</time>
      </trkpt>
      <trkpt lat="43.50578" lon="6.86642">
        <ele>351.98</ele>
        <time>2010-12-12T11:42:07Z</time>
      </trkpt>
      <trkpt lat="43.50572" lon="6.86631">
        <ele>354.38</ele>
        <time>2010-12-12T11:42:26Z</time>
      </trkpt>
      <trkpt lat="43.50571" lon="6.86628">
        <ele>353.9</ele>
        <time>2010-12-12T11:42:29Z</time>
      </trkpt>
      <trkpt lat="43.50564" lon="6.86607">
        <ele>355.83</ele>
        <time>2010-12-12T11:42:46Z</time>
      </trkpt>
      <trkpt lat="43.50562" lon="6.86585">
        <ele>357.27</ele>
        <time>2010-12-12T11:43:05Z</time>
      </trkpt>
      <trkpt lat="43.50559" lon="6.8656">
        <ele>358.23</ele>
        <time>2010-12-12T11:43:24Z</time>
      </trkpt>
      <trkpt lat="43.50565" lon="6.86548">
        <ele>359.19</ele>
        <time>2010-12-12T11:43:35Z</time>
      </trkpt>
      <trkpt lat="43.50567" lon="6.86541">
        <ele>360.15</ele>
        <time>2010-12-12T11:43:43Z</time>
      </trkpt>
      <trkpt lat="43.50572" lon="6.86529">
        <ele>360.63</ele>
        <time>2010-12-12T11:43:56Z</time>
      </trkpt>
      <trkpt lat="43.50583" lon="6.86509">
        <ele>361.11</ele>
        <time>2010-12-12T11:44:13Z</time>
      </trkpt>
      <trkpt lat="43.50585" lon="6.86504">
        <ele>361.11</ele>
        <time>2010-12-12T11:44:17Z</time>
      </trkpt>
      <trkpt lat="43.5058" lon="6.86487">
        <ele>363.04</ele>
        <time>2010-12-12T11:44:34Z</time>
      </trkpt>
      <trkpt lat="43.50575" lon="6.86485">
        <ele>363.52</ele>
        <time>2010-12-12T11:44:38Z</time>
      </trkpt>
      <trkpt lat="43.50559" lon="6.86478">
        <ele>364</ele>
        <time>2010-12-12T11:44:56Z</time>
      </trkpt>
      <trkpt lat="43.50541" lon="6.86471">
        <ele>364.96</ele>
        <time>2010-12-12T11:45:14Z</time>
      </trkpt>
      <trkpt lat="43.50527" lon="6.86465">
        <ele>363.04</ele>
        <time>2010-12-12T11:45:34Z</time>
      </trkpt>
      <trkpt lat="43.50523" lon="6.86463">
        <ele>363.04</ele>
        <time>2010-12-12T11:45:38Z</time>
      </trkpt>
      <trkpt lat="43.5052" lon="6.86461">
        <ele>363.04</ele>
        <time>2010-12-12T11:45:41Z</time>
      </trkpt>
      <trkpt lat="43.50502" lon="6.86438">
        <ele>362.55</ele>
        <time>2010-12-12T11:46:02Z</time>
      </trkpt>
      <trkpt lat="43.50487" lon="6.86422">
        <ele>361.59</ele>
        <time>2010-12-12T11:46:19Z</time>
      </trkpt>
      <trkpt lat="43.5047" lon="6.86411">
        <ele>362.07</ele>
        <time>2010-12-12T11:46:35Z</time>
      </trkpt>
      <trkpt lat="43.50465" lon="6.86407">
        <ele>362.07</ele>
        <time>2010-12-12T11:46:41Z</time>
      </trkpt>
      <trkpt lat="43.50461" lon="6.86408">
        <ele>362.07</ele>
        <time>2010-12-12T11:46:57Z</time>
      </trkpt>
      <trkpt lat="43.5046" lon="6.86408">
        <ele>363.52</ele>
        <time>2010-12-12T11:47:10Z</time>
      </trkpt>
      <trkpt lat="43.50459" lon="6.86418">
        <ele>363.04</ele>
        <time>2010-12-12T11:47:27Z</time>
      </trkpt>
      <trkpt lat="43.50449" lon="6.86425">
        <ele>364.48</ele>
        <time>2010-12-12T11:47:43Z</time>
      </trkpt>
      <trkpt lat="43.50443" lon="6.86435">
        <ele>366.4</ele>
        <time>2010-12-12T11:47:59Z</time>
      </trkpt>
      <trkpt lat="43.50433" lon="6.86445">
        <ele>367.36</ele>
        <time>2010-12-12T11:48:14Z</time>
      </trkpt>
      <trkpt lat="43.50427" lon="6.86464">
        <ele>369.76</ele>
        <time>2010-12-12T11:48:32Z</time>
      </trkpt>
      <trkpt lat="43.50423" lon="6.86471">
        <ele>370.24</ele>
        <time>2010-12-12T11:48:42Z</time>
      </trkpt>
      <trkpt lat="43.50411" lon="6.86481">
        <ele>373.13</ele>
        <time>2010-12-12T11:49:03Z</time>
      </trkpt>
      <trkpt lat="43.50403" lon="6.86488">
        <ele>374.09</ele>
        <time>2010-12-12T11:49:19Z</time>
      </trkpt>
      <trkpt lat="43.50395" lon="6.86499">
        <ele>375.05</ele>
        <time>2010-12-12T11:49:34Z</time>
      </trkpt>
      <trkpt lat="43.50406" lon="6.86499">
        <ele>377.45</ele>
        <time>2010-12-12T11:49:49Z</time>
      </trkpt>
      <trkpt lat="43.50418" lon="6.86501">
        <ele>378.9</ele>
        <time>2010-12-12T11:50:05Z</time>
      </trkpt>
      <trkpt lat="43.5043" lon="6.86503">
        <ele>381.3</ele>
        <time>2010-12-12T11:50:22Z</time>
      </trkpt>
      <trkpt lat="43.50441" lon="6.86505">
        <ele>382.74</ele>
        <time>2010-12-12T11:50:40Z</time>
      </trkpt>
      <trkpt lat="43.50453" lon="6.8651">
        <ele>384.66</ele>
        <time>2010-12-12T11:51:00Z</time>
      </trkpt>
      <trkpt lat="43.50464" lon="6.86518">
        <ele>386.59</ele>
        <time>2010-12-12T11:51:17Z</time>
      </trkpt>
      <trkpt lat="43.50469" lon="6.86532">
        <ele>387.55</ele>
        <time>2010-12-12T11:51:33Z</time>
      </trkpt>
      <trkpt lat="43.50475" lon="6.86545">
        <ele>389.47</ele>
        <time>2010-12-12T11:51:51Z</time>
      </trkpt>
      <trkpt lat="43.50475" lon="6.86546">
        <ele>389.47</ele>
        <time>2010-12-12T11:51:57Z</time>
      </trkpt>
      <trkpt lat="43.50477" lon="6.86559">
        <ele>391.87</ele>
        <time>2010-12-12T11:52:13Z</time>
      </trkpt>
      <trkpt lat="43.50476" lon="6.86568">
        <ele>391.87</ele>
        <time>2010-12-12T11:52:24Z</time>
      </trkpt>
      <trkpt lat="43.50477" lon="6.86571">
        <ele>395.72</ele>
        <time>2010-12-12T11:52:26Z</time>
      </trkpt>
      <trkpt lat="43.50478" lon="6.86572">
        <ele>392.36</ele>
        <time>2010-12-12T11:52:27Z</time>
      </trkpt>
      <trkpt lat="43.50478" lon="6.86575">
        <ele>387.55</ele>
        <time>2010-12-12T11:52:29Z</time>
      </trkpt>
      <trkpt lat="43.50478" lon="6.86576">
        <ele>394.28</ele>
        <time>2010-12-12T11:52:30Z</time>
      </trkpt>
      <trkpt lat="43.50477" lon="6.86577">
        <ele>392.84</ele>
        <time>2010-12-12T11:52:31Z</time>
      </trkpt>
      <trkpt lat="43.50481" lon="6.86597">
        <ele>394.28</ele>
        <time>2010-12-12T11:52:50Z</time>
      </trkpt>
      <trkpt lat="43.50484" lon="6.86613">
        <ele>395.72</ele>
        <time>2010-12-12T11:53:04Z</time>
      </trkpt>
      <trkpt lat="43.50493" lon="6.8663">
        <ele>396.68</ele>
        <time>2010-12-12T11:53:21Z</time>
      </trkpt>
      <trkpt lat="43.50496" lon="6.86638">
        <ele>396.68</ele>
        <time>2010-12-12T11:53:33Z</time>
      </trkpt>
      <trkpt lat="43.505" lon="6.86651">
        <ele>396.68</ele>
        <time>2010-12-12T11:53:45Z</time>
      </trkpt>
      <trkpt lat="43.50502" lon="6.86668">
        <ele>397.64</ele>
        <time>2010-12-12T11:53:58Z</time>
      </trkpt>
      <trkpt lat="43.50502" lon="6.86675">
        <ele>398.12</ele>
        <time>2010-12-12T11:54:04Z</time>
      </trkpt>
      <trkpt lat="43.50506" lon="6.86695">
        <ele>399.57</ele>
        <time>2010-12-12T11:54:24Z</time>
      </trkpt>
      <trkpt lat="43.50504" lon="6.86705">
        <ele>401.97</ele>
        <time>2010-12-12T11:54:38Z</time>
      </trkpt>
      <trkpt lat="43.50502" lon="6.86729">
        <ele>400.53</ele>
        <time>2010-12-12T11:54:57Z</time>
      </trkpt>
      <trkpt lat="43.50502" lon="6.86738">
        <ele>401.01</ele>
        <time>2010-12-12T11:55:10Z</time>
      </trkpt>
      <trkpt lat="43.50504" lon="6.86753">
        <ele>401.97</ele>
        <time>2010-12-12T11:55:19Z</time>
      </trkpt>
      <trkpt lat="43.50508" lon="6.86758">
        <ele>402.45</ele>
        <time>2010-12-12T11:55:23Z</time>
      </trkpt>
      <trkpt lat="43.50516" lon="6.86771">
        <ele>403.89</ele>
        <time>2010-12-12T11:55:38Z</time>
      </trkpt>
      <trkpt lat="43.50515" lon="6.86775">
        <ele>403.89</ele>
        <time>2010-12-12T11:55:41Z</time>
      </trkpt>
      <trkpt lat="43.50519" lon="6.86788">
        <ele>405.33</ele>
        <time>2010-12-12T11:55:52Z</time>
      </trkpt>
      <trkpt lat="43.50527" lon="6.86806">
        <ele>407.74</ele>
        <time>2010-12-12T11:56:14Z</time>
      </trkpt>
      <trkpt lat="43.50534" lon="6.86816">
        <ele>409.18</ele>
        <time>2010-12-12T11:56:32Z</time>
      </trkpt>
      <trkpt lat="43.50539" lon="6.8682">
        <ele>409.66</ele>
        <time>2010-12-12T11:56:38Z</time>
      </trkpt>
      <trkpt lat="43.50542" lon="6.86825">
        <ele>410.14</ele>
        <time>2010-12-12T11:56:43Z</time>
      </trkpt>
      <trkpt lat="43.50549" lon="6.86839">
        <ele>412.54</ele>
        <time>2010-12-12T11:57:06Z</time>
      </trkpt>
      <trkpt lat="43.50551" lon="6.8684">
        <ele>413.02</ele>
        <time>2010-12-12T11:57:09Z</time>
      </trkpt>
      <trkpt lat="43.50555" lon="6.86844">
        <ele>413.5</ele>
        <time>2010-12-12T11:57:15Z</time>
      </trkpt>
      <trkpt lat="43.50565" lon="6.86852">
        <ele>414.95</ele>
        <time>2010-12-12T11:57:33Z</time>
      </trkpt>
      <trkpt lat="43.50579" lon="6.86869">
        <ele>418.79</ele>
        <time>2010-12-12T11:57:54Z</time>
      </trkpt>
      <trkpt lat="43.50583" lon="6.86881">
        <ele>419.27</ele>
        <time>2010-12-12T11:58:10Z</time>
      </trkpt>
      <trkpt lat="43.50586" lon="6.86892">
        <ele>421.68</ele>
        <time>2010-12-12T11:58:26Z</time>
      </trkpt>
      <trkpt lat="43.50588" lon="6.86907">
        <ele>423.12</ele>
        <time>2010-12-12T11:58:43Z</time>
      </trkpt>
      <trkpt lat="43.50592" lon="6.86912">
        <ele>423.6</ele>
        <time>2010-12-12T11:58:51Z</time>
      </trkpt>
      <trkpt lat="43.50597" lon="6.86928">
        <ele>426</ele>
        <time>2010-12-12T11:59:13Z</time>
      </trkpt>
      <trkpt lat="43.50597" lon="6.86931">
        <ele>426.48</ele>
        <time>2010-12-12T11:59:16Z</time>
      </trkpt>
      <trkpt lat="43.50592" lon="6.86937">
        <ele>427.44</ele>
        <time>2010-12-12T11:59:21Z</time>
      </trkpt>
      <trkpt lat="43.50593" lon="6.8695">
        <ele>429.37</ele>
        <time>2010-12-12T11:59:43Z</time>
      </trkpt>
      <trkpt lat="43.50598" lon="6.86964">
        <ele>430.81</ele>
        <time>2010-12-12T12:00:04Z</time>
      </trkpt>
      <trkpt lat="43.5061" lon="6.86972">
        <ele>432.25</ele>
        <time>2010-12-12T12:00:25Z</time>
      </trkpt>
      <trkpt lat="43.50613" lon="6.86976">
        <ele>434.65</ele>
        <time>2010-12-12T12:00:40Z</time>
      </trkpt>
      <trkpt lat="43.50604" lon="6.86974">
        <ele>436.1</ele>
        <time>2010-12-12T12:01:02Z</time>
      </trkpt>
      <trkpt lat="43.50593" lon="6.86974">
        <ele>437.54</ele>
        <time>2010-12-12T12:01:20Z</time>
      </trkpt>
      <trkpt lat="43.50585" lon="6.86969">
        <ele>439.46</ele>
        <time>2010-12-12T12:01:39Z</time>
      </trkpt>
      <trkpt lat="43.50585" lon="6.86969">
        <ele>439.46</ele>
        <time>2010-12-12T12:02:00Z</time>
      </trkpt>
      <trkpt lat="43.50583" lon="6.86968">
        <ele>439.46</ele>
        <time>2010-12-12T12:02:24Z</time>
      </trkpt>
      <trkpt lat="43.50579" lon="6.86968">
        <ele>440.9</ele>
        <time>2010-12-12T12:02:43Z</time>
      </trkpt>
      <trkpt lat="43.50578" lon="6.86969">
        <ele>442.82</ele>
        <time>2010-12-12T12:03:02Z</time>
      </trkpt>
      <trkpt lat="43.50577" lon="6.86976">
        <ele>443.31</ele>
        <time>2010-12-12T12:03:10Z</time>
      </trkpt>
      <trkpt lat="43.50575" lon="6.86994">
        <ele>445.23</ele>
        <time>2010-12-12T12:03:27Z</time>
      </trkpt>
      <trkpt lat="43.50578" lon="6.8701">
        <ele>446.67</ele>
        <time>2010-12-12T12:03:49Z</time>
      </trkpt>
      <trkpt lat="43.50577" lon="6.87016">
        <ele>447.63</ele>
        <time>2010-12-12T12:04:08Z</time>
      </trkpt>
      <trkpt lat="43.50577" lon="6.87016">
        <ele>449.55</ele>
        <time>2010-12-12T12:04:29Z</time>
      </trkpt>
      <trkpt lat="43.50577" lon="6.87016">
        <ele>450.52</ele>
        <time>2010-12-12T12:04:45Z</time>
      </trkpt>
      <trkpt lat="43.50577" lon="6.87016">
        <ele>451.96</ele>
        <time>2010-12-12T12:05:01Z</time>
      </trkpt>
      <trkpt lat="43.50576" lon="6.87016">
        <ele>452.92</ele>
        <time>2010-12-12T12:05:18Z</time>
      </trkpt>
      <trkpt lat="43.50576" lon="6.87016">
        <ele>454.84</ele>
        <time>2010-12-12T12:05:30Z</time>
      </trkpt>
      <trkpt lat="43.50565" lon="6.87011">
        <ele>456.28</ele>
        <time>2010-12-12T12:05:39Z</time>
      </trkpt>
      <trkpt lat="43.50561" lon="6.87007">
        <ele>456.76</ele>
        <time>2010-12-12T12:05:43Z</time>
      </trkpt>
      <trkpt lat="43.50549" lon="6.8699">
        <ele>459.65</ele>
        <time>2010-12-12T12:06:03Z</time>
      </trkpt>
      <trkpt lat="43.50548" lon="6.86989">
        <ele>462.05</ele>
        <time>2010-12-12T12:06:24Z</time>
      </trkpt>
      <trkpt lat="43.50548" lon="6.86989">
        <ele>464.45</ele>
        <time>2010-12-12T12:06:41Z</time>
      </trkpt>
      <trkpt lat="43.50548" lon="6.86989">
        <ele>464.93</ele>
        <time>2010-12-12T12:06:44Z</time>
      </trkpt>
      <trkpt lat="43.50547" lon="6.86988">
        <ele>467.34</ele>
        <time>2010-12-12T12:07:08Z</time>
      </trkpt>
      <trkpt lat="43.50547" lon="6.86988">
        <ele>469.26</ele>
        <time>2010-12-12T12:07:30Z</time>
      </trkpt>
      <trkpt lat="43.50535" lon="6.87006">
        <ele>471.66</ele>
        <time>2010-12-12T12:07:50Z</time>
      </trkpt>
      <trkpt lat="43.50518" lon="6.87043">
        <ele>473.11</ele>
        <time>2010-12-12T12:08:02Z</time>
      </trkpt>
      <trkpt lat="43.50518" lon="6.87053">
        <ele>474.55</ele>
        <time>2010-12-12T12:08:11Z</time>
      </trkpt>
      <trkpt lat="43.50515" lon="6.87062">
        <ele>475.51</ele>
        <time>2010-12-12T12:08:21Z</time>
      </trkpt>
      <trkpt lat="43.50514" lon="6.87067">
        <ele>475.03</ele>
        <time>2010-12-12T12:08:24Z</time>
      </trkpt>
      <trkpt lat="43.50512" lon="6.87074">
        <ele>476.47</ele>
        <time>2010-12-12T12:08:34Z</time>
      </trkpt>
      <trkpt lat="43.50509" lon="6.87085">
        <ele>478.39</ele>
        <time>2010-12-12T12:08:44Z</time>
      </trkpt>
      <trkpt lat="43.50504" lon="6.87092">
        <ele>479.35</ele>
        <time>2010-12-12T12:08:50Z</time>
      </trkpt>
      <trkpt lat="43.50488" lon="6.87119">
        <ele>482.24</ele>
        <time>2010-12-12T12:09:15Z</time>
      </trkpt>
      <trkpt lat="43.50483" lon="6.87121">
        <ele>481.76</ele>
        <time>2010-12-12T12:09:25Z</time>
      </trkpt>
      <trkpt lat="43.50483" lon="6.87123">
        <ele>483.68</ele>
        <time>2010-12-12T12:09:32Z</time>
      </trkpt>
      <trkpt lat="43.50483" lon="6.87123">
        <ele>480.32</ele>
        <time>2010-12-12T12:09:34Z</time>
      </trkpt>
      <trkpt lat="43.50483" lon="6.87123">
        <ele>481.76</ele>
        <time>2010-12-12T12:09:35Z</time>
      </trkpt>
      <trkpt lat="43.50483" lon="6.87123">
        <ele>482.72</ele>
        <time>2010-12-12T12:10:06Z</time>
      </trkpt>
      <trkpt lat="43.50483" lon="6.87123">
        <ele>482.24</ele>
        <time>2010-12-12T12:10:21Z</time>
      </trkpt>
      <trkpt lat="43.50482" lon="6.87118">
        <ele>480.8</ele>
        <time>2010-12-12T12:10:24Z</time>
      </trkpt>
      <trkpt lat="43.50479" lon="6.87105">
        <ele>484.64</ele>
        <time>2010-12-12T12:10:45Z</time>
      </trkpt>
      <trkpt lat="43.50479" lon="6.87105">
        <ele>485.12</ele>
        <time>2010-12-12T12:10:47Z</time>
      </trkpt>
      <trkpt lat="43.50473" lon="6.87096">
        <ele>487.05</ele>
        <time>2010-12-12T12:11:07Z</time>
      </trkpt>
      <trkpt lat="43.50474" lon="6.8708">
        <ele>488.01</ele>
        <time>2010-12-12T12:11:21Z</time>
      </trkpt>
      <trkpt lat="43.50473" lon="6.87063">
        <ele>489.93</ele>
        <time>2010-12-12T12:11:44Z</time>
      </trkpt>
      <trkpt lat="43.50473" lon="6.87062">
        <ele>489.93</ele>
        <time>2010-12-12T12:11:45Z</time>
      </trkpt>
      <trkpt lat="43.50469" lon="6.87058">
        <ele>490.41</ele>
        <time>2010-12-12T12:11:49Z</time>
      </trkpt>
      <trkpt lat="43.50467" lon="6.87042">
        <ele>492.33</ele>
        <time>2010-12-12T12:12:08Z</time>
      </trkpt>
      <trkpt lat="43.50464" lon="6.87036">
        <ele>495.22</ele>
        <time>2010-12-12T12:12:20Z</time>
      </trkpt>
      <trkpt lat="43.50464" lon="6.87021">
        <ele>496.66</ele>
        <time>2010-12-12T12:12:39Z</time>
      </trkpt>
      <trkpt lat="43.50464" lon="6.87006">
        <ele>498.1</ele>
        <time>2010-12-12T12:12:58Z</time>
      </trkpt>
      <trkpt lat="43.50462" lon="6.86996">
        <ele>500.02</ele>
        <time>2010-12-12T12:13:17Z</time>
      </trkpt>
      <trkpt lat="43.50456" lon="6.86987">
        <ele>501.95</ele>
        <time>2010-12-12T12:13:34Z</time>
      </trkpt>
      <trkpt lat="43.50453" lon="6.86975">
        <ele>503.39</ele>
        <time>2010-12-12T12:13:52Z</time>
      </trkpt>
      <trkpt lat="43.50448" lon="6.86966">
        <ele>504.83</ele>
        <time>2010-12-12T12:14:06Z</time>
      </trkpt>
      <trkpt lat="43.50432" lon="6.86958">
        <ele>506.27</ele>
        <time>2010-12-12T12:14:25Z</time>
      </trkpt>
      <trkpt lat="43.50419" lon="6.86954">
        <ele>505.31</ele>
        <time>2010-12-12T12:14:42Z</time>
      </trkpt>
      <trkpt lat="43.5041" lon="6.86947">
        <ele>504.83</ele>
        <time>2010-12-12T12:14:59Z</time>
      </trkpt>
      <trkpt lat="43.5039" lon="6.8694">
        <ele>504.83</ele>
        <time>2010-12-12T12:15:18Z</time>
      </trkpt>
      <trkpt lat="43.50375" lon="6.86937">
        <ele>504.83</ele>
        <time>2010-12-12T12:15:34Z</time>
      </trkpt>
      <trkpt lat="43.50364" lon="6.86936">
        <ele>505.79</ele>
        <time>2010-12-12T12:15:50Z</time>
      </trkpt>
      <trkpt lat="43.50359" lon="6.86935">
        <ele>507.71</ele>
        <time>2010-12-12T12:16:09Z</time>
      </trkpt>
      <trkpt lat="43.50343" lon="6.86927">
        <ele>509.64</ele>
        <time>2010-12-12T12:16:28Z</time>
      </trkpt>
      <trkpt lat="43.50332" lon="6.86923">
        <ele>509.16</ele>
        <time>2010-12-12T12:16:37Z</time>
      </trkpt>
      <trkpt lat="43.50329" lon="6.86921">
        <ele>509.64</ele>
        <time>2010-12-12T12:16:40Z</time>
      </trkpt>
      <trkpt lat="43.50323" lon="6.86917">
        <ele>509.64</ele>
        <time>2010-12-12T12:16:50Z</time>
      </trkpt>
      <trkpt lat="43.50309" lon="6.86903">
        <ele>510.12</ele>
        <time>2010-12-12T12:17:08Z</time>
      </trkpt>
      <trkpt lat="43.50306" lon="6.86899">
        <ele>510.12</ele>
        <time>2010-12-12T12:17:13Z</time>
      </trkpt>
      <trkpt lat="43.50292" lon="6.86888">
        <ele>508.67</ele>
        <time>2010-12-12T12:17:31Z</time>
      </trkpt>
      <trkpt lat="43.50276" lon="6.86885">
        <ele>507.71</ele>
        <time>2010-12-12T12:17:47Z</time>
      </trkpt>
      <trkpt lat="43.50266" lon="6.86884">
        <ele>507.23</ele>
        <time>2010-12-12T12:17:57Z</time>
      </trkpt>
      <trkpt lat="43.50264" lon="6.86886">
        <ele>507.23</ele>
        <time>2010-12-12T12:17:59Z</time>
      </trkpt>
      <trkpt lat="43.50257" lon="6.86893">
        <ele>505.31</ele>
        <time>2010-12-12T12:18:16Z</time>
      </trkpt>
      <trkpt lat="43.50253" lon="6.86898">
        <ele>504.83</ele>
        <time>2010-12-12T12:18:36Z</time>
      </trkpt>
      <trkpt lat="43.50247" lon="6.86905">
        <ele>503.87</ele>
        <time>2010-12-12T12:18:52Z</time>
      </trkpt>
      <trkpt lat="43.50235" lon="6.86917">
        <ele>503.87</ele>
        <time>2010-12-12T12:19:07Z</time>
      </trkpt>
      <trkpt lat="43.50224" lon="6.86929">
        <ele>504.35</ele>
        <time>2010-12-12T12:19:23Z</time>
      </trkpt>
      <trkpt lat="43.50217" lon="6.86942">
        <ele>505.31</ele>
        <time>2010-12-12T12:19:40Z</time>
      </trkpt>
      <trkpt lat="43.50209" lon="6.86953">
        <ele>506.27</ele>
        <time>2010-12-12T12:19:55Z</time>
      </trkpt>
      <trkpt lat="43.502" lon="6.86967">
        <ele>507.23</ele>
        <time>2010-12-12T12:20:12Z</time>
      </trkpt>
      <trkpt lat="43.50199" lon="6.86968">
        <ele>507.23</ele>
        <time>2010-12-12T12:20:14Z</time>
      </trkpt>
      <trkpt lat="43.50195" lon="6.86972">
        <ele>507.71</ele>
        <time>2010-12-12T12:20:20Z</time>
      </trkpt>
      <trkpt lat="43.50187" lon="6.86981">
        <ele>508.67</ele>
        <time>2010-12-12T12:20:30Z</time>
      </trkpt>
      <trkpt lat="43.5018" lon="6.86997">
        <ele>509.16</ele>
        <time>2010-12-12T12:20:49Z</time>
      </trkpt>
      <trkpt lat="43.50178" lon="6.87007">
        <ele>510.12</ele>
        <time>2010-12-12T12:21:01Z</time>
      </trkpt>
      <trkpt lat="43.50174" lon="6.87012">
        <ele>510.6</ele>
        <time>2010-12-12T12:21:06Z</time>
      </trkpt>
      <trkpt lat="43.50161" lon="6.87027">
        <ele>512.04</ele>
        <time>2010-12-12T12:21:25Z</time>
      </trkpt>
      <trkpt lat="43.50157" lon="6.87034">
        <ele>512.52</ele>
        <time>2010-12-12T12:21:33Z</time>
      </trkpt>
      <trkpt lat="43.5015" lon="6.87046">
        <ele>514.44</ele>
        <time>2010-12-12T12:21:53Z</time>
      </trkpt>
      <trkpt lat="43.50145" lon="6.87055">
        <ele>515.88</ele>
        <time>2010-12-12T12:22:15Z</time>
      </trkpt>
      <trkpt lat="43.50144" lon="6.87064">
        <ele>518.29</ele>
        <time>2010-12-12T12:22:32Z</time>
      </trkpt>
      <trkpt lat="43.50144" lon="6.87065">
        <ele>518.77</ele>
        <time>2010-12-12T12:22:35Z</time>
      </trkpt>
      <trkpt lat="43.50137" lon="6.87076">
        <ele>519.25</ele>
        <time>2010-12-12T12:22:49Z</time>
      </trkpt>
      <trkpt lat="43.50132" lon="6.87086">
        <ele>520.69</ele>
        <time>2010-12-12T12:23:08Z</time>
      </trkpt>
      <trkpt lat="43.50129" lon="6.87088">
        <ele>521.65</ele>
        <time>2010-12-12T12:23:14Z</time>
      </trkpt>
      <trkpt lat="43.50127" lon="6.8709">
        <ele>521.65</ele>
        <time>2010-12-12T12:23:16Z</time>
      </trkpt>
      <trkpt lat="43.50123" lon="6.87097">
        <ele>524.06</ele>
        <time>2010-12-12T12:23:35Z</time>
      </trkpt>
      <trkpt lat="43.50123" lon="6.87097">
        <ele>523.09</ele>
        <time>2010-12-12T12:23:38Z</time>
      </trkpt>
      <trkpt lat="43.50114" lon="6.87101">
        <ele>524.54</ele>
        <time>2010-12-12T12:23:47Z</time>
      </trkpt>
      <trkpt lat="43.501" lon="6.87108">
        <ele>527.9</ele>
        <time>2010-12-12T12:24:09Z</time>
      </trkpt>
      <trkpt lat="43.50097" lon="6.87112">
        <ele>528.86</ele>
        <time>2010-12-12T12:24:22Z</time>
      </trkpt>
      <trkpt lat="43.50094" lon="6.87106">
        <ele>530.3</ele>
        <time>2010-12-12T12:24:47Z</time>
      </trkpt>
      <trkpt lat="43.50083" lon="6.87116">
        <ele>531.75</ele>
        <time>2010-12-12T12:25:08Z</time>
      </trkpt>
      <trkpt lat="43.50076" lon="6.87108">
        <ele>534.15</ele>
        <time>2010-12-12T12:25:26Z</time>
      </trkpt>
      <trkpt lat="43.5007" lon="6.87101">
        <ele>537.03</ele>
        <time>2010-12-12T12:25:45Z</time>
      </trkpt>
      <trkpt lat="43.5007" lon="6.87101">
        <ele>537.51</ele>
        <time>2010-12-12T12:26:04Z</time>
      </trkpt>
      <trkpt lat="43.50066" lon="6.87089">
        <ele>538.96</ele>
        <time>2010-12-12T12:26:18Z</time>
      </trkpt>
      <trkpt lat="43.50059" lon="6.87072">
        <ele>540.4</ele>
        <time>2010-12-12T12:26:37Z</time>
      </trkpt>
      <trkpt lat="43.50058" lon="6.87066">
        <ele>540.4</ele>
        <time>2010-12-12T12:26:42Z</time>
      </trkpt>
      <trkpt lat="43.50057" lon="6.87062">
        <ele>540.88</ele>
        <time>2010-12-12T12:26:45Z</time>
      </trkpt>
      <trkpt lat="43.5005" lon="6.87047">
        <ele>542.32</ele>
        <time>2010-12-12T12:27:02Z</time>
      </trkpt>
      <trkpt lat="43.50045" lon="6.87044">
        <ele>543.28</ele>
        <time>2010-12-12T12:27:18Z</time>
      </trkpt>
      <trkpt lat="43.50045" lon="6.87043">
        <ele>543.76</ele>
        <time>2010-12-12T12:27:37Z</time>
      </trkpt>
      <trkpt lat="43.50045" lon="6.87043">
        <ele>545.69</ele>
        <time>2010-12-12T12:27:58Z</time>
      </trkpt>
      <trkpt lat="43.50044" lon="6.87042">
        <ele>546.17</ele>
        <time>2010-12-12T12:28:15Z</time>
      </trkpt>
      <trkpt lat="43.50043" lon="6.87041">
        <ele>546.65</ele>
        <time>2010-12-12T12:28:41Z</time>
      </trkpt>
      <trkpt lat="43.50043" lon="6.87041">
        <ele>548.09</ele>
        <time>2010-12-12T12:29:07Z</time>
      </trkpt>
      <trkpt lat="43.50043" lon="6.87041">
        <ele>548.57</ele>
        <time>2010-12-12T12:29:27Z</time>
      </trkpt>
      <trkpt lat="43.50042" lon="6.87039">
        <ele>548.09</ele>
        <time>2010-12-12T12:29:51Z</time>
      </trkpt>
      <trkpt lat="43.50042" lon="6.87039">
        <ele>548.57</ele>
        <time>2010-12-12T12:30:17Z</time>
      </trkpt>
      <trkpt lat="43.50041" lon="6.87039">
        <ele>548.57</ele>
        <time>2010-12-12T12:30:27Z</time>
      </trkpt>
      <trkpt lat="43.50039" lon="6.87037">
        <ele>544.72</ele>
        <time>2010-12-12T12:30:33Z</time>
      </trkpt>
      <trkpt lat="43.50039" lon="6.87037">
        <ele>549.53</ele>
        <time>2010-12-12T12:30:34Z</time>
      </trkpt>
      <trkpt lat="43.50039" lon="6.87037">
        <ele>549.53</ele>
        <time>2010-12-12T12:30:57Z</time>
      </trkpt>
      <trkpt lat="43.50039" lon="6.87037">
        <ele>550.49</ele>
        <time>2010-12-12T12:30:59Z</time>
      </trkpt>
      <trkpt lat="43.50038" lon="6.87033">
        <ele>552.41</ele>
        <time>2010-12-12T12:31:18Z</time>
      </trkpt>
      <trkpt lat="43.50038" lon="6.87025">
        <ele>553.86</ele>
        <time>2010-12-12T12:31:22Z</time>
      </trkpt>
      <trkpt lat="43.50037" lon="6.87006">
        <ele>555.78</ele>
        <time>2010-12-12T12:31:39Z</time>
      </trkpt>
      <trkpt lat="43.50039" lon="6.87004">
        <ele>558.18</ele>
        <time>2010-12-12T12:31:55Z</time>
      </trkpt>
      <trkpt lat="43.5004" lon="6.87002">
        <ele>558.66</ele>
        <time>2010-12-12T12:32:11Z</time>
      </trkpt>
      <trkpt lat="43.5004" lon="6.87002">
        <ele>558.66</ele>
        <time>2010-12-12T12:32:33Z</time>
      </trkpt>
      <trkpt lat="43.5004" lon="6.87002">
        <ele>558.18</ele>
        <time>2010-12-12T12:32:56Z</time>
      </trkpt>
      <trkpt lat="43.5004" lon="6.87002">
        <ele>558.18</ele>
        <time>2010-12-12T12:33:16Z</time>
      </trkpt>
      <trkpt lat="43.50039" lon="6.87002">
        <ele>558.18</ele>
        <time>2010-12-12T12:33:48Z</time>
      </trkpt>
      <trkpt lat="43.50039" lon="6.87002">
        <ele>557.7</ele>
        <time>2010-12-12T12:34:29Z</time>
      </trkpt>
      <trkpt lat="43.50039" lon="6.87003">
        <ele>557.7</ele>
        <time>2010-12-12T12:34:57Z</time>
      </trkpt>
      <trkpt lat="43.50039" lon="6.87003">
        <ele>557.22</ele>
        <time>2010-12-12T12:35:17Z</time>
      </trkpt>
      <trkpt lat="43.50039" lon="6.87003">
        <ele>557.22</ele>
        <time>2010-12-12T12:35:39Z</time>
      </trkpt>
      <trkpt lat="43.50039" lon="6.87003">
        <ele>556.74</ele>
        <time>2010-12-12T12:36:04Z</time>
      </trkpt>
      <trkpt lat="43.50039" lon="6.87003">
        <ele>557.7</ele>
        <time>2010-12-12T12:36:29Z</time>
      </trkpt>
      <trkpt lat="43.50039" lon="6.87003">
        <ele>558.18</ele>
        <time>2010-12-12T12:36:49Z</time>
      </trkpt>
      <trkpt lat="43.50039" lon="6.87003">
        <ele>558.66</ele>
        <time>2010-12-12T12:37:14Z</time>
      </trkpt>
      <trkpt lat="43.50039" lon="6.87002">
        <ele>559.14</ele>
        <time>2010-12-12T12:37:39Z</time>
      </trkpt>
      <trkpt lat="43.50039" lon="6.87002">
        <ele>554.82</ele>
        <time>2010-12-12T12:37:53Z</time>
      </trkpt>
      <trkpt lat="43.50039" lon="6.87002">
        <ele>558.18</ele>
        <time>2010-12-12T12:37:54Z</time>
      </trkpt>
      <trkpt lat="43.50039" lon="6.87002">
        <ele>559.14</ele>
        <time>2010-12-12T12:38:28Z</time>
      </trkpt>
      <trkpt lat="43.50039" lon="6.87002">
        <ele>554.82</ele>
        <time>2010-12-12T12:38:35Z</time>
      </trkpt>
      <trkpt lat="43.50039" lon="6.87002">
        <ele>558.18</ele>
        <time>2010-12-12T12:38:36Z</time>
      </trkpt>
      <trkpt lat="43.50043" lon="6.87006">
        <ele>557.22</ele>
        <time>2010-12-12T12:52:11Z</time>
      </trkpt>
      <trkpt lat="43.50042" lon="6.87006">
        <ele>557.22</ele>
        <time>2010-12-12T12:52:12Z</time>
      </trkpt>
      <trkpt lat="43.5004" lon="6.87">
        <ele>561.07</ele>
        <time>2010-12-12T12:52:34Z</time>
      </trkpt>
      <trkpt lat="43.5004" lon="6.87">
        <ele>556.74</ele>
        <time>2010-12-12T12:52:41Z</time>
      </trkpt>
      <trkpt lat="43.5004" lon="6.87">
        <ele>558.66</ele>
        <time>2010-12-12T12:53:15Z</time>
      </trkpt>
      <trkpt lat="43.5004" lon="6.87">
        <ele>555.3</ele>
        <time>2010-12-12T12:53:31Z</time>
      </trkpt>
      <trkpt lat="43.5004" lon="6.87">
        <ele>558.66</ele>
        <time>2010-12-12T12:53:32Z</time>
      </trkpt>
      <trkpt lat="43.50041" lon="6.87">
        <ele>559.14</ele>
        <time>2010-12-12T12:53:57Z</time>
      </trkpt>
      <trkpt lat="43.50041" lon="6.87">
        <ele>559.62</ele>
        <time>2010-12-12T12:54:31Z</time>
      </trkpt>
      <trkpt lat="43.50041" lon="6.87">
        <ele>559.14</ele>
        <time>2010-12-12T12:55:04Z</time>
      </trkpt>
      <trkpt lat="43.50041" lon="6.87">
        <ele>558.66</ele>
        <time>2010-12-12T12:55:35Z</time>
      </trkpt>
      <trkpt lat="43.50041" lon="6.87">
        <ele>558.18</ele>
        <time>2010-12-12T12:56:07Z</time>
      </trkpt>
      <trkpt lat="43.50041" lon="6.87">
        <ele>557.7</ele>
        <time>2010-12-12T12:56:42Z</time>
      </trkpt>
      <trkpt lat="43.50041" lon="6.87">
        <ele>558.66</ele>
        <time>2010-12-12T12:57:14Z</time>
      </trkpt>
      <trkpt lat="43.50041" lon="6.87">
        <ele>557.7</ele>
        <time>2010-12-12T12:57:53Z</time>
      </trkpt>
      <trkpt lat="43.50041" lon="6.87">
        <ele>558.66</ele>
        <time>2010-12-12T12:58:28Z</time>
      </trkpt>
      <trkpt lat="43.50041" lon="6.87">
        <ele>558.66</ele>
        <time>2010-12-12T12:59:03Z</time>
      </trkpt>
      <trkpt lat="43.5004" lon="6.87">
        <ele>559.14</ele>
        <time>2010-12-12T12:59:24Z</time>
      </trkpt>
      <trkpt lat="43.5004" lon="6.87001">
        <ele>559.62</ele>
        <time>2010-12-12T12:59:55Z</time>
      </trkpt>
      <trkpt lat="43.5004" lon="6.87001">
        <ele>559.62</ele>
        <time>2010-12-12T13:00:26Z</time>
      </trkpt>
      <trkpt lat="43.5004" lon="6.87001">
        <ele>559.62</ele>
        <time>2010-12-12T13:00:53Z</time>
      </trkpt>
      <trkpt lat="43.50041" lon="6.87001">
        <ele>559.62</ele>
        <time>2010-12-12T13:01:28Z</time>
      </trkpt>
      <trkpt lat="43.50041" lon="6.87001">
        <ele>558.66</ele>
        <time>2010-12-12T13:01:54Z</time>
      </trkpt>
      <trkpt lat="43.50041" lon="6.87001">
        <ele>558.66</ele>
        <time>2010-12-12T13:02:25Z</time>
      </trkpt>
      <trkpt lat="43.50041" lon="6.87001">
        <ele>558.18</ele>
        <time>2010-12-12T13:02:58Z</time>
      </trkpt>
      <trkpt lat="43.50041" lon="6.87001">
        <ele>559.14</ele>
        <time>2010-12-12T13:03:29Z</time>
      </trkpt>
      <trkpt lat="43.50041" lon="6.87001">
        <ele>558.66</ele>
        <time>2010-12-12T13:03:53Z</time>
      </trkpt>
      <trkpt lat="43.5004" lon="6.87001">
        <ele>558.18</ele>
        <time>2010-12-12T13:04:29Z</time>
      </trkpt>
      <trkpt lat="43.5004" lon="6.87001">
        <ele>558.18</ele>
        <time>2010-12-12T13:05:02Z</time>
      </trkpt>
      <trkpt lat="43.5004" lon="6.87001">
        <ele>558.18</ele>
        <time>2010-12-12T13:05:39Z</time>
      </trkpt>
      <trkpt lat="43.50041" lon="6.87001">
        <ele>559.14</ele>
        <time>2010-12-12T13:06:18Z</time>
      </trkpt>
      <trkpt lat="43.50041" lon="6.87001">
        <ele>558.66</ele>
        <time>2010-12-12T13:06:57Z</time>
      </trkpt>
      <trkpt lat="43.5004" lon="6.87001">
        <ele>559.14</ele>
        <time>2010-12-12T13:07:28Z</time>
      </trkpt>
      <trkpt lat="43.5004" lon="6.87001">
        <ele>558.66</ele>
        <time>2010-12-12T13:08:05Z</time>
      </trkpt>
      <trkpt lat="43.5004" lon="6.87001">
        <ele>558.18</ele>
        <time>2010-12-12T13:08:45Z</time>
      </trkpt>
      <trkpt lat="43.5004" lon="6.87001">
        <ele>558.18</ele>
        <time>2010-12-12T13:09:25Z</time>
      </trkpt>
      <trkpt lat="43.5004" lon="6.87001">
        <ele>558.66</ele>
        <time>2010-12-12T13:09:59Z</time>
      </trkpt>
      <trkpt lat="43.5004" lon="6.87001">
        <ele>558.66</ele>
        <time>2010-12-12T13:10:41Z</time>
      </trkpt>
      <trkpt lat="43.5004" lon="6.87001">
        <ele>558.66</ele>
        <time>2010-12-12T13:11:21Z</time>
      </trkpt>
      <trkpt lat="43.5004" lon="6.87001">
        <ele>558.66</ele>
        <time>2010-12-12T13:11:57Z</time>
      </trkpt>
      <trkpt lat="43.5004" lon="6.87001">
        <ele>558.66</ele>
        <time>2010-12-12T13:12:33Z</time>
      </trkpt>
      <trkpt lat="43.50041" lon="6.87001">
        <ele>558.66</ele>
        <time>2010-12-12T13:13:13Z</time>
      </trkpt>
      <trkpt lat="43.50041" lon="6.87001">
        <ele>558.66</ele>
        <time>2010-12-12T13:13:51Z</time>
      </trkpt>
      <trkpt lat="43.50041" lon="6.87">
        <ele>558.66</ele>
        <time>2010-12-12T13:14:30Z</time>
      </trkpt>
      <trkpt lat="43.50041" lon="6.87">
        <ele>558.18</ele>
        <time>2010-12-12T13:15:10Z</time>
      </trkpt>
      <trkpt lat="43.50041" lon="6.87">
        <ele>558.66</ele>
        <time>2010-12-12T13:15:44Z</time>
      </trkpt>
      <trkpt lat="43.50041" lon="6.87">
        <ele>559.14</ele>
        <time>2010-12-12T13:16:15Z</time>
      </trkpt>
      <trkpt lat="43.50041" lon="6.87">
        <ele>558.66</ele>
        <time>2010-12-12T13:16:46Z</time>
      </trkpt>
      <trkpt lat="43.50041" lon="6.87">
        <ele>558.18</ele>
        <time>2010-12-12T13:17:22Z</time>
      </trkpt>
      <trkpt lat="43.5004" lon="6.87001">
        <ele>558.66</ele>
        <time>2010-12-12T13:17:37Z</time>
      </trkpt>
      <trkpt lat="43.5004" lon="6.87001">
        <ele>558.66</ele>
        <time>2010-12-12T13:18:08Z</time>
      </trkpt>
      <trkpt lat="43.5004" lon="6.87001">
        <ele>557.22</ele>
        <time>2010-12-12T13:18:24Z</time>
      </trkpt>
      <trkpt lat="43.5004" lon="6.87">
        <ele>558.18</ele>
        <time>2010-12-12T13:18:57Z</time>
      </trkpt>
      <trkpt lat="43.50041" lon="6.87">
        <ele>558.66</ele>
        <time>2010-12-12T13:19:10Z</time>
      </trkpt>
      <trkpt lat="43.5004" lon="6.87001">
        <ele>558.66</ele>
        <time>2010-12-12T13:19:27Z</time>
      </trkpt>
      <trkpt lat="43.5004" lon="6.87">
        <ele>558.66</ele>
        <time>2010-12-12T13:19:57Z</time>
      </trkpt>
      <trkpt lat="43.5004" lon="6.87">
        <ele>558.18</ele>
        <time>2010-12-12T13:20:32Z</time>
      </trkpt>
      <trkpt lat="43.5004" lon="6.87001">
        <ele>558.18</ele>
        <time>2010-12-12T13:21:03Z</time>
      </trkpt>
      <trkpt lat="43.5004" lon="6.87001">
        <ele>558.66</ele>
        <time>2010-12-12T13:21:32Z</time>
      </trkpt>
      <trkpt lat="43.5004" lon="6.87002">
        <ele>558.66</ele>
        <time>2010-12-12T13:21:57Z</time>
      </trkpt>
      <trkpt lat="43.5004" lon="6.87002">
        <ele>558.18</ele>
        <time>2010-12-12T13:22:22Z</time>
      </trkpt>
      <trkpt lat="43.5004" lon="6.87002">
        <ele>558.18</ele>
        <time>2010-12-12T13:22:50Z</time>
      </trkpt>
      <trkpt lat="43.5004" lon="6.87002">
        <ele>558.18</ele>
        <time>2010-12-12T13:23:29Z</time>
      </trkpt>
      <trkpt lat="43.5004" lon="6.87002">
        <ele>558.66</ele>
        <time>2010-12-12T13:24:06Z</time>
      </trkpt>
      <trkpt lat="43.5004" lon="6.87002">
        <ele>558.66</ele>
        <time>2010-12-12T13:24:34Z</time>
      </trkpt>
      <trkpt lat="43.5004" lon="6.87001">
        <ele>559.14</ele>
        <time>2010-12-12T13:25:06Z</time>
      </trkpt>
      <trkpt lat="43.5004" lon="6.87002">
        <ele>559.14</ele>
        <time>2010-12-12T13:25:35Z</time>
      </trkpt>
      <trkpt lat="43.5004" lon="6.87001">
        <ele>559.62</ele>
        <time>2010-12-12T13:26:14Z</time>
      </trkpt>
      <trkpt lat="43.5004" lon="6.87001">
        <ele>559.14</ele>
        <time>2010-12-12T13:26:49Z</time>
      </trkpt>
      <trkpt lat="43.5004" lon="6.87001">
        <ele>558.66</ele>
        <time>2010-12-12T13:27:23Z</time>
      </trkpt>
      <trkpt lat="43.5004" lon="6.87001">
        <ele>559.62</ele>
        <time>2010-12-12T13:27:45Z</time>
      </trkpt>
      <trkpt lat="43.5004" lon="6.87001">
        <ele>559.62</ele>
        <time>2010-12-12T13:28:08Z</time>
      </trkpt>
      <trkpt lat="43.5004" lon="6.87001">
        <ele>560.11</ele>
        <time>2010-12-12T13:28:34Z</time>
      </trkpt>
      <trkpt lat="43.5004" lon="6.87001">
        <ele>559.14</ele>
        <time>2010-12-12T13:29:09Z</time>
      </trkpt>
      <trkpt lat="43.5004" lon="6.87002">
        <ele>559.14</ele>
        <time>2010-12-12T13:29:28Z</time>
      </trkpt>
      <trkpt lat="43.50039" lon="6.87002">
        <ele>558.18</ele>
        <time>2010-12-12T13:29:41Z</time>
      </trkpt>
      <trkpt lat="43.50036" lon="6.87004">
        <ele>556.74</ele>
        <time>2010-12-12T13:29:56Z</time>
      </trkpt>
      <trkpt lat="43.50035" lon="6.87009">
        <ele>555.78</ele>
        <time>2010-12-12T13:30:08Z</time>
      </trkpt>
      <trkpt lat="43.50035" lon="6.87019">
        <ele>553.38</ele>
        <time>2010-12-12T13:30:23Z</time>
      </trkpt>
      <trkpt lat="43.50036" lon="6.87023">
        <ele>551.93</ele>
        <time>2010-12-12T13:30:37Z</time>
      </trkpt>
      <trkpt lat="43.50036" lon="6.87025">
        <ele>551.45</ele>
        <time>2010-12-12T13:30:55Z</time>
      </trkpt>
      <trkpt lat="43.50036" lon="6.87025">
        <ele>550.97</ele>
        <time>2010-12-12T13:31:17Z</time>
      </trkpt>
      <trkpt lat="43.50036" lon="6.87024">
        <ele>550.49</ele>
        <time>2010-12-12T13:31:38Z</time>
      </trkpt>
      <trkpt lat="43.50036" lon="6.87024">
        <ele>550.97</ele>
        <time>2010-12-12T13:32:06Z</time>
      </trkpt>
      <trkpt lat="43.50037" lon="6.87029">
        <ele>549.53</ele>
        <time>2010-12-12T13:32:27Z</time>
      </trkpt>
      <trkpt lat="43.50037" lon="6.87031">
        <ele>549.05</ele>
        <time>2010-12-12T13:32:41Z</time>
      </trkpt>
      <trkpt lat="43.50036" lon="6.87031">
        <ele>548.57</ele>
        <time>2010-12-12T13:33:00Z</time>
      </trkpt>
      <trkpt lat="43.50036" lon="6.87032">
        <ele>548.57</ele>
        <time>2010-12-12T13:33:26Z</time>
      </trkpt>
      <trkpt lat="43.50036" lon="6.87032">
        <ele>547.13</ele>
        <time>2010-12-12T13:33:43Z</time>
      </trkpt>
      <trkpt lat="43.50036" lon="6.87032">
        <ele>547.13</ele>
        <time>2010-12-12T13:33:44Z</time>
      </trkpt>
      <trkpt lat="43.50037" lon="6.87034">
        <ele>547.13</ele>
        <time>2010-12-12T13:34:00Z</time>
      </trkpt>
      <trkpt lat="43.50038" lon="6.87035">
        <ele>546.17</ele>
        <time>2010-12-12T13:34:19Z</time>
      </trkpt>
      <trkpt lat="43.5004" lon="6.87036">
        <ele>544.72</ele>
        <time>2010-12-12T13:34:29Z</time>
      </trkpt>
      <trkpt lat="43.50041" lon="6.87039">
        <ele>544.24</ele>
        <time>2010-12-12T13:34:31Z</time>
      </trkpt>
      <trkpt lat="43.50043" lon="6.87045">
        <ele>543.76</ele>
        <time>2010-12-12T13:34:34Z</time>
      </trkpt>
      <trkpt lat="43.50053" lon="6.87051">
        <ele>541.84</ele>
        <time>2010-12-12T13:34:43Z</time>
      </trkpt>
      <trkpt lat="43.50057" lon="6.87064">
        <ele>541.36</ele>
        <time>2010-12-12T13:34:57Z</time>
      </trkpt>
      <trkpt lat="43.50061" lon="6.87073">
        <ele>539.92</ele>
        <time>2010-12-12T13:35:05Z</time>
      </trkpt>
      <trkpt lat="43.50061" lon="6.87075">
        <ele>540.4</ele>
        <time>2010-12-12T13:35:07Z</time>
      </trkpt>
      <trkpt lat="43.50065" lon="6.87091">
        <ele>538.48</ele>
        <time>2010-12-12T13:35:24Z</time>
      </trkpt>
      <trkpt lat="43.50069" lon="6.871">
        <ele>537.03</ele>
        <time>2010-12-12T13:35:37Z</time>
      </trkpt>
      <trkpt lat="43.50073" lon="6.87109">
        <ele>534.15</ele>
        <time>2010-12-12T13:35:53Z</time>
      </trkpt>
      <trkpt lat="43.50079" lon="6.87119">
        <ele>532.23</ele>
        <time>2010-12-12T13:36:08Z</time>
      </trkpt>
      <trkpt lat="43.5009" lon="6.87122">
        <ele>529.82</ele>
        <time>2010-12-12T13:36:24Z</time>
      </trkpt>
      <trkpt lat="43.50099" lon="6.87116">
        <ele>527.9</ele>
        <time>2010-12-12T13:36:40Z</time>
      </trkpt>
      <trkpt lat="43.50107" lon="6.87108">
        <ele>525.98</ele>
        <time>2010-12-12T13:36:56Z</time>
      </trkpt>
      <trkpt lat="43.50118" lon="6.87103">
        <ele>524.06</ele>
        <time>2010-12-12T13:37:11Z</time>
      </trkpt>
      <trkpt lat="43.50129" lon="6.87094">
        <ele>522.13</ele>
        <time>2010-12-12T13:37:25Z</time>
      </trkpt>
      <trkpt lat="43.50131" lon="6.87092">
        <ele>521.17</ele>
        <time>2010-12-12T13:37:28Z</time>
      </trkpt>
      <trkpt lat="43.5014" lon="6.87078">
        <ele>519.25</ele>
        <time>2010-12-12T13:37:45Z</time>
      </trkpt>
      <trkpt lat="43.50145" lon="6.87066">
        <ele>517.81</ele>
        <time>2010-12-12T13:37:58Z</time>
      </trkpt>
      <trkpt lat="43.50146" lon="6.87062">
        <ele>515.88</ele>
        <time>2010-12-12T13:38:13Z</time>
      </trkpt>
      <trkpt lat="43.50153" lon="6.87059">
        <ele>514.92</ele>
        <time>2010-12-12T13:38:28Z</time>
      </trkpt>
      <trkpt lat="43.50161" lon="6.87042">
        <ele>513</ele>
        <time>2010-12-12T13:38:42Z</time>
      </trkpt>
      <trkpt lat="43.50169" lon="6.87027">
        <ele>511.56</ele>
        <time>2010-12-12T13:38:58Z</time>
      </trkpt>
      <trkpt lat="43.50177" lon="6.87012">
        <ele>510.6</ele>
        <time>2010-12-12T13:39:14Z</time>
      </trkpt>
      <trkpt lat="43.50183" lon="6.86999">
        <ele>509.16</ele>
        <time>2010-12-12T13:39:29Z</time>
      </trkpt>
      <trkpt lat="43.50191" lon="6.86989">
        <ele>509.16</ele>
        <time>2010-12-12T13:39:44Z</time>
      </trkpt>
      <trkpt lat="43.50198" lon="6.86982">
        <ele>508.19</ele>
        <time>2010-12-12T13:39:59Z</time>
      </trkpt>
      <trkpt lat="43.50209" lon="6.86964">
        <ele>507.71</ele>
        <time>2010-12-12T13:40:16Z</time>
      </trkpt>
      <trkpt lat="43.50217" lon="6.86953">
        <ele>506.27</ele>
        <time>2010-12-12T13:40:26Z</time>
      </trkpt>
      <trkpt lat="43.50226" lon="6.86941">
        <ele>506.27</ele>
        <time>2010-12-12T13:40:43Z</time>
      </trkpt>
      <trkpt lat="43.50235" lon="6.86928">
        <ele>505.31</ele>
        <time>2010-12-12T13:40:58Z</time>
      </trkpt>
      <trkpt lat="43.50246" lon="6.86915">
        <ele>505.31</ele>
        <time>2010-12-12T13:41:15Z</time>
      </trkpt>
      <trkpt lat="43.50252" lon="6.86905">
        <ele>506.27</ele>
        <time>2010-12-12T13:41:31Z</time>
      </trkpt>
      <trkpt lat="43.5026" lon="6.86896">
        <ele>507.23</ele>
        <time>2010-12-12T13:41:44Z</time>
      </trkpt>
      <trkpt lat="43.50269" lon="6.86889">
        <ele>508.19</ele>
        <time>2010-12-12T13:42:00Z</time>
      </trkpt>
      <trkpt lat="43.50275" lon="6.86889">
        <ele>509.16</ele>
        <time>2010-12-12T13:42:16Z</time>
      </trkpt>
      <trkpt lat="43.50281" lon="6.8689">
        <ele>509.64</ele>
        <time>2010-12-12T13:42:31Z</time>
      </trkpt>
      <trkpt lat="43.50288" lon="6.86893">
        <ele>510.12</ele>
        <time>2010-12-12T13:42:45Z</time>
      </trkpt>
      <trkpt lat="43.50297" lon="6.86899">
        <ele>510.6</ele>
        <time>2010-12-12T13:43:00Z</time>
      </trkpt>
      <trkpt lat="43.50304" lon="6.86907">
        <ele>511.08</ele>
        <time>2010-12-12T13:43:15Z</time>
      </trkpt>
      <trkpt lat="43.50306" lon="6.86909">
        <ele>511.08</ele>
        <time>2010-12-12T13:43:19Z</time>
      </trkpt>
      <trkpt lat="43.50319" lon="6.86923">
        <ele>510.6</ele>
        <time>2010-12-12T13:43:32Z</time>
      </trkpt>
      <trkpt lat="43.50338" lon="6.86937">
        <ele>510.6</ele>
        <time>2010-12-12T13:43:50Z</time>
      </trkpt>
      <trkpt lat="43.50353" lon="6.8694">
        <ele>508.19</ele>
        <time>2010-12-12T13:44:07Z</time>
      </trkpt>
      <trkpt lat="43.50363" lon="6.86942">
        <ele>506.27</ele>
        <time>2010-12-12T13:44:20Z</time>
      </trkpt>
      <trkpt lat="43.50375" lon="6.86944">
        <ele>505.79</ele>
        <time>2010-12-12T13:44:35Z</time>
      </trkpt>
      <trkpt lat="43.50385" lon="6.86947">
        <ele>506.27</ele>
        <time>2010-12-12T13:44:49Z</time>
      </trkpt>
      <trkpt lat="43.50383" lon="6.86951">
        <ele>507.71</ele>
        <time>2010-12-12T13:45:03Z</time>
      </trkpt>
      <trkpt lat="43.50383" lon="6.86951">
        <ele>508.19</ele>
        <time>2010-12-12T13:45:36Z</time>
      </trkpt>
      <trkpt lat="43.50382" lon="6.86949">
        <ele>506.75</ele>
        <time>2010-12-12T13:45:50Z</time>
      </trkpt>
      <trkpt lat="43.50384" lon="6.86947">
        <ele>506.27</ele>
        <time>2010-12-12T13:45:53Z</time>
      </trkpt>
      <trkpt lat="43.50391" lon="6.86946">
        <ele>505.31</ele>
        <time>2010-12-12T13:46:07Z</time>
      </trkpt>
      <trkpt lat="43.50399" lon="6.86949">
        <ele>505.79</ele>
        <time>2010-12-12T13:46:15Z</time>
      </trkpt>
      <trkpt lat="43.50415" lon="6.86956">
        <ele>505.31</ele>
        <time>2010-12-12T13:46:27Z</time>
      </trkpt>
      <trkpt lat="43.50432" lon="6.86965">
        <ele>506.75</ele>
        <time>2010-12-12T13:46:42Z</time>
      </trkpt>
      <trkpt lat="43.50447" lon="6.86975">
        <ele>503.39</ele>
        <time>2010-12-12T13:46:54Z</time>
      </trkpt>
      <trkpt lat="43.50453" lon="6.86983">
        <ele>501.46</ele>
        <time>2010-12-12T13:47:01Z</time>
      </trkpt>
      <trkpt lat="43.50456" lon="6.86988">
        <ele>500.98</ele>
        <time>2010-12-12T13:47:05Z</time>
      </trkpt>
      <trkpt lat="43.50459" lon="6.87003">
        <ele>498.1</ele>
        <time>2010-12-12T13:47:15Z</time>
      </trkpt>
      <trkpt lat="43.50465" lon="6.87022">
        <ele>493.29</ele>
        <time>2010-12-12T13:47:29Z</time>
      </trkpt>
      <trkpt lat="43.50466" lon="6.87033">
        <ele>493.77</ele>
        <time>2010-12-12T13:47:44Z</time>
      </trkpt>
      <trkpt lat="43.50469" lon="6.87046">
        <ele>490.41</ele>
        <time>2010-12-12T13:48:00Z</time>
      </trkpt>
      <trkpt lat="43.5047" lon="6.87055">
        <ele>488.97</ele>
        <time>2010-12-12T13:48:16Z</time>
      </trkpt>
      <trkpt lat="43.50471" lon="6.87074">
        <ele>487.05</ele>
        <time>2010-12-12T13:48:33Z</time>
      </trkpt>
      <trkpt lat="43.50471" lon="6.87086">
        <ele>485.6</ele>
        <time>2010-12-12T13:48:48Z</time>
      </trkpt>
      <trkpt lat="43.50471" lon="6.87087">
        <ele>485.12</ele>
        <time>2010-12-12T13:48:51Z</time>
      </trkpt>
      <trkpt lat="43.50474" lon="6.87109">
        <ele>482.24</ele>
        <time>2010-12-12T13:49:07Z</time>
      </trkpt>
      <trkpt lat="43.50478" lon="6.87116">
        <ele>481.76</ele>
        <time>2010-12-12T13:49:25Z</time>
      </trkpt>
      <trkpt lat="43.5048" lon="6.87119">
        <ele>481.28</ele>
        <time>2010-12-12T13:49:35Z</time>
      </trkpt>
      <trkpt lat="43.50482" lon="6.87124">
        <ele>480.8</ele>
        <time>2010-12-12T13:49:40Z</time>
      </trkpt>
      <trkpt lat="43.50478" lon="6.87138">
        <ele>479.35</ele>
        <time>2010-12-12T13:49:57Z</time>
      </trkpt>
      <trkpt lat="43.50473" lon="6.87155">
        <ele>476.95</ele>
        <time>2010-12-12T13:50:12Z</time>
      </trkpt>
      <trkpt lat="43.50468" lon="6.87174">
        <ele>474.55</ele>
        <time>2010-12-12T13:50:27Z</time>
      </trkpt>
      <trkpt lat="43.50467" lon="6.87185">
        <ele>473.59</ele>
        <time>2010-12-12T13:50:34Z</time>
      </trkpt>
      <trkpt lat="43.50467" lon="6.87199">
        <ele>472.14</ele>
        <time>2010-12-12T13:50:51Z</time>
      </trkpt>
      <trkpt lat="43.50464" lon="6.87215">
        <ele>469.26</ele>
        <time>2010-12-12T13:51:06Z</time>
      </trkpt>
      <trkpt lat="43.50464" lon="6.87225">
        <ele>468.78</ele>
        <time>2010-12-12T13:51:25Z</time>
      </trkpt>
      <trkpt lat="43.50464" lon="6.87241">
        <ele>466.86</ele>
        <time>2010-12-12T13:51:40Z</time>
      </trkpt>
      <trkpt lat="43.50461" lon="6.87232">
        <ele>464.93</ele>
        <time>2010-12-12T13:51:49Z</time>
      </trkpt>
      <trkpt lat="43.50455" lon="6.87217">
        <ele>462.53</ele>
        <time>2010-12-12T13:52:05Z</time>
      </trkpt>
      <trkpt lat="43.50447" lon="6.87204">
        <ele>460.13</ele>
        <time>2010-12-12T13:52:23Z</time>
      </trkpt>
      <trkpt lat="43.5044" lon="6.8719">
        <ele>458.21</ele>
        <time>2010-12-12T13:52:42Z</time>
      </trkpt>
      <trkpt lat="43.50428" lon="6.87183">
        <ele>456.28</ele>
        <time>2010-12-12T13:53:00Z</time>
      </trkpt>
      <trkpt lat="43.50428" lon="6.87183">
        <ele>456.28</ele>
        <time>2010-12-12T13:53:01Z</time>
      </trkpt>
      <trkpt lat="43.50426" lon="6.87181">
        <ele>455.8</ele>
        <time>2010-12-12T13:53:03Z</time>
      </trkpt>
      <trkpt lat="43.50415" lon="6.87175">
        <ele>454.36</ele>
        <time>2010-12-12T13:53:15Z</time>
      </trkpt>
      <trkpt lat="43.50411" lon="6.87175">
        <ele>453.4</ele>
        <time>2010-12-12T13:53:18Z</time>
      </trkpt>
      <trkpt lat="43.50408" lon="6.87175">
        <ele>452.92</ele>
        <time>2010-12-12T13:53:21Z</time>
      </trkpt>
      <trkpt lat="43.5039" lon="6.87178">
        <ele>449.55</ele>
        <time>2010-12-12T13:53:37Z</time>
      </trkpt>
      <trkpt lat="43.5037" lon="6.87184">
        <ele>446.67</ele>
        <time>2010-12-12T13:53:55Z</time>
      </trkpt>
      <trkpt lat="43.50363" lon="6.87187">
        <ele>445.23</ele>
        <time>2010-12-12T13:54:04Z</time>
      </trkpt>
      <trkpt lat="43.50353" lon="6.87191">
        <ele>443.79</ele>
        <time>2010-12-12T13:54:14Z</time>
      </trkpt>
      <trkpt lat="43.50337" lon="6.87198">
        <ele>442.82</ele>
        <time>2010-12-12T13:54:29Z</time>
      </trkpt>
      <trkpt lat="43.50335" lon="6.87209">
        <ele>441.38</ele>
        <time>2010-12-12T13:54:38Z</time>
      </trkpt>
      <trkpt lat="43.50349" lon="6.87213">
        <ele>438.98</ele>
        <time>2010-12-12T13:54:52Z</time>
      </trkpt>
      <trkpt lat="43.50358" lon="6.87214">
        <ele>437.06</ele>
        <time>2010-12-12T13:55:04Z</time>
      </trkpt>
      <trkpt lat="43.50368" lon="6.87219">
        <ele>433.21</ele>
        <time>2010-12-12T13:55:14Z</time>
      </trkpt>
      <trkpt lat="43.50384" lon="6.87236">
        <ele>432.73</ele>
        <time>2010-12-12T13:55:33Z</time>
      </trkpt>
      <trkpt lat="43.50389" lon="6.87253">
        <ele>428.89</ele>
        <time>2010-12-12T13:55:50Z</time>
      </trkpt>
      <trkpt lat="43.50391" lon="6.87262">
        <ele>428.89</ele>
        <time>2010-12-12T13:55:58Z</time>
      </trkpt>
      <trkpt lat="43.50388" lon="6.87276">
        <ele>426.48</ele>
        <time>2010-12-12T13:56:10Z</time>
      </trkpt>
      <trkpt lat="43.50386" lon="6.87286">
        <ele>425.04</ele>
        <time>2010-12-12T13:56:30Z</time>
      </trkpt>
      <trkpt lat="43.50386" lon="6.87287">
        <ele>426</ele>
        <time>2010-12-12T13:57:04Z</time>
      </trkpt>
      <trkpt lat="43.50386" lon="6.87287">
        <ele>425.52</ele>
        <time>2010-12-12T13:57:16Z</time>
      </trkpt>
      <trkpt lat="43.50387" lon="6.8729">
        <ele>424.56</ele>
        <time>2010-12-12T13:57:26Z</time>
      </trkpt>
      <trkpt lat="43.50389" lon="6.87304">
        <ele>421.68</ele>
        <time>2010-12-12T13:57:35Z</time>
      </trkpt>
      <trkpt lat="43.50386" lon="6.87313">
        <ele>422.16</ele>
        <time>2010-12-12T13:57:43Z</time>
      </trkpt>
      <trkpt lat="43.50386" lon="6.87319">
        <ele>422.16</ele>
        <time>2010-12-12T13:57:47Z</time>
      </trkpt>
      <trkpt lat="43.50383" lon="6.87338">
        <ele>420.71</ele>
        <time>2010-12-12T13:58:09Z</time>
      </trkpt>
      <trkpt lat="43.50383" lon="6.87338">
        <ele>419.75</ele>
        <time>2010-12-12T13:58:26Z</time>
      </trkpt>
      <trkpt lat="43.50383" lon="6.87338">
        <ele>419.27</ele>
        <time>2010-12-12T13:58:49Z</time>
      </trkpt>
      <trkpt lat="43.50382" lon="6.87339">
        <ele>419.27</ele>
        <time>2010-12-12T13:59:10Z</time>
      </trkpt>
      <trkpt lat="43.50376" lon="6.87353">
        <ele>416.87</ele>
        <time>2010-12-12T13:59:26Z</time>
      </trkpt>
      <trkpt lat="43.50375" lon="6.87367">
        <ele>414.95</ele>
        <time>2010-12-12T13:59:38Z</time>
      </trkpt>
      <trkpt lat="43.50376" lon="6.87367">
        <ele>414.95</ele>
        <time>2010-12-12T13:59:39Z</time>
      </trkpt>
      <trkpt lat="43.50376" lon="6.87378">
        <ele>413.98</ele>
        <time>2010-12-12T13:59:50Z</time>
      </trkpt>
      <trkpt lat="43.50376" lon="6.87381">
        <ele>413.5</ele>
        <time>2010-12-12T13:59:53Z</time>
      </trkpt>
      <trkpt lat="43.50375" lon="6.87386">
        <ele>412.54</ele>
        <time>2010-12-12T13:59:56Z</time>
      </trkpt>
      <trkpt lat="43.50372" lon="6.87405">
        <ele>410.14</ele>
        <time>2010-12-12T14:00:09Z</time>
      </trkpt>
      <trkpt lat="43.50371" lon="6.87409">
        <ele>410.14</ele>
        <time>2010-12-12T14:00:20Z</time>
      </trkpt>
      <trkpt lat="43.5037" lon="6.87414">
        <ele>409.66</ele>
        <time>2010-12-12T14:00:28Z</time>
      </trkpt>
      <trkpt lat="43.5037" lon="6.87417">
        <ele>409.18</ele>
        <time>2010-12-12T14:00:30Z</time>
      </trkpt>
      <trkpt lat="43.50366" lon="6.87422">
        <ele>407.74</ele>
        <time>2010-12-12T14:00:38Z</time>
      </trkpt>
      <trkpt lat="43.50364" lon="6.87417">
        <ele>406.77</ele>
        <time>2010-12-12T14:00:43Z</time>
      </trkpt>
      <trkpt lat="43.50361" lon="6.874">
        <ele>403.89</ele>
        <time>2010-12-12T14:00:59Z</time>
      </trkpt>
      <trkpt lat="43.5036" lon="6.87398">
        <ele>403.41</ele>
        <time>2010-12-12T14:01:01Z</time>
      </trkpt>
      <trkpt lat="43.50357" lon="6.8739">
        <ele>401.97</ele>
        <time>2010-12-12T14:01:08Z</time>
      </trkpt>
      <trkpt lat="43.50351" lon="6.87373">
        <ele>399.57</ele>
        <time>2010-12-12T14:01:24Z</time>
      </trkpt>
      <trkpt lat="43.50351" lon="6.87373">
        <ele>399.08</ele>
        <time>2010-12-12T14:01:45Z</time>
      </trkpt>
      <trkpt lat="43.5035" lon="6.87373">
        <ele>399.08</ele>
        <time>2010-12-12T14:02:06Z</time>
      </trkpt>
      <trkpt lat="43.5035" lon="6.87367">
        <ele>398.6</ele>
        <time>2010-12-12T14:02:22Z</time>
      </trkpt>
      <trkpt lat="43.50349" lon="6.8736">
        <ele>398.12</ele>
        <time>2010-12-12T14:02:26Z</time>
      </trkpt>
      <trkpt lat="43.50345" lon="6.87352">
        <ele>396.68</ele>
        <time>2010-12-12T14:02:32Z</time>
      </trkpt>
      <trkpt lat="43.50334" lon="6.87332">
        <ele>394.28</ele>
        <time>2010-12-12T14:02:50Z</time>
      </trkpt>
      <trkpt lat="43.50325" lon="6.87348">
        <ele>390.91</ele>
        <time>2010-12-12T14:03:04Z</time>
      </trkpt>
      <trkpt lat="43.50324" lon="6.87364">
        <ele>388.51</ele>
        <time>2010-12-12T14:03:21Z</time>
      </trkpt>
      <trkpt lat="43.5032" lon="6.87375">
        <ele>387.55</ele>
        <time>2010-12-12T14:03:39Z</time>
      </trkpt>
      <trkpt lat="43.5032" lon="6.87375">
        <ele>387.55</ele>
        <time>2010-12-12T14:03:59Z</time>
      </trkpt>
      <trkpt lat="43.5032" lon="6.87375">
        <ele>387.07</ele>
        <time>2010-12-12T14:04:30Z</time>
      </trkpt>
      <trkpt lat="43.50321" lon="6.87376">
        <ele>387.07</ele>
        <time>2010-12-12T14:05:07Z</time>
      </trkpt>
      <trkpt lat="43.5032" lon="6.87383">
        <ele>386.11</ele>
        <time>2010-12-12T14:05:34Z</time>
      </trkpt>
      <trkpt lat="43.50318" lon="6.874">
        <ele>384.18</ele>
        <time>2010-12-12T14:05:47Z</time>
      </trkpt>
      <trkpt lat="43.50311" lon="6.87418">
        <ele>382.74</ele>
        <time>2010-12-12T14:06:01Z</time>
      </trkpt>
      <trkpt lat="43.50304" lon="6.8744">
        <ele>381.3</ele>
        <time>2010-12-12T14:06:18Z</time>
      </trkpt>
      <trkpt lat="43.50298" lon="6.87471">
        <ele>379.38</ele>
        <time>2010-12-12T14:06:34Z</time>
      </trkpt>
      <trkpt lat="43.50298" lon="6.87494">
        <ele>377.94</ele>
        <time>2010-12-12T14:06:47Z</time>
      </trkpt>
      <trkpt lat="43.50298" lon="6.87507">
        <ele>377.45</ele>
        <time>2010-12-12T14:06:55Z</time>
      </trkpt>
      <trkpt lat="43.50299" lon="6.87531">
        <ele>375.53</ele>
        <time>2010-12-12T14:07:11Z</time>
      </trkpt>
      <trkpt lat="43.50301" lon="6.87548">
        <ele>373.13</ele>
        <time>2010-12-12T14:07:24Z</time>
      </trkpt>
      <trkpt lat="43.50301" lon="6.8755">
        <ele>373.13</ele>
        <time>2010-12-12T14:07:25Z</time>
      </trkpt>
      <trkpt lat="43.50302" lon="6.87554">
        <ele>372.65</ele>
        <time>2010-12-12T14:07:29Z</time>
      </trkpt>
      <trkpt lat="43.50302" lon="6.87559">
        <ele>372.17</ele>
        <time>2010-12-12T14:07:33Z</time>
      </trkpt>
      <trkpt lat="43.50301" lon="6.87583">
        <ele>368.8</ele>
        <time>2010-12-12T14:07:50Z</time>
      </trkpt>
      <trkpt lat="43.50297" lon="6.87604">
        <ele>365.44</ele>
        <time>2010-12-12T14:08:09Z</time>
      </trkpt>
      <trkpt lat="43.50294" lon="6.87625">
        <ele>362.55</ele>
        <time>2010-12-12T14:08:26Z</time>
      </trkpt>
      <trkpt lat="43.50288" lon="6.87648">
        <ele>360.15</ele>
        <time>2010-12-12T14:08:43Z</time>
      </trkpt>
      <trkpt lat="43.50281" lon="6.87668">
        <ele>356.79</ele>
        <time>2010-12-12T14:09:00Z</time>
      </trkpt>
      <trkpt lat="43.5028" lon="6.87673">
        <ele>356.31</ele>
        <time>2010-12-12T14:09:06Z</time>
      </trkpt>
      <trkpt lat="43.50279" lon="6.87676">
        <ele>355.83</ele>
        <time>2010-12-12T14:09:09Z</time>
      </trkpt>
      <trkpt lat="43.50271" lon="6.87698">
        <ele>352.94</ele>
        <time>2010-12-12T14:09:27Z</time>
      </trkpt>
      <trkpt lat="43.50265" lon="6.87717">
        <ele>350.54</ele>
        <time>2010-12-12T14:09:44Z</time>
      </trkpt>
      <trkpt lat="43.50256" lon="6.8774">
        <ele>347.65</ele>
        <time>2010-12-12T14:10:02Z</time>
      </trkpt>
      <trkpt lat="43.50246" lon="6.87759">
        <ele>344.29</ele>
        <time>2010-12-12T14:10:17Z</time>
      </trkpt>
      <trkpt lat="43.50232" lon="6.87776">
        <ele>342.37</ele>
        <time>2010-12-12T14:10:32Z</time>
      </trkpt>
      <trkpt lat="43.50222" lon="6.87788">
        <ele>339.96</ele>
        <time>2010-12-12T14:10:45Z</time>
      </trkpt>
      <trkpt lat="43.50219" lon="6.87791">
        <ele>339.48</ele>
        <time>2010-12-12T14:10:49Z</time>
      </trkpt>
      <trkpt lat="43.50208" lon="6.87805">
        <ele>336.6</ele>
        <time>2010-12-12T14:11:02Z</time>
      </trkpt>
      <trkpt lat="43.50207" lon="6.87806">
        <ele>336.6</ele>
        <time>2010-12-12T14:11:03Z</time>
      </trkpt>
      <trkpt lat="43.502" lon="6.87818">
        <ele>334.68</ele>
        <time>2010-12-12T14:11:13Z</time>
      </trkpt>
      <trkpt lat="43.50194" lon="6.87831">
        <ele>333.71</ele>
        <time>2010-12-12T14:11:22Z</time>
      </trkpt>
      <trkpt lat="43.50187" lon="6.87837">
        <ele>331.79</ele>
        <time>2010-12-12T14:11:30Z</time>
      </trkpt>
      <trkpt lat="43.50182" lon="6.8784">
        <ele>330.35</ele>
        <time>2010-12-12T14:11:36Z</time>
      </trkpt>
      <trkpt lat="43.50179" lon="6.87848">
        <ele>329.87</ele>
        <time>2010-12-12T14:11:43Z</time>
      </trkpt>
      <trkpt lat="43.50171" lon="6.8786">
        <ele>327.95</ele>
        <time>2010-12-12T14:11:56Z</time>
      </trkpt>
      <trkpt lat="43.50169" lon="6.87862">
        <ele>327.95</ele>
        <time>2010-12-12T14:12:01Z</time>
      </trkpt>
      <trkpt lat="43.50165" lon="6.87867">
        <ele>326.5</ele>
        <time>2010-12-12T14:12:08Z</time>
      </trkpt>
      <trkpt lat="43.50164" lon="6.87871">
        <ele>326.02</ele>
        <time>2010-12-12T14:12:11Z</time>
      </trkpt>
      <trkpt lat="43.5016" lon="6.87881">
        <ele>325.54</ele>
        <time>2010-12-12T14:12:19Z</time>
      </trkpt>
      <trkpt lat="43.50151" lon="6.879">
        <ele>323.62</ele>
        <time>2010-12-12T14:12:34Z</time>
      </trkpt>
      <trkpt lat="43.50145" lon="6.87906">
        <ele>322.66</ele>
        <time>2010-12-12T14:12:41Z</time>
      </trkpt>
      <trkpt lat="43.50142" lon="6.8791">
        <ele>322.18</ele>
        <time>2010-12-12T14:12:46Z</time>
      </trkpt>
      <trkpt lat="43.50138" lon="6.87917">
        <ele>320.74</ele>
        <time>2010-12-12T14:12:52Z</time>
      </trkpt>
      <trkpt lat="43.50133" lon="6.87941">
        <ele>318.81</ele>
        <time>2010-12-12T14:13:08Z</time>
      </trkpt>
      <trkpt lat="43.50132" lon="6.87943">
        <ele>318.81</ele>
        <time>2010-12-12T14:13:14Z</time>
      </trkpt>
      <trkpt lat="43.50131" lon="6.87949">
        <ele>317.85</ele>
        <time>2010-12-12T14:13:20Z</time>
      </trkpt>
      <trkpt lat="43.50128" lon="6.87963">
        <ele>315.93</ele>
        <time>2010-12-12T14:13:33Z</time>
      </trkpt>
      <trkpt lat="43.50126" lon="6.87983">
        <ele>314.49</ele>
        <time>2010-12-12T14:13:46Z</time>
      </trkpt>
      <trkpt lat="43.50127" lon="6.88009">
        <ele>313.53</ele>
        <time>2010-12-12T14:14:02Z</time>
      </trkpt>
      <trkpt lat="43.50129" lon="6.88018">
        <ele>313.05</ele>
        <time>2010-12-12T14:14:16Z</time>
      </trkpt>
      <trkpt lat="43.50132" lon="6.88033">
        <ele>312.09</ele>
        <time>2010-12-12T14:14:29Z</time>
      </trkpt>
      <trkpt lat="43.50133" lon="6.88036">
        <ele>312.57</ele>
        <time>2010-12-12T14:14:31Z</time>
      </trkpt>
      <trkpt lat="43.50134" lon="6.88038">
        <ele>312.09</ele>
        <time>2010-12-12T14:14:33Z</time>
      </trkpt>
      <trkpt lat="43.50135" lon="6.88043">
        <ele>312.09</ele>
        <time>2010-12-12T14:14:36Z</time>
      </trkpt>
      <trkpt lat="43.50137" lon="6.88055">
        <ele>311.6</ele>
        <time>2010-12-12T14:14:44Z</time>
      </trkpt>
      <trkpt lat="43.5014" lon="6.88072">
        <ele>310.16</ele>
        <time>2010-12-12T14:14:59Z</time>
      </trkpt>
      <trkpt lat="43.5014" lon="6.88074">
        <ele>310.16</ele>
        <time>2010-12-12T14:15:01Z</time>
      </trkpt>
      <trkpt lat="43.50134" lon="6.88083">
        <ele>310.16</ele>
        <time>2010-12-12T14:15:12Z</time>
      </trkpt>
      <trkpt lat="43.50132" lon="6.88087">
        <ele>309.68</ele>
        <time>2010-12-12T14:15:15Z</time>
      </trkpt>
      <trkpt lat="43.50132" lon="6.88091">
        <ele>309.68</ele>
        <time>2010-12-12T14:15:18Z</time>
      </trkpt>
      <trkpt lat="43.50125" lon="6.88113">
        <ele>308.72</ele>
        <time>2010-12-12T14:15:34Z</time>
      </trkpt>
      <trkpt lat="43.50121" lon="6.88129">
        <ele>308.72</ele>
        <time>2010-12-12T14:15:48Z</time>
      </trkpt>
      <trkpt lat="43.50119" lon="6.8813">
        <ele>307.76</ele>
        <time>2010-12-12T14:16:04Z</time>
      </trkpt>
      <trkpt lat="43.50119" lon="6.88132">
        <ele>308.24</ele>
        <time>2010-12-12T14:16:11Z</time>
      </trkpt>
      <trkpt lat="43.50119" lon="6.88135">
        <ele>308.24</ele>
        <time>2010-12-12T14:16:27Z</time>
      </trkpt>
      <trkpt lat="43.50118" lon="6.88136">
        <ele>308.24</ele>
        <time>2010-12-12T14:16:47Z</time>
      </trkpt>
      <trkpt lat="43.50118" lon="6.88136">
        <ele>307.76</ele>
        <time>2010-12-12T14:17:12Z</time>
      </trkpt>
      <trkpt lat="43.50118" lon="6.88138">
        <ele>307.28</ele>
        <time>2010-12-12T14:17:21Z</time>
      </trkpt>
      <trkpt lat="43.5012" lon="6.88141">
        <ele>307.76</ele>
        <time>2010-12-12T14:17:33Z</time>
      </trkpt>
      <trkpt lat="43.50123" lon="6.88152">
        <ele>307.76</ele>
        <time>2010-12-12T14:17:50Z</time>
      </trkpt>
      <trkpt lat="43.50126" lon="6.88153">
        <ele>307.76</ele>
        <time>2010-12-12T14:18:11Z</time>
      </trkpt>
      <trkpt lat="43.5013" lon="6.88156">
        <ele>307.76</ele>
        <time>2010-12-12T14:18:35Z</time>
      </trkpt>
      <trkpt lat="43.50139" lon="6.88166">
        <ele>307.28</ele>
        <time>2010-12-12T14:18:52Z</time>
      </trkpt>
      <trkpt lat="43.50139" lon="6.88167">
        <ele>307.28</ele>
        <time>2010-12-12T14:19:15Z</time>
      </trkpt>
      <trkpt lat="43.5014" lon="6.88168">
        <ele>307.28</ele>
        <time>2010-12-12T14:19:40Z</time>
      </trkpt>
      <trkpt lat="43.5014" lon="6.88169">
        <ele>306.8</ele>
        <time>2010-12-12T14:20:00Z</time>
      </trkpt>
      <trkpt lat="43.5014" lon="6.88169">
        <ele>306.8</ele>
        <time>2010-12-12T14:20:24Z</time>
      </trkpt>
      <trkpt lat="43.50143" lon="6.88169">
        <ele>307.28</ele>
        <time>2010-12-12T14:20:40Z</time>
      </trkpt>
      <trkpt lat="43.50143" lon="6.88169">
        <ele>306.8</ele>
        <time>2010-12-12T14:21:04Z</time>
      </trkpt>
      <trkpt lat="43.50143" lon="6.88168">
        <ele>307.28</ele>
        <time>2010-12-12T14:21:30Z</time>
      </trkpt>
      <trkpt lat="43.50143" lon="6.88168">
        <ele>307.76</ele>
        <time>2010-12-12T14:21:51Z</time>
      </trkpt>
      <trkpt lat="43.50143" lon="6.88169">
        <ele>307.28</ele>
        <time>2010-12-12T14:22:14Z</time>
      </trkpt>
      <trkpt lat="43.50143" lon="6.88176">
        <ele>307.28</ele>
        <time>2010-12-12T14:22:31Z</time>
      </trkpt>
      <trkpt lat="43.50145" lon="6.88185">
        <ele>307.28</ele>
        <time>2010-12-12T14:22:47Z</time>
      </trkpt>
      <trkpt lat="43.50146" lon="6.88187">
        <ele>307.28</ele>
        <time>2010-12-12T14:22:59Z</time>
      </trkpt>
      <trkpt lat="43.50148" lon="6.88202">
        <ele>306.8</ele>
        <time>2010-12-12T14:23:11Z</time>
      </trkpt>
      <trkpt lat="43.5016" lon="6.88224">
        <ele>305.84</ele>
        <time>2010-12-12T14:23:27Z</time>
      </trkpt>
      <trkpt lat="43.50165" lon="6.88229">
        <ele>306.32</ele>
        <time>2010-12-12T14:23:43Z</time>
      </trkpt>
      <trkpt lat="43.50166" lon="6.88229">
        <ele>305.84</ele>
        <time>2010-12-12T14:24:09Z</time>
      </trkpt>
      <trkpt lat="43.50173" lon="6.88233">
        <ele>305.84</ele>
        <time>2010-12-12T14:24:24Z</time>
      </trkpt>
      <trkpt lat="43.50193" lon="6.8824">
        <ele>305.84</ele>
        <time>2010-12-12T14:24:43Z</time>
      </trkpt>
      <trkpt lat="43.50212" lon="6.88254">
        <ele>305.36</ele>
        <time>2010-12-12T14:24:59Z</time>
      </trkpt>
      <trkpt lat="43.50219" lon="6.88261">
        <ele>305.36</ele>
        <time>2010-12-12T14:25:06Z</time>
      </trkpt>
      <trkpt lat="43.50223" lon="6.88267">
        <ele>304.88</ele>
        <time>2010-12-12T14:25:11Z</time>
      </trkpt>
      <trkpt lat="43.50232" lon="6.88295">
        <ele>304.88</ele>
        <time>2010-12-12T14:25:29Z</time>
      </trkpt>
      <trkpt lat="43.50238" lon="6.88319">
        <ele>303.91</ele>
        <time>2010-12-12T14:25:45Z</time>
      </trkpt>
      <trkpt lat="43.50246" lon="6.88346">
        <ele>302.95</ele>
        <time>2010-12-12T14:26:02Z</time>
      </trkpt>
      <trkpt lat="43.50253" lon="6.88366">
        <ele>302.47</ele>
        <time>2010-12-12T14:26:16Z</time>
      </trkpt>
      <trkpt lat="43.50255" lon="6.88376">
        <ele>304.39</ele>
        <time>2010-12-12T14:26:22Z</time>
      </trkpt>
      <trkpt lat="43.50256" lon="6.88378">
        <ele>302.95</ele>
        <time>2010-12-12T14:26:24Z</time>
      </trkpt>
      <trkpt lat="43.50243" lon="6.88388">
        <ele>302.95</ele>
        <time>2010-12-12T14:26:40Z</time>
      </trkpt>
      <trkpt lat="43.50238" lon="6.88391">
        <ele>301.03</ele>
        <time>2010-12-12T14:26:56Z</time>
      </trkpt>
      <trkpt lat="43.50236" lon="6.88395">
        <ele>300.07</ele>
        <time>2010-12-12T14:27:16Z</time>
      </trkpt>
      <trkpt lat="43.50233" lon="6.88412">
        <ele>298.15</ele>
        <time>2010-12-12T14:27:31Z</time>
      </trkpt>
      <trkpt lat="43.50231" lon="6.88416">
        <ele>296.7</ele>
        <time>2010-12-12T14:27:34Z</time>
      </trkpt>
      <trkpt lat="43.50229" lon="6.88434">
        <ele>296.7</ele>
        <time>2010-12-12T14:27:48Z</time>
      </trkpt>
      <trkpt lat="43.50223" lon="6.88446">
        <ele>294.3</ele>
        <time>2010-12-12T14:28:04Z</time>
      </trkpt>
      <trkpt lat="43.50216" lon="6.88457">
        <ele>292.86</ele>
        <time>2010-12-12T14:28:20Z</time>
      </trkpt>
      <trkpt lat="43.50211" lon="6.88468">
        <ele>291.42</ele>
        <time>2010-12-12T14:28:34Z</time>
      </trkpt>
      <trkpt lat="43.50206" lon="6.8848">
        <ele>288.53</ele>
        <time>2010-12-12T14:28:51Z</time>
      </trkpt>
      <trkpt lat="43.50197" lon="6.88486">
        <ele>286.61</ele>
        <time>2010-12-12T14:29:07Z</time>
      </trkpt>
      <trkpt lat="43.50186" lon="6.88499">
        <ele>283.25</ele>
        <time>2010-12-12T14:29:25Z</time>
      </trkpt>
      <trkpt lat="43.50174" lon="6.88509">
        <ele>280.84</ele>
        <time>2010-12-12T14:29:44Z</time>
      </trkpt>
      <trkpt lat="43.50164" lon="6.88514">
        <ele>279.88</ele>
        <time>2010-12-12T14:30:01Z</time>
      </trkpt>
      <trkpt lat="43.50155" lon="6.88513">
        <ele>277.96</ele>
        <time>2010-12-12T14:30:17Z</time>
      </trkpt>
      <trkpt lat="43.50147" lon="6.88508">
        <ele>276.04</ele>
        <time>2010-12-12T14:30:34Z</time>
      </trkpt>
      <trkpt lat="43.50135" lon="6.88503">
        <ele>274.59</ele>
        <time>2010-12-12T14:30:49Z</time>
      </trkpt>
      <trkpt lat="43.50127" lon="6.88488">
        <ele>272.19</ele>
        <time>2010-12-12T14:31:08Z</time>
      </trkpt>
      <trkpt lat="43.50123" lon="6.88483">
        <ele>270.75</ele>
        <time>2010-12-12T14:31:16Z</time>
      </trkpt>
      <trkpt lat="43.50112" lon="6.88474">
        <ele>268.83</ele>
        <time>2010-12-12T14:31:31Z</time>
      </trkpt>
      <trkpt lat="43.50101" lon="6.88464">
        <ele>266.42</ele>
        <time>2010-12-12T14:31:49Z</time>
      </trkpt>
      <trkpt lat="43.50095" lon="6.88458">
        <ele>265.46</ele>
        <time>2010-12-12T14:32:05Z</time>
      </trkpt>
      <trkpt lat="43.50086" lon="6.88451">
        <ele>263.06</ele>
        <time>2010-12-12T14:32:21Z</time>
      </trkpt>
      <trkpt lat="43.50074" lon="6.88447">
        <ele>261.62</ele>
        <time>2010-12-12T14:32:36Z</time>
      </trkpt>
      <trkpt lat="43.50065" lon="6.88445">
        <ele>259.69</ele>
        <time>2010-12-12T14:32:49Z</time>
      </trkpt>
      <trkpt lat="43.50051" lon="6.88439">
        <ele>257.77</ele>
        <time>2010-12-12T14:33:04Z</time>
      </trkpt>
      <trkpt lat="43.5004" lon="6.88438">
        <ele>254.89</ele>
        <time>2010-12-12T14:33:20Z</time>
      </trkpt>
      <trkpt lat="43.50026" lon="6.88439">
        <ele>252.48</ele>
        <time>2010-12-12T14:33:37Z</time>
      </trkpt>
      <trkpt lat="43.50012" lon="6.88443">
        <ele>249.6</ele>
        <time>2010-12-12T14:33:55Z</time>
      </trkpt>
      <trkpt lat="43.5" lon="6.88446">
        <ele>247.68</ele>
        <time>2010-12-12T14:34:10Z</time>
      </trkpt>
      <trkpt lat="43.49991" lon="6.88457">
        <ele>245.27</ele>
        <time>2010-12-12T14:34:27Z</time>
      </trkpt>
      <trkpt lat="43.49983" lon="6.88468">
        <ele>243.35</ele>
        <time>2010-12-12T14:34:43Z</time>
      </trkpt>
      <trkpt lat="43.49973" lon="6.8847">
        <ele>241.91</ele>
        <time>2010-12-12T14:34:58Z</time>
      </trkpt>
      <trkpt lat="43.49963" lon="6.88467">
        <ele>239.99</ele>
        <time>2010-12-12T14:35:11Z</time>
      </trkpt>
      <trkpt lat="43.49954" lon="6.88469">
        <ele>238.54</ele>
        <time>2010-12-12T14:35:25Z</time>
      </trkpt>
      <trkpt lat="43.49947" lon="6.88471">
        <ele>236.62</ele>
        <time>2010-12-12T14:35:39Z</time>
      </trkpt>
      <trkpt lat="43.49936" lon="6.88471">
        <ele>234.7</ele>
        <time>2010-12-12T14:35:53Z</time>
      </trkpt>
      <trkpt lat="43.49926" lon="6.8847">
        <ele>232.3</ele>
        <time>2010-12-12T14:36:09Z</time>
      </trkpt>
      <trkpt lat="43.49921" lon="6.88466">
        <ele>230.85</ele>
        <time>2010-12-12T14:36:21Z</time>
      </trkpt>
      <trkpt lat="43.49908" lon="6.88458">
        <ele>228.93</ele>
        <time>2010-12-12T14:36:36Z</time>
      </trkpt>
      <trkpt lat="43.49897" lon="6.88459">
        <ele>226.05</ele>
        <time>2010-12-12T14:36:52Z</time>
      </trkpt>
      <trkpt lat="43.4989" lon="6.88457">
        <ele>224.61</ele>
        <time>2010-12-12T14:37:02Z</time>
      </trkpt>
      <trkpt lat="43.49881" lon="6.88456">
        <ele>222.68</ele>
        <time>2010-12-12T14:37:14Z</time>
      </trkpt>
      <trkpt lat="43.49873" lon="6.88457">
        <ele>221.24</ele>
        <time>2010-12-12T14:37:25Z</time>
      </trkpt>
      <trkpt lat="43.49871" lon="6.88458">
        <ele>221.24</ele>
        <time>2010-12-12T14:37:28Z</time>
      </trkpt>
      <trkpt lat="43.49863" lon="6.88457">
        <ele>218.84</ele>
        <time>2010-12-12T14:37:41Z</time>
      </trkpt>
      <trkpt lat="43.49852" lon="6.88456">
        <ele>216.91</ele>
        <time>2010-12-12T14:37:55Z</time>
      </trkpt>
      <trkpt lat="43.49846" lon="6.88451">
        <ele>215.47</ele>
        <time>2010-12-12T14:38:10Z</time>
      </trkpt>
      <trkpt lat="43.49835" lon="6.88448">
        <ele>213.07</ele>
        <time>2010-12-12T14:38:25Z</time>
      </trkpt>
      <trkpt lat="43.49824" lon="6.88441">
        <ele>211.15</ele>
        <time>2010-12-12T14:38:42Z</time>
      </trkpt>
      <trkpt lat="43.4982" lon="6.8844">
        <ele>210.19</ele>
        <time>2010-12-12T14:38:48Z</time>
      </trkpt>
      <trkpt lat="43.49812" lon="6.88435">
        <ele>208.74</ele>
        <time>2010-12-12T14:39:02Z</time>
      </trkpt>
      <trkpt lat="43.4981" lon="6.88436">
        <ele>208.74</ele>
        <time>2010-12-12T14:39:05Z</time>
      </trkpt>
      <trkpt lat="43.49799" lon="6.8843">
        <ele>206.34</ele>
        <time>2010-12-12T14:39:18Z</time>
      </trkpt>
      <trkpt lat="43.4979" lon="6.88426">
        <ele>204.9</ele>
        <time>2010-12-12T14:39:31Z</time>
      </trkpt>
      <trkpt lat="43.49783" lon="6.88427">
        <ele>203.94</ele>
        <time>2010-12-12T14:39:44Z</time>
      </trkpt>
      <trkpt lat="43.49781" lon="6.88428">
        <ele>202.98</ele>
        <time>2010-12-12T14:39:46Z</time>
      </trkpt>
      <trkpt lat="43.49772" lon="6.88429">
        <ele>201.53</ele>
        <time>2010-12-12T14:39:59Z</time>
      </trkpt>
      <trkpt lat="43.49761" lon="6.88424">
        <ele>199.61</ele>
        <time>2010-12-12T14:40:17Z</time>
      </trkpt>
      <trkpt lat="43.49752" lon="6.88427">
        <ele>198.17</ele>
        <time>2010-12-12T14:40:30Z</time>
      </trkpt>
      <trkpt lat="43.49736" lon="6.88424">
        <ele>195.77</ele>
        <time>2010-12-12T14:40:49Z</time>
      </trkpt>
      <trkpt lat="43.49726" lon="6.8842">
        <ele>193.36</ele>
        <time>2010-12-12T14:41:05Z</time>
      </trkpt>
      <trkpt lat="43.49716" lon="6.8841">
        <ele>191.44</ele>
        <time>2010-12-12T14:41:23Z</time>
      </trkpt>
      <trkpt lat="43.49712" lon="6.88404">
        <ele>190.48</ele>
        <time>2010-12-12T14:41:28Z</time>
      </trkpt>
      <trkpt lat="43.49706" lon="6.88393">
        <ele>189.04</ele>
        <time>2010-12-12T14:41:40Z</time>
      </trkpt>
      <trkpt lat="43.49691" lon="6.88383">
        <ele>185.67</ele>
        <time>2010-12-12T14:41:59Z</time>
      </trkpt>
      <trkpt lat="43.49689" lon="6.88383">
        <ele>185.67</ele>
        <time>2010-12-12T14:42:02Z</time>
      </trkpt>
      <trkpt lat="43.49687" lon="6.88382">
        <ele>185.19</ele>
        <time>2010-12-12T14:42:04Z</time>
      </trkpt>
      <trkpt lat="43.49674" lon="6.88375">
        <ele>182.79</ele>
        <time>2010-12-12T14:42:22Z</time>
      </trkpt>
      <trkpt lat="43.49659" lon="6.8837">
        <ele>179.42</ele>
        <time>2010-12-12T14:42:40Z</time>
      </trkpt>
      <trkpt lat="43.49647" lon="6.8836">
        <ele>177.02</ele>
        <time>2010-12-12T14:42:58Z</time>
      </trkpt>
      <trkpt lat="43.49635" lon="6.88354">
        <ele>174.14</ele>
        <time>2010-12-12T14:43:14Z</time>
      </trkpt>
      <trkpt lat="43.49623" lon="6.88347">
        <ele>171.73</ele>
        <time>2010-12-12T14:43:30Z</time>
      </trkpt>
      <trkpt lat="43.49612" lon="6.88342">
        <ele>168.85</ele>
        <time>2010-12-12T14:43:47Z</time>
      </trkpt>
      <trkpt lat="43.49601" lon="6.8833">
        <ele>166.93</ele>
        <time>2010-12-12T14:44:04Z</time>
      </trkpt>
      <trkpt lat="43.49588" lon="6.88324">
        <ele>163.56</ele>
        <time>2010-12-12T14:44:21Z</time>
      </trkpt>
      <trkpt lat="43.4958" lon="6.8832">
        <ele>161.16</ele>
        <time>2010-12-12T14:44:38Z</time>
      </trkpt>
      <trkpt lat="43.49566" lon="6.88314">
        <ele>158.27</ele>
        <time>2010-12-12T14:44:56Z</time>
      </trkpt>
      <trkpt lat="43.49556" lon="6.88312">
        <ele>156.83</ele>
        <time>2010-12-12T14:45:10Z</time>
      </trkpt>
      <trkpt lat="43.49545" lon="6.88308">
        <ele>154.91</ele>
        <time>2010-12-12T14:45:28Z</time>
      </trkpt>
      <trkpt lat="43.49534" lon="6.88307">
        <ele>152.51</ele>
        <time>2010-12-12T14:45:41Z</time>
      </trkpt>
      <trkpt lat="43.49529" lon="6.88304">
        <ele>151.06</ele>
        <time>2010-12-12T14:45:46Z</time>
      </trkpt>
      <trkpt lat="43.49516" lon="6.88292">
        <ele>149.14</ele>
        <time>2010-12-12T14:46:05Z</time>
      </trkpt>
      <trkpt lat="43.49505" lon="6.88285">
        <ele>147.22</ele>
        <time>2010-12-12T14:46:21Z</time>
      </trkpt>
      <trkpt lat="43.49494" lon="6.88279">
        <ele>145.3</ele>
        <time>2010-12-12T14:46:38Z</time>
      </trkpt>
      <trkpt lat="43.49493" lon="6.88279">
        <ele>144.82</ele>
        <time>2010-12-12T14:46:40Z</time>
      </trkpt>
      <trkpt lat="43.49491" lon="6.88278">
        <ele>144.82</ele>
        <time>2010-12-12T14:46:43Z</time>
      </trkpt>
      <trkpt lat="43.49486" lon="6.88274">
        <ele>143.85</ele>
        <time>2010-12-12T14:46:53Z</time>
      </trkpt>
      <trkpt lat="43.49484" lon="6.88276">
        <ele>142.89</ele>
        <time>2010-12-12T14:46:55Z</time>
      </trkpt>
      <trkpt lat="43.49471" lon="6.88277">
        <ele>141.45</ele>
        <time>2010-12-12T14:47:12Z</time>
      </trkpt>
      <trkpt lat="43.49468" lon="6.88273">
        <ele>140.97</ele>
        <time>2010-12-12T14:47:26Z</time>
      </trkpt>
      <trkpt lat="43.49461" lon="6.88272">
        <ele>139.05</ele>
        <time>2010-12-12T14:47:43Z</time>
      </trkpt>
      <trkpt lat="43.4946" lon="6.88272">
        <ele>138.57</ele>
        <time>2010-12-12T14:47:58Z</time>
      </trkpt>
      <trkpt lat="43.49449" lon="6.88278">
        <ele>137.13</ele>
        <time>2010-12-12T14:48:13Z</time>
      </trkpt>
      <trkpt lat="43.49442" lon="6.88268">
        <ele>134.24</ele>
        <time>2010-12-12T14:48:29Z</time>
      </trkpt>
      <trkpt lat="43.49438" lon="6.88265">
        <ele>132.8</ele>
        <time>2010-12-12T14:48:38Z</time>
      </trkpt>
      <trkpt lat="43.49434" lon="6.88262">
        <ele>132.32</ele>
        <time>2010-12-12T14:48:46Z</time>
      </trkpt>
      <trkpt lat="43.4942" lon="6.88258">
        <ele>128.95</ele>
        <time>2010-12-12T14:49:04Z</time>
      </trkpt>
      <trkpt lat="43.49413" lon="6.88253">
        <ele>128.47</ele>
        <time>2010-12-12T14:49:13Z</time>
      </trkpt>
      <trkpt lat="43.49405" lon="6.8825">
        <ele>126.55</ele>
        <time>2010-12-12T14:49:29Z</time>
      </trkpt>
      <trkpt lat="43.49403" lon="6.88249">
        <ele>126.07</ele>
        <time>2010-12-12T14:49:32Z</time>
      </trkpt>
      <trkpt lat="43.494" lon="6.88246">
        <ele>125.11</ele>
        <time>2010-12-12T14:49:52Z</time>
      </trkpt>
      <trkpt lat="43.49397" lon="6.88247">
        <ele>124.63</ele>
        <time>2010-12-12T14:50:09Z</time>
      </trkpt>
      <trkpt lat="43.49397" lon="6.88247">
        <ele>124.63</ele>
        <time>2010-12-12T14:50:11Z</time>
      </trkpt>
      <trkpt lat="43.49394" lon="6.88245">
        <ele>124.63</ele>
        <time>2010-12-12T14:50:31Z</time>
      </trkpt>
      <trkpt lat="43.49394" lon="6.88245">
        <ele>124.63</ele>
        <time>2010-12-12T14:50:53Z</time>
      </trkpt>
      <trkpt lat="43.49394" lon="6.88245">
        <ele>124.63</ele>
        <time>2010-12-12T14:50:54Z</time>
      </trkpt>
      <trkpt lat="43.49392" lon="6.88247">
        <ele>124.63</ele>
        <time>2010-12-12T14:51:20Z</time>
      </trkpt>
      <trkpt lat="43.49392" lon="6.88247">
        <ele>124.15</ele>
        <time>2010-12-12T14:51:43Z</time>
      </trkpt>
      <trkpt lat="43.49386" lon="6.88241">
        <ele>125.11</ele>
        <time>2010-12-12T14:51:52Z</time>
      </trkpt>
      <trkpt lat="43.49379" lon="6.88242">
        <ele>125.11</ele>
        <time>2010-12-12T14:52:16Z</time>
      </trkpt>
      <trkpt lat="43.49378" lon="6.88235">
        <ele>125.59</ele>
        <time>2010-12-12T14:52:27Z</time>
      </trkpt>
      <trkpt lat="43.49368" lon="6.88217">
        <ele>125.11</ele>
        <time>2010-12-12T14:52:42Z</time>
      </trkpt>
      <trkpt lat="43.49357" lon="6.88227">
        <ele>123.19</ele>
        <time>2010-12-12T14:52:58Z</time>
      </trkpt>
      <trkpt lat="43.49339" lon="6.88237">
        <ele>121.74</ele>
        <time>2010-12-12T14:53:16Z</time>
      </trkpt>
      <trkpt lat="43.49327" lon="6.88242">
        <ele>120.3</ele>
        <time>2010-12-12T14:53:30Z</time>
      </trkpt>
      <trkpt lat="43.49311" lon="6.88247">
        <ele>118.86</ele>
        <time>2010-12-12T14:53:49Z</time>
      </trkpt>
      <trkpt lat="43.49297" lon="6.88247">
        <ele>118.38</ele>
        <time>2010-12-12T14:54:05Z</time>
      </trkpt>
      <trkpt lat="43.49283" lon="6.88247">
        <ele>117.9</ele>
        <time>2010-12-12T14:54:19Z</time>
      </trkpt>
      <trkpt lat="43.49271" lon="6.88243">
        <ele>117.9</ele>
        <time>2010-12-12T14:54:30Z</time>
      </trkpt>
      <trkpt lat="43.49261" lon="6.88239">
        <ele>116.46</ele>
        <time>2010-12-12T14:54:47Z</time>
      </trkpt>
      <trkpt lat="43.49257" lon="6.88245">
        <ele>115.98</ele>
        <time>2010-12-12T14:55:04Z</time>
      </trkpt>
      <trkpt lat="43.49256" lon="6.88246">
        <ele>115.5</ele>
        <time>2010-12-12T14:55:05Z</time>
      </trkpt>
      <trkpt lat="43.49244" lon="6.88255">
        <ele>117.42</ele>
        <time>2010-12-12T14:55:21Z</time>
      </trkpt>
      <trkpt lat="43.49242" lon="6.88257">
        <ele>116.94</ele>
        <time>2010-12-12T14:55:24Z</time>
      </trkpt>
      <trkpt lat="43.49231" lon="6.88271">
        <ele>117.42</ele>
        <time>2010-12-12T14:55:38Z</time>
      </trkpt>
      <trkpt lat="43.49223" lon="6.88276">
        <ele>117.42</ele>
        <time>2010-12-12T14:55:52Z</time>
      </trkpt>
      <trkpt lat="43.49204" lon="6.88283">
        <ele>119.34</ele>
        <time>2010-12-12T14:56:08Z</time>
      </trkpt>
      <trkpt lat="43.49187" lon="6.88283">
        <ele>119.34</ele>
        <time>2010-12-12T14:56:22Z</time>
      </trkpt>
      <trkpt lat="43.4918" lon="6.88284">
        <ele>119.34</ele>
        <time>2010-12-12T14:56:29Z</time>
      </trkpt>
      <trkpt lat="43.49163" lon="6.88278">
        <ele>117.9</ele>
        <time>2010-12-12T14:56:46Z</time>
      </trkpt>
      <trkpt lat="43.49151" lon="6.88272">
        <ele>115.5</ele>
        <time>2010-12-12T14:57:03Z</time>
      </trkpt>
      <trkpt lat="43.49149" lon="6.88271">
        <ele>118.86</ele>
        <time>2010-12-12T14:57:04Z</time>
      </trkpt>
      <trkpt lat="43.49141" lon="6.88264">
        <ele>115.98</ele>
        <time>2010-12-12T14:57:18Z</time>
      </trkpt>
      <trkpt lat="43.49121" lon="6.88252">
        <ele>115.01</ele>
        <time>2010-12-12T14:57:37Z</time>
      </trkpt>
      <trkpt lat="43.49107" lon="6.88239">
        <ele>114.53</ele>
        <time>2010-12-12T14:57:54Z</time>
      </trkpt>
      <trkpt lat="43.4909" lon="6.88231">
        <ele>114.53</ele>
        <time>2010-12-12T14:58:10Z</time>
      </trkpt>
      <trkpt lat="43.4908" lon="6.88226">
        <ele>114.05</ele>
        <time>2010-12-12T14:58:20Z</time>
      </trkpt>
      <trkpt lat="43.49078" lon="6.88225">
        <ele>114.05</ele>
        <time>2010-12-12T14:58:22Z</time>
      </trkpt>
      <trkpt lat="43.49062" lon="6.88219">
        <ele>114.53</ele>
        <time>2010-12-12T14:58:35Z</time>
      </trkpt>
      <trkpt lat="43.49046" lon="6.88214">
        <ele>113.57</ele>
        <time>2010-12-12T14:58:51Z</time>
      </trkpt>
      <trkpt lat="43.49042" lon="6.8821">
        <ele>114.05</ele>
        <time>2010-12-12T14:58:55Z</time>
      </trkpt>
      <trkpt lat="43.49025" lon="6.88198">
        <ele>112.61</ele>
        <time>2010-12-12T14:59:11Z</time>
      </trkpt>
      <trkpt lat="43.49023" lon="6.88197">
        <ele>112.13</ele>
        <time>2010-12-12T14:59:13Z</time>
      </trkpt>
      <trkpt lat="43.49007" lon="6.88196">
        <ele>111.17</ele>
        <time>2010-12-12T14:59:28Z</time>
      </trkpt>
      <trkpt lat="43.48993" lon="6.88194">
        <ele>109.73</ele>
        <time>2010-12-12T14:59:44Z</time>
      </trkpt>
      <trkpt lat="43.48986" lon="6.88191">
        <ele>108.29</ele>
        <time>2010-12-12T14:59:53Z</time>
      </trkpt>
      <trkpt lat="43.48982" lon="6.88188">
        <ele>108.29</ele>
        <time>2010-12-12T14:59:58Z</time>
      </trkpt>
      <trkpt lat="43.48965" lon="6.88183">
        <ele>106.84</ele>
        <time>2010-12-12T15:00:13Z</time>
      </trkpt>
      <trkpt lat="43.48952" lon="6.88187">
        <ele>105.88</ele>
        <time>2010-12-12T15:00:29Z</time>
      </trkpt>
      <trkpt lat="43.4895" lon="6.88188">
        <ele>105.4</ele>
        <time>2010-12-12T15:00:31Z</time>
      </trkpt>
      <trkpt lat="43.48934" lon="6.88196">
        <ele>103.96</ele>
        <time>2010-12-12T15:00:49Z</time>
      </trkpt>
      <trkpt lat="43.48933" lon="6.88197">
        <ele>103.48</ele>
        <time>2010-12-12T15:00:50Z</time>
      </trkpt>
      <trkpt lat="43.48922" lon="6.88207">
        <ele>102.04</ele>
        <time>2010-12-12T15:01:06Z</time>
      </trkpt>
      <trkpt lat="43.48908" lon="6.8822">
        <ele>101.08</ele>
        <time>2010-12-12T15:01:23Z</time>
      </trkpt>
      <trkpt lat="43.48903" lon="6.88224">
        <ele>101.08</ele>
        <time>2010-12-12T15:01:30Z</time>
      </trkpt>
      <trkpt lat="43.489" lon="6.88227">
        <ele>100.11</ele>
        <time>2010-12-12T15:01:33Z</time>
      </trkpt>
      <trkpt lat="43.48883" lon="6.88242">
        <ele>99.15</ele>
        <time>2010-12-12T15:01:56Z</time>
      </trkpt>
      <trkpt lat="43.48882" lon="6.88242">
        <ele>99.15</ele>
        <time>2010-12-12T15:01:57Z</time>
      </trkpt>
      <trkpt lat="43.48879" lon="6.88239">
        <ele>99.15</ele>
        <time>2010-12-12T15:02:00Z</time>
      </trkpt>
      <trkpt lat="43.48865" lon="6.88234">
        <ele>99.15</ele>
        <time>2010-12-12T15:02:18Z</time>
      </trkpt>
      <trkpt lat="43.48849" lon="6.88231">
        <ele>99.63</ele>
        <time>2010-12-12T15:02:33Z</time>
      </trkpt>
      <trkpt lat="43.48827" lon="6.88228">
        <ele>100.6</ele>
        <time>2010-12-12T15:02:52Z</time>
      </trkpt>
      <trkpt lat="43.4881" lon="6.88219">
        <ele>99.63</ele>
        <time>2010-12-12T15:03:11Z</time>
      </trkpt>
      <trkpt lat="43.48804" lon="6.88218">
        <ele>99.15</ele>
        <time>2010-12-12T15:03:17Z</time>
      </trkpt>
      <trkpt lat="43.48785" lon="6.88205">
        <ele>98.67</ele>
        <time>2010-12-12T15:03:37Z</time>
      </trkpt>
      <trkpt lat="43.48768" lon="6.88195">
        <ele>97.71</ele>
        <time>2010-12-12T15:03:55Z</time>
      </trkpt>
      <trkpt lat="43.48751" lon="6.88182">
        <ele>97.23</ele>
        <time>2010-12-12T15:04:13Z</time>
      </trkpt>
      <trkpt lat="43.48733" lon="6.88179">
        <ele>95.79</ele>
        <time>2010-12-12T15:04:30Z</time>
      </trkpt>
      <trkpt lat="43.48716" lon="6.88175">
        <ele>95.79</ele>
        <time>2010-12-12T15:04:46Z</time>
      </trkpt>
      <trkpt lat="43.487" lon="6.88172">
        <ele>94.35</ele>
        <time>2010-12-12T15:05:01Z</time>
      </trkpt>
      <trkpt lat="43.48684" lon="6.8817">
        <ele>94.35</ele>
        <time>2010-12-12T15:05:15Z</time>
      </trkpt>
      <trkpt lat="43.48668" lon="6.88173">
        <ele>93.39</ele>
        <time>2010-12-12T15:05:30Z</time>
      </trkpt>
      <trkpt lat="43.48653" lon="6.88178">
        <ele>93.39</ele>
        <time>2010-12-12T15:05:44Z</time>
      </trkpt>
      <trkpt lat="43.48646" lon="6.88178">
        <ele>92.9</ele>
        <time>2010-12-12T15:05:58Z</time>
      </trkpt>
      <trkpt lat="43.48644" lon="6.88183">
        <ele>92.9</ele>
        <time>2010-12-12T15:06:02Z</time>
      </trkpt>
      <trkpt lat="43.48627" lon="6.88195">
        <ele>92.42</ele>
        <time>2010-12-12T15:06:19Z</time>
      </trkpt>
      <trkpt lat="43.48622" lon="6.88196">
        <ele>92.42</ele>
        <time>2010-12-12T15:06:24Z</time>
      </trkpt>
      <trkpt lat="43.48617" lon="6.88194">
        <ele>92.42</ele>
        <time>2010-12-12T15:06:28Z</time>
      </trkpt>
      <trkpt lat="43.48598" lon="6.88194">
        <ele>90.98</ele>
        <time>2010-12-12T15:06:45Z</time>
      </trkpt>
      <trkpt lat="43.48576" lon="6.88203">
        <ele>90.98</ele>
        <time>2010-12-12T15:07:07Z</time>
      </trkpt>
      <trkpt lat="43.48564" lon="6.88215">
        <ele>90.5</ele>
        <time>2010-12-12T15:07:20Z</time>
      </trkpt>
      <trkpt lat="43.48551" lon="6.88228">
        <ele>89.06</ele>
        <time>2010-12-12T15:07:37Z</time>
      </trkpt>
      <trkpt lat="43.48539" lon="6.88242">
        <ele>88.58</ele>
        <time>2010-12-12T15:07:56Z</time>
      </trkpt>
      <trkpt lat="43.48526" lon="6.88257">
        <ele>88.58</ele>
        <time>2010-12-12T15:08:13Z</time>
      </trkpt>
      <trkpt lat="43.48517" lon="6.88271">
        <ele>87.62</ele>
        <time>2010-12-12T15:08:25Z</time>
      </trkpt>
      <trkpt lat="43.48499" lon="6.88282">
        <ele>87.14</ele>
        <time>2010-12-12T15:08:42Z</time>
      </trkpt>
      <trkpt lat="43.48482" lon="6.88296">
        <ele>86.66</ele>
        <time>2010-12-12T15:09:00Z</time>
      </trkpt>
      <trkpt lat="43.48473" lon="6.88299">
        <ele>86.18</ele>
        <time>2010-12-12T15:09:07Z</time>
      </trkpt>
      <trkpt lat="43.48457" lon="6.88299">
        <ele>85.69</ele>
        <time>2010-12-12T15:09:21Z</time>
      </trkpt>
      <trkpt lat="43.48442" lon="6.88302">
        <ele>85.69</ele>
        <time>2010-12-12T15:09:34Z</time>
      </trkpt>
      <trkpt lat="43.48425" lon="6.88313">
        <ele>84.73</ele>
        <time>2010-12-12T15:09:50Z</time>
      </trkpt>
      <trkpt lat="43.48412" lon="6.88321">
        <ele>83.77</ele>
        <time>2010-12-12T15:10:02Z</time>
      </trkpt>
      <trkpt lat="43.48399" lon="6.88324">
        <ele>82.81</ele>
        <time>2010-12-12T15:10:14Z</time>
      </trkpt>
      <trkpt lat="43.48381" lon="6.88333">
        <ele>82.33</ele>
        <time>2010-12-12T15:10:31Z</time>
      </trkpt>
      <trkpt lat="43.48364" lon="6.88345">
        <ele>81.37</ele>
        <time>2010-12-12T15:10:47Z</time>
      </trkpt>
      <trkpt lat="43.48348" lon="6.88358">
        <ele>80.41</ele>
        <time>2010-12-12T15:11:02Z</time>
      </trkpt>
      <trkpt lat="43.48332" lon="6.8837">
        <ele>79.93</ele>
        <time>2010-12-12T15:11:17Z</time>
      </trkpt>
      <trkpt lat="43.48317" lon="6.88379">
        <ele>79.93</ele>
        <time>2010-12-12T15:11:30Z</time>
      </trkpt>
      <trkpt lat="43.48301" lon="6.88388">
        <ele>78.97</ele>
        <time>2010-12-12T15:11:45Z</time>
      </trkpt>
      <trkpt lat="43.48282" lon="6.88395">
        <ele>79.93</ele>
        <time>2010-12-12T15:12:00Z</time>
      </trkpt>
      <trkpt lat="43.48267" lon="6.88397">
        <ele>79.93</ele>
        <time>2010-12-12T15:12:13Z</time>
      </trkpt>
      <trkpt lat="43.4825" lon="6.88401">
        <ele>79.45</ele>
        <time>2010-12-12T15:12:28Z</time>
      </trkpt>
      <trkpt lat="43.48237" lon="6.88405">
        <ele>78.48</ele>
        <time>2010-12-12T15:12:42Z</time>
      </trkpt>
      <trkpt lat="43.48234" lon="6.88407">
        <ele>78.48</ele>
        <time>2010-12-12T15:12:53Z</time>
      </trkpt>
      <trkpt lat="43.48233" lon="6.88409">
        <ele>78.48</ele>
        <time>2010-12-12T15:12:55Z</time>
      </trkpt>
      <trkpt lat="43.48216" lon="6.88411">
        <ele>77.52</ele>
        <time>2010-12-12T15:13:14Z</time>
      </trkpt>
      <trkpt lat="43.48205" lon="6.88409">
        <ele>77.04</ele>
        <time>2010-12-12T15:13:31Z</time>
      </trkpt>
      <trkpt lat="43.48201" lon="6.88409">
        <ele>76.56</ele>
        <time>2010-12-12T15:13:35Z</time>
      </trkpt>
      <trkpt lat="43.48193" lon="6.88408">
        <ele>76.08</ele>
        <time>2010-12-12T15:13:41Z</time>
      </trkpt>
      <trkpt lat="43.48187" lon="6.88408">
        <ele>76.08</ele>
        <time>2010-12-12T15:13:45Z</time>
      </trkpt>
      <trkpt lat="43.48182" lon="6.88409">
        <ele>76.08</ele>
        <time>2010-12-12T15:13:51Z</time>
      </trkpt>
      <trkpt lat="43.48164" lon="6.88415">
        <ele>74.16</ele>
        <time>2010-12-12T15:14:08Z</time>
      </trkpt>
      <trkpt lat="43.48148" lon="6.88424">
        <ele>72.72</ele>
        <time>2010-12-12T15:14:25Z</time>
      </trkpt>
      <trkpt lat="43.48127" lon="6.88438">
        <ele>70.79</ele>
        <time>2010-12-12T15:14:46Z</time>
      </trkpt>
      <trkpt lat="43.48115" lon="6.88454">
        <ele>69.83</ele>
        <time>2010-12-12T15:15:04Z</time>
      </trkpt>
      <trkpt lat="43.48107" lon="6.88459">
        <ele>68.87</ele>
        <time>2010-12-12T15:15:11Z</time>
      </trkpt>
      <trkpt lat="43.48099" lon="6.8846">
        <ele>69.35</ele>
        <time>2010-12-12T15:15:24Z</time>
      </trkpt>
      <trkpt lat="43.48086" lon="6.88469">
        <ele>71.27</ele>
        <time>2010-12-12T15:15:40Z</time>
      </trkpt>
      <trkpt lat="43.48068" lon="6.88485">
        <ele>72.24</ele>
        <time>2010-12-12T15:15:59Z</time>
      </trkpt>
      <trkpt lat="43.48045" lon="6.88492">
        <ele>71.27</ele>
        <time>2010-12-12T15:16:16Z</time>
      </trkpt>
      <trkpt lat="43.48028" lon="6.88502">
        <ele>70.79</ele>
        <time>2010-12-12T15:16:32Z</time>
      </trkpt>
      <trkpt lat="43.4802" lon="6.88509">
        <ele>70.31</ele>
        <time>2010-12-12T15:16:40Z</time>
      </trkpt>
      <trkpt lat="43.47998" lon="6.88524">
        <ele>69.83</ele>
        <time>2010-12-12T15:17:00Z</time>
      </trkpt>
      <trkpt lat="43.47984" lon="6.88533">
        <ele>70.31</ele>
        <time>2010-12-12T15:17:16Z</time>
      </trkpt>
      <trkpt lat="43.47967" lon="6.8854">
        <ele>70.79</ele>
        <time>2010-12-12T15:17:33Z</time>
      </trkpt>
      <trkpt lat="43.47954" lon="6.88552">
        <ele>70.31</ele>
        <time>2010-12-12T15:17:47Z</time>
      </trkpt>
      <trkpt lat="43.47944" lon="6.88561">
        <ele>71.27</ele>
        <time>2010-12-12T15:18:00Z</time>
      </trkpt>
      <trkpt lat="43.4794" lon="6.88563">
        <ele>70.79</ele>
        <time>2010-12-12T15:18:05Z</time>
      </trkpt>
      <trkpt lat="43.47933" lon="6.88567">
        <ele>69.83</ele>
        <time>2010-12-12T15:18:20Z</time>
      </trkpt>
      <trkpt lat="43.47932" lon="6.88571">
        <ele>69.83</ele>
        <time>2010-12-12T15:18:35Z</time>
      </trkpt>
      <trkpt lat="43.4793" lon="6.88578">
        <ele>68.87</ele>
        <time>2010-12-12T15:18:39Z</time>
      </trkpt>
      <trkpt lat="43.47931" lon="6.88581">
        <ele>69.35</ele>
        <time>2010-12-12T15:18:51Z</time>
      </trkpt>
      <trkpt lat="43.4793" lon="6.88567">
        <ele>70.31</ele>
        <time>2010-12-12T15:19:02Z</time>
      </trkpt>
      <trkpt lat="43.47912" lon="6.88559">
        <ele>71.76</ele>
        <time>2010-12-12T15:19:19Z</time>
      </trkpt>
      <trkpt lat="43.47892" lon="6.88561">
        <ele>72.72</ele>
        <time>2010-12-12T15:19:37Z</time>
      </trkpt>
      <trkpt lat="43.47891" lon="6.88562">
        <ele>72.72</ele>
        <time>2010-12-12T15:19:39Z</time>
      </trkpt>
      <trkpt lat="43.47874" lon="6.88569">
        <ele>73.68</ele>
        <time>2010-12-12T15:19:58Z</time>
      </trkpt>
      <trkpt lat="43.4787" lon="6.8857">
        <ele>74.16</ele>
        <time>2010-12-12T15:20:15Z</time>
      </trkpt>
      <trkpt lat="43.4787" lon="6.8857">
        <ele>73.68</ele>
        <time>2010-12-12T15:20:39Z</time>
      </trkpt>
      <trkpt lat="43.4787" lon="6.8857">
        <ele>74.16</ele>
        <time>2010-12-12T15:21:11Z</time>
      </trkpt>
      <trkpt lat="43.4787" lon="6.8857">
        <ele>74.16</ele>
        <time>2010-12-12T15:21:47Z</time>
      </trkpt>
      <trkpt lat="43.4787" lon="6.8857">
        <ele>74.64</ele>
        <time>2010-12-12T15:22:20Z</time>
      </trkpt>
      <trkpt lat="43.4787" lon="6.8857">
        <ele>75.12</ele>
        <time>2010-12-12T15:22:55Z</time>
      </trkpt>
      <trkpt lat="43.4787" lon="6.8857">
        <ele>74.16</ele>
        <time>2010-12-12T15:23:24Z</time>
      </trkpt>
      <trkpt lat="43.4787" lon="6.8857">
        <ele>74.64</ele>
        <time>2010-12-12T15:23:51Z</time>
      </trkpt>
      <trkpt lat="43.47868" lon="6.88572">
        <ele>74.64</ele>
        <time>2010-12-12T15:24:20Z</time>
      </trkpt>
      <trkpt lat="43.47855" lon="6.8858">
        <ele>75.6</ele>
        <time>2010-12-12T15:24:36Z</time>
      </trkpt>
      <trkpt lat="43.47842" lon="6.88588">
        <ele>76.56</ele>
        <time>2010-12-12T15:24:52Z</time>
      </trkpt>
      <trkpt lat="43.4784" lon="6.88588">
        <ele>76.56</ele>
        <time>2010-12-12T15:24:54Z</time>
      </trkpt>
      <trkpt lat="43.47823" lon="6.88588">
        <ele>77.52</ele>
        <time>2010-12-12T15:25:11Z</time>
      </trkpt>
      <trkpt lat="43.4781" lon="6.88587">
        <ele>78</ele>
        <time>2010-12-12T15:25:25Z</time>
      </trkpt>
      <trkpt lat="43.47801" lon="6.88577">
        <ele>78</ele>
        <time>2010-12-12T15:25:40Z</time>
      </trkpt>
      <trkpt lat="43.47796" lon="6.88575">
        <ele>78</ele>
        <time>2010-12-12T15:25:47Z</time>
      </trkpt>
      <trkpt lat="43.47782" lon="6.88559">
        <ele>78.97</ele>
        <time>2010-12-12T15:26:04Z</time>
      </trkpt>
      <trkpt lat="43.47767" lon="6.88545">
        <ele>78.97</ele>
        <time>2010-12-12T15:26:20Z</time>
      </trkpt>
      <trkpt lat="43.47757" lon="6.88521">
        <ele>79.93</ele>
        <time>2010-12-12T15:26:37Z</time>
      </trkpt>
      <trkpt lat="43.47756" lon="6.88495">
        <ele>80.89</ele>
        <time>2010-12-12T15:26:54Z</time>
      </trkpt>
      <trkpt lat="43.47756" lon="6.88485">
        <ele>81.37</ele>
        <time>2010-12-12T15:27:00Z</time>
      </trkpt>
      <trkpt lat="43.47751" lon="6.88477">
        <ele>81.37</ele>
        <time>2010-12-12T15:27:04Z</time>
      </trkpt>
      <trkpt lat="43.47735" lon="6.88474">
        <ele>80.89</ele>
        <time>2010-12-12T15:27:16Z</time>
      </trkpt>
      <trkpt lat="43.47714" lon="6.88474">
        <ele>80.89</ele>
        <time>2010-12-12T15:27:32Z</time>
      </trkpt>
      <trkpt lat="43.47696" lon="6.88475">
        <ele>79.93</ele>
        <time>2010-12-12T15:27:48Z</time>
      </trkpt>
      <trkpt lat="43.47684" lon="6.88477">
        <ele>76.56</ele>
        <time>2010-12-12T15:27:59Z</time>
      </trkpt>
      <trkpt lat="43.47665" lon="6.88474">
        <ele>78</ele>
        <time>2010-12-12T15:28:14Z</time>
      </trkpt>
      <trkpt lat="43.47646" lon="6.88471">
        <ele>76.08</ele>
        <time>2010-12-12T15:28:31Z</time>
      </trkpt>
      <trkpt lat="43.4763" lon="6.88469">
        <ele>74.64</ele>
        <time>2010-12-12T15:28:45Z</time>
      </trkpt>
      <trkpt lat="43.47619" lon="6.88467">
        <ele>74.64</ele>
        <time>2010-12-12T15:28:58Z</time>
      </trkpt>
      <trkpt lat="43.47606" lon="6.88461">
        <ele>68.87</ele>
        <time>2010-12-12T15:29:10Z</time>
      </trkpt>
      <trkpt lat="43.47605" lon="6.8846">
        <ele>73.2</ele>
        <time>2010-12-12T15:29:11Z</time>
      </trkpt>
      <trkpt lat="43.47592" lon="6.88459">
        <ele>71.76</ele>
        <time>2010-12-12T15:29:28Z</time>
      </trkpt>
      <trkpt lat="43.47593" lon="6.88456">
        <ele>72.24</ele>
        <time>2010-12-12T15:29:33Z</time>
      </trkpt>
      <trkpt lat="43.47575" lon="6.88446">
        <ele>71.27</ele>
        <time>2010-12-12T15:29:50Z</time>
      </trkpt>
      <trkpt lat="43.47564" lon="6.88439">
        <ele>70.31</ele>
        <time>2010-12-12T15:30:00Z</time>
      </trkpt>
      <trkpt lat="43.4755" lon="6.88436">
        <ele>68.39</ele>
        <time>2010-12-12T15:30:12Z</time>
      </trkpt>
      <trkpt lat="43.47543" lon="6.88437">
        <ele>67.43</ele>
        <time>2010-12-12T15:30:17Z</time>
      </trkpt>
      <trkpt lat="43.47524" lon="6.88433">
        <ele>64.07</ele>
        <time>2010-12-12T15:30:32Z</time>
      </trkpt>
      <trkpt lat="43.47522" lon="6.88434">
        <ele>64.07</ele>
        <time>2010-12-12T15:30:34Z</time>
      </trkpt>
      <trkpt lat="43.47503" lon="6.88434">
        <ele>61.18</ele>
        <time>2010-12-12T15:30:50Z</time>
      </trkpt>
      <trkpt lat="43.4749" lon="6.88437">
        <ele>58.78</ele>
        <time>2010-12-12T15:31:05Z</time>
      </trkpt>
      <trkpt lat="43.47474" lon="6.88447">
        <ele>57.34</ele>
        <time>2010-12-12T15:31:20Z</time>
      </trkpt>
      <trkpt lat="43.47468" lon="6.88453">
        <ele>56.86</ele>
        <time>2010-12-12T15:31:26Z</time>
      </trkpt>
      <trkpt lat="43.47459" lon="6.88474">
        <ele>56.37</ele>
        <time>2010-12-12T15:31:45Z</time>
      </trkpt>
      <trkpt lat="43.47456" lon="6.88474">
        <ele>56.86</ele>
        <time>2010-12-12T15:31:57Z</time>
      </trkpt>
      <trkpt lat="43.47453" lon="6.88474">
        <ele>56.86</ele>
        <time>2010-12-12T15:32:00Z</time>
      </trkpt>
      <trkpt lat="43.4744" lon="6.88475">
        <ele>56.86</ele>
        <time>2010-12-12T15:32:09Z</time>
      </trkpt>
      <trkpt lat="43.47422" lon="6.88466">
        <ele>57.34</ele>
        <time>2010-12-12T15:32:26Z</time>
      </trkpt>
      <trkpt lat="43.47417" lon="6.8846">
        <ele>57.34</ele>
        <time>2010-12-12T15:32:33Z</time>
      </trkpt>
      <trkpt lat="43.47408" lon="6.88437">
        <ele>57.34</ele>
        <time>2010-12-12T15:32:52Z</time>
      </trkpt>
      <trkpt lat="43.47399" lon="6.88414">
        <ele>56.86</ele>
        <time>2010-12-12T15:33:08Z</time>
      </trkpt>
      <trkpt lat="43.47395" lon="6.88389">
        <ele>55.89</ele>
        <time>2010-12-12T15:33:25Z</time>
      </trkpt>
      <trkpt lat="43.47397" lon="6.88358">
        <ele>54.45</ele>
        <time>2010-12-12T15:33:43Z</time>
      </trkpt>
      <trkpt lat="43.47401" lon="6.88335">
        <ele>53.97</ele>
        <time>2010-12-12T15:33:58Z</time>
      </trkpt>
      <trkpt lat="43.47404" lon="6.8831">
        <ele>52.05</ele>
        <time>2010-12-12T15:34:15Z</time>
      </trkpt>
      <trkpt lat="43.47405" lon="6.88276">
        <ele>49.65</ele>
        <time>2010-12-12T15:34:34Z</time>
      </trkpt>
      <trkpt lat="43.47408" lon="6.88245">
        <ele>49.65</ele>
        <time>2010-12-12T15:34:53Z</time>
      </trkpt>
      <trkpt lat="43.47406" lon="6.88227">
        <ele>48.68</ele>
        <time>2010-12-12T15:35:06Z</time>
      </trkpt>
      <trkpt lat="43.474" lon="6.88218">
        <ele>48.2</ele>
        <time>2010-12-12T15:35:14Z</time>
      </trkpt>
      <trkpt lat="43.47388" lon="6.88206">
        <ele>47.72</ele>
        <time>2010-12-12T15:35:29Z</time>
      </trkpt>
      <trkpt lat="43.47388" lon="6.88205">
        <ele>47.72</ele>
        <time>2010-12-12T15:35:32Z</time>
      </trkpt>
      <trkpt lat="43.47383" lon="6.88203">
        <ele>47.72</ele>
        <time>2010-12-12T15:35:46Z</time>
      </trkpt>
      <trkpt lat="43.47383" lon="6.882">
        <ele>47.72</ele>
        <time>2010-12-12T15:35:59Z</time>
      </trkpt>
      <trkpt lat="43.47382" lon="6.88189">
        <ele>48.68</ele>
        <time>2010-12-12T15:36:13Z</time>
      </trkpt>
      <trkpt lat="43.47382" lon="6.88188">
        <ele>49.16</ele>
        <time>2010-12-12T15:36:14Z</time>
      </trkpt>
      <trkpt lat="43.47383" lon="6.88163">
        <ele>50.61</ele>
        <time>2010-12-12T15:36:33Z</time>
      </trkpt>
      <trkpt lat="43.47382" lon="6.88156">
        <ele>50.61</ele>
        <time>2010-12-12T15:36:38Z</time>
      </trkpt>
      <trkpt lat="43.4738" lon="6.88153">
        <ele>50.61</ele>
        <time>2010-12-12T15:36:42Z</time>
      </trkpt>
      <trkpt lat="43.47379" lon="6.88145">
        <ele>50.61</ele>
        <time>2010-12-12T15:36:55Z</time>
      </trkpt>
      <trkpt lat="43.47386" lon="6.88117">
        <ele>49.65</ele>
        <time>2010-12-12T15:37:13Z</time>
      </trkpt>
      <trkpt lat="43.47399" lon="6.88091">
        <ele>49.16</ele>
        <time>2010-12-12T15:37:31Z</time>
      </trkpt>
      <trkpt lat="43.474" lon="6.88085">
        <ele>49.65</ele>
        <time>2010-12-12T15:37:35Z</time>
      </trkpt>
      <trkpt lat="43.47398" lon="6.8806">
        <ele>49.65</ele>
        <time>2010-12-12T15:37:53Z</time>
      </trkpt>
      <trkpt lat="43.47391" lon="6.88031">
        <ele>49.16</ele>
        <time>2010-12-12T15:38:09Z</time>
      </trkpt>
      <trkpt lat="43.47373" lon="6.88016">
        <ele>48.68</ele>
        <time>2010-12-12T15:38:24Z</time>
      </trkpt>
      <trkpt lat="43.47355" lon="6.88014">
        <ele>47.72</ele>
        <time>2010-12-12T15:38:38Z</time>
      </trkpt>
      <trkpt lat="43.47339" lon="6.88027">
        <ele>46.76</ele>
        <time>2010-12-12T15:38:55Z</time>
      </trkpt>
      <trkpt lat="43.47324" lon="6.88042">
        <ele>45.8</ele>
        <time>2010-12-12T15:39:10Z</time>
      </trkpt>
      <trkpt lat="43.47315" lon="6.88069">
        <ele>45.8</ele>
        <time>2010-12-12T15:39:25Z</time>
      </trkpt>
      <trkpt lat="43.47305" lon="6.88089">
        <ele>45.8</ele>
        <time>2010-12-12T15:39:41Z</time>
      </trkpt>
      <trkpt lat="43.47289" lon="6.88097">
        <ele>45.8</ele>
        <time>2010-12-12T15:39:55Z</time>
      </trkpt>
      <trkpt lat="43.47274" lon="6.88096">
        <ele>45.8</ele>
        <time>2010-12-12T15:40:09Z</time>
      </trkpt>
      <trkpt lat="43.47254" lon="6.88084">
        <ele>46.76</ele>
        <time>2010-12-12T15:40:27Z</time>
      </trkpt>
      <trkpt lat="43.47244" lon="6.88064">
        <ele>47.24</ele>
        <time>2010-12-12T15:40:41Z</time>
      </trkpt>
      <trkpt lat="43.47252" lon="6.88038">
        <ele>46.76</ele>
        <time>2010-12-12T15:40:57Z</time>
      </trkpt>
      <trkpt lat="43.47255" lon="6.88022">
        <ele>46.76</ele>
        <time>2010-12-12T15:41:07Z</time>
      </trkpt>
      <trkpt lat="43.47256" lon="6.8801">
        <ele>46.28</ele>
        <time>2010-12-12T15:41:14Z</time>
      </trkpt>
      <trkpt lat="43.47255" lon="6.87995">
        <ele>45.32</ele>
        <time>2010-12-12T15:41:25Z</time>
      </trkpt>
      <trkpt lat="43.47256" lon="6.87985">
        <ele>45.32</ele>
        <time>2010-12-12T15:41:31Z</time>
      </trkpt>
      <trkpt lat="43.4725" lon="6.8796">
        <ele>44.84</ele>
        <time>2010-12-12T15:41:48Z</time>
      </trkpt>
      <trkpt lat="43.47239" lon="6.8794">
        <ele>44.36</ele>
        <time>2010-12-12T15:42:04Z</time>
      </trkpt>
      <trkpt lat="43.47229" lon="6.87915">
        <ele>42.92</ele>
        <time>2010-12-12T15:42:21Z</time>
      </trkpt>
      <trkpt lat="43.47229" lon="6.87889">
        <ele>42.44</ele>
        <time>2010-12-12T15:42:38Z</time>
      </trkpt>
      <trkpt lat="43.47231" lon="6.87875">
        <ele>41.95</ele>
        <time>2010-12-12T15:42:55Z</time>
      </trkpt>
      <trkpt lat="43.47232" lon="6.87871">
        <ele>42.44</ele>
        <time>2010-12-12T15:42:58Z</time>
      </trkpt>
      <trkpt lat="43.47216" lon="6.8785">
        <ele>42.44</ele>
        <time>2010-12-12T15:43:13Z</time>
      </trkpt>
      <trkpt lat="43.472" lon="6.87858">
        <ele>42.92</ele>
        <time>2010-12-12T15:43:28Z</time>
      </trkpt>
      <trkpt lat="43.47187" lon="6.87878">
        <ele>42.44</ele>
        <time>2010-12-12T15:43:43Z</time>
      </trkpt>
      <trkpt lat="43.47176" lon="6.87892">
        <ele>41.47</ele>
        <time>2010-12-12T15:43:59Z</time>
      </trkpt>
      <trkpt lat="43.47165" lon="6.87901">
        <ele>41.47</ele>
        <time>2010-12-12T15:44:14Z</time>
      </trkpt>
      <trkpt lat="43.47166" lon="6.87901">
        <ele>40.99</ele>
        <time>2010-12-12T15:44:38Z</time>
      </trkpt>
      <trkpt lat="43.47166" lon="6.87901">
        <ele>40.99</ele>
        <time>2010-12-12T15:45:06Z</time>
      </trkpt>
      <trkpt lat="43.47166" lon="6.87901">
        <ele>40.99</ele>
        <time>2010-12-12T15:45:23Z</time>
      </trkpt>
      <trkpt lat="43.4715" lon="6.879">
        <ele>40.99</ele>
        <time>2010-12-12T15:45:35Z</time>
      </trkpt>
      <trkpt lat="43.47138" lon="6.87912">
        <ele>41.47</ele>
        <time>2010-12-12T15:45:49Z</time>
      </trkpt>
      <trkpt lat="43.47129" lon="6.87932">
        <ele>41.95</ele>
        <time>2010-12-12T15:46:03Z</time>
      </trkpt>
      <trkpt lat="43.47126" lon="6.87938">
        <ele>41.95</ele>
        <time>2010-12-12T15:46:09Z</time>
      </trkpt>
      <trkpt lat="43.47122" lon="6.87943">
        <ele>42.92</ele>
        <time>2010-12-12T15:46:15Z</time>
      </trkpt>
      <trkpt lat="43.47109" lon="6.87957">
        <ele>43.4</ele>
        <time>2010-12-12T15:46:32Z</time>
      </trkpt>
      <trkpt lat="43.47095" lon="6.87971">
        <ele>43.88</ele>
        <time>2010-12-12T15:46:48Z</time>
      </trkpt>
      <trkpt lat="43.47076" lon="6.87983">
        <ele>43.88</ele>
        <time>2010-12-12T15:47:03Z</time>
      </trkpt>
      <trkpt lat="43.47057" lon="6.87988">
        <ele>42.92</ele>
        <time>2010-12-12T15:47:19Z</time>
      </trkpt>
      <trkpt lat="43.47047" lon="6.87986">
        <ele>43.4</ele>
        <time>2010-12-12T15:47:35Z</time>
      </trkpt>
      <trkpt lat="43.47047" lon="6.87985">
        <ele>43.88</ele>
        <time>2010-12-12T15:47:47Z</time>
      </trkpt>
      <trkpt lat="43.47039" lon="6.87974">
        <ele>44.36</ele>
        <time>2010-12-12T15:47:59Z</time>
      </trkpt>
      <trkpt lat="43.47039" lon="6.87967">
        <ele>44.36</ele>
        <time>2010-12-12T15:48:04Z</time>
      </trkpt>
      <trkpt lat="43.47038" lon="6.87965">
        <ele>44.36</ele>
        <time>2010-12-12T15:48:06Z</time>
      </trkpt>
      <trkpt lat="43.47031" lon="6.87943">
        <ele>43.88</ele>
        <time>2010-12-12T15:48:24Z</time>
      </trkpt>
      <trkpt lat="43.47019" lon="6.87917">
        <ele>43.4</ele>
        <time>2010-12-12T15:48:40Z</time>
      </trkpt>
      <trkpt lat="43.47" lon="6.87895">
        <ele>41.47</ele>
        <time>2010-12-12T15:48:55Z</time>
      </trkpt>
      <trkpt lat="43.46985" lon="6.87884">
        <ele>41.47</ele>
        <time>2010-12-12T15:49:09Z</time>
      </trkpt>
      <trkpt lat="43.46969" lon="6.87876">
        <ele>40.51</ele>
        <time>2010-12-12T15:49:24Z</time>
      </trkpt>
      <trkpt lat="43.46954" lon="6.87867">
        <ele>40.03</ele>
        <time>2010-12-12T15:49:39Z</time>
      </trkpt>
      <trkpt lat="43.46951" lon="6.87865">
        <ele>39.55</ele>
        <time>2010-12-12T15:49:41Z</time>
      </trkpt>
      <trkpt lat="43.46938" lon="6.87849">
        <ele>38.59</ele>
        <time>2010-12-12T15:49:57Z</time>
      </trkpt>
      <trkpt lat="43.46928" lon="6.87835">
        <ele>38.11</ele>
        <time>2010-12-12T15:50:12Z</time>
      </trkpt>
      <trkpt lat="43.4692" lon="6.87824">
        <ele>37.15</ele>
        <time>2010-12-12T15:50:21Z</time>
      </trkpt>
      <trkpt lat="43.46917" lon="6.87821">
        <ele>37.15</ele>
        <time>2010-12-12T15:50:24Z</time>
      </trkpt>
      <trkpt lat="43.46905" lon="6.87804">
        <ele>35.71</ele>
        <time>2010-12-12T15:50:38Z</time>
      </trkpt>
      <trkpt lat="43.46895" lon="6.87788">
        <ele>35.23</ele>
        <time>2010-12-12T15:50:51Z</time>
      </trkpt>
      <trkpt lat="43.46892" lon="6.87787">
        <ele>35.23</ele>
        <time>2010-12-12T15:50:55Z</time>
      </trkpt>
      <trkpt lat="43.46883" lon="6.87772">
        <ele>34.26</ele>
        <time>2010-12-12T15:51:07Z</time>
      </trkpt>
      <trkpt lat="43.46867" lon="6.87764">
        <ele>33.3</ele>
        <time>2010-12-12T15:51:22Z</time>
      </trkpt>
      <trkpt lat="43.46853" lon="6.87757">
        <ele>33.3</ele>
        <time>2010-12-12T15:51:36Z</time>
      </trkpt>
      <trkpt lat="43.46849" lon="6.87754">
        <ele>32.82</ele>
        <time>2010-12-12T15:51:40Z</time>
      </trkpt>
      <trkpt lat="43.46831" lon="6.87742">
        <ele>31.86</ele>
        <time>2010-12-12T15:51:57Z</time>
      </trkpt>
      <trkpt lat="43.46815" lon="6.87732">
        <ele>31.38</ele>
        <time>2010-12-12T15:52:13Z</time>
      </trkpt>
      <trkpt lat="43.46806" lon="6.87724">
        <ele>31.86</ele>
        <time>2010-12-12T15:52:26Z</time>
      </trkpt>
      <trkpt lat="43.46795" lon="6.87716">
        <ele>31.86</ele>
        <time>2010-12-12T15:52:35Z</time>
      </trkpt>
      <trkpt lat="43.46787" lon="6.87708">
        <ele>32.34</ele>
        <time>2010-12-12T15:52:48Z</time>
      </trkpt>
      <trkpt lat="43.46769" lon="6.87695">
        <ele>32.34</ele>
        <time>2010-12-12T15:53:03Z</time>
      </trkpt>
      <trkpt lat="43.46759" lon="6.87685">
        <ele>32.82</ele>
        <time>2010-12-12T15:53:17Z</time>
      </trkpt>
      <trkpt lat="43.46739" lon="6.87675">
        <ele>32.34</ele>
        <time>2010-12-12T15:53:34Z</time>
      </trkpt>
      <trkpt lat="43.46724" lon="6.87666">
        <ele>32.82</ele>
        <time>2010-12-12T15:53:48Z</time>
      </trkpt>
      <trkpt lat="43.46723" lon="6.87666">
        <ele>32.82</ele>
        <time>2010-12-12T15:53:49Z</time>
      </trkpt>
      <trkpt lat="43.46705" lon="6.87653">
        <ele>32.34</ele>
        <time>2010-12-12T15:54:04Z</time>
      </trkpt>
      <trkpt lat="43.46686" lon="6.87645">
        <ele>31.86</ele>
        <time>2010-12-12T15:54:19Z</time>
      </trkpt>
      <trkpt lat="43.46669" lon="6.87635">
        <ele>31.38</ele>
        <time>2010-12-12T15:54:32Z</time>
      </trkpt>
      <trkpt lat="43.46654" lon="6.87632">
        <ele>31.86</ele>
        <time>2010-12-12T15:54:46Z</time>
      </trkpt>
      <trkpt lat="43.46639" lon="6.87626">
        <ele>31.38</ele>
        <time>2010-12-12T15:55:02Z</time>
      </trkpt>
      <trkpt lat="43.46625" lon="6.87618">
        <ele>31.38</ele>
        <time>2010-12-12T15:55:16Z</time>
      </trkpt>
      <trkpt lat="43.4661" lon="6.8761">
        <ele>31.38</ele>
        <time>2010-12-12T15:55:32Z</time>
      </trkpt>
      <trkpt lat="43.46605" lon="6.87607">
        <ele>31.86</ele>
        <time>2010-12-12T15:55:36Z</time>
      </trkpt>
      <trkpt lat="43.46587" lon="6.87605">
        <ele>31.38</ele>
        <time>2010-12-12T15:55:50Z</time>
      </trkpt>
      <trkpt lat="43.46584" lon="6.87602">
        <ele>30.9</ele>
        <time>2010-12-12T15:55:54Z</time>
      </trkpt>
      <trkpt lat="43.46571" lon="6.87588">
        <ele>30.42</ele>
        <time>2010-12-12T15:56:11Z</time>
      </trkpt>
      <trkpt lat="43.46555" lon="6.87573">
        <ele>29.94</ele>
        <time>2010-12-12T15:56:26Z</time>
      </trkpt>
      <trkpt lat="43.46539" lon="6.87562">
        <ele>29.46</ele>
        <time>2010-12-12T15:56:41Z</time>
      </trkpt>
      <trkpt lat="43.46528" lon="6.87556">
        <ele>28.98</ele>
        <time>2010-12-12T15:56:51Z</time>
      </trkpt>
      <trkpt lat="43.46526" lon="6.87554">
        <ele>28.98</ele>
        <time>2010-12-12T15:56:53Z</time>
      </trkpt>
      <trkpt lat="43.46508" lon="6.87545">
        <ele>28.02</ele>
        <time>2010-12-12T15:57:09Z</time>
      </trkpt>
      <trkpt lat="43.46492" lon="6.8754">
        <ele>28.02</ele>
        <time>2010-12-12T15:57:22Z</time>
      </trkpt>
      <trkpt lat="43.46472" lon="6.8754">
        <ele>27.53</ele>
        <time>2010-12-12T15:57:39Z</time>
      </trkpt>
      <trkpt lat="43.46455" lon="6.87543">
        <ele>28.5</ele>
        <time>2010-12-12T15:57:55Z</time>
      </trkpt>
      <trkpt lat="43.46441" lon="6.87561">
        <ele>28.5</ele>
        <time>2010-12-12T15:58:10Z</time>
      </trkpt>
      <trkpt lat="43.46432" lon="6.87593">
        <ele>26.57</ele>
        <time>2010-12-12T15:58:28Z</time>
      </trkpt>
      <trkpt lat="43.46431" lon="6.87619">
        <ele>26.09</ele>
        <time>2010-12-12T15:58:41Z</time>
      </trkpt>
      <trkpt lat="43.46425" lon="6.87645">
        <ele>24.65</ele>
        <time>2010-12-12T15:58:57Z</time>
      </trkpt>
      <trkpt lat="43.46414" lon="6.8767">
        <ele>23.21</ele>
        <time>2010-12-12T15:59:15Z</time>
      </trkpt>
      <trkpt lat="43.46396" lon="6.87677">
        <ele>22.73</ele>
        <time>2010-12-12T15:59:30Z</time>
      </trkpt>
      <trkpt lat="43.46374" lon="6.87677">
        <ele>24.17</ele>
        <time>2010-12-12T15:59:46Z</time>
      </trkpt>
      <trkpt lat="43.46374" lon="6.87678">
        <ele>25.13</ele>
        <time>2010-12-12T15:59:55Z</time>
      </trkpt>
      <trkpt lat="43.46371" lon="6.87682">
        <ele>23.69</ele>
        <time>2010-12-12T15:59:58Z</time>
      </trkpt>
      <trkpt lat="43.46367" lon="6.87686">
        <ele>23.69</ele>
        <time>2010-12-12T16:00:02Z</time>
      </trkpt>
      <trkpt lat="43.46363" lon="6.87689">
        <ele>24.17</ele>
        <time>2010-12-12T16:00:05Z</time>
      </trkpt>
      <trkpt lat="43.46357" lon="6.8769">
        <ele>23.69</ele>
        <time>2010-12-12T16:00:10Z</time>
      </trkpt>
      <trkpt lat="43.4634" lon="6.87694">
        <ele>23.69</ele>
        <time>2010-12-12T16:00:24Z</time>
      </trkpt>
      <trkpt lat="43.46337" lon="6.87695">
        <ele>25.13</ele>
        <time>2010-12-12T16:00:26Z</time>
      </trkpt>
      <trkpt lat="43.46323" lon="6.87706">
        <ele>25.61</ele>
        <time>2010-12-12T16:00:40Z</time>
      </trkpt>
      <trkpt lat="43.46311" lon="6.87721">
        <ele>24.17</ele>
        <time>2010-12-12T16:00:54Z</time>
      </trkpt>
      <trkpt lat="43.46297" lon="6.87737">
        <ele>24.17</ele>
        <time>2010-12-12T16:01:08Z</time>
      </trkpt>
      <trkpt lat="43.46287" lon="6.87751">
        <ele>24.17</ele>
        <time>2010-12-12T16:01:20Z</time>
      </trkpt>
      <trkpt lat="43.46272" lon="6.87765">
        <ele>23.69</ele>
        <time>2010-12-12T16:01:35Z</time>
      </trkpt>
      <trkpt lat="43.46271" lon="6.87766">
        <ele>23.21</ele>
        <time>2010-12-12T16:01:37Z</time>
      </trkpt>
      <trkpt lat="43.46267" lon="6.87771">
        <ele>23.21</ele>
        <time>2010-12-12T16:01:42Z</time>
      </trkpt>
      <trkpt lat="43.46253" lon="6.87779">
        <ele>22.73</ele>
        <time>2010-12-12T16:01:55Z</time>
      </trkpt>
      <trkpt lat="43.46237" lon="6.87791">
        <ele>22.25</ele>
        <time>2010-12-12T16:02:07Z</time>
      </trkpt>
      <trkpt lat="43.46231" lon="6.87796">
        <ele>22.25</ele>
        <time>2010-12-12T16:02:13Z</time>
      </trkpt>
      <trkpt lat="43.4622" lon="6.87798">
        <ele>22.25</ele>
        <time>2010-12-12T16:02:22Z</time>
      </trkpt>
      <trkpt lat="43.46204" lon="6.87807">
        <ele>22.25</ele>
        <time>2010-12-12T16:02:37Z</time>
      </trkpt>
      <trkpt lat="43.46187" lon="6.87816">
        <ele>21.77</ele>
        <time>2010-12-12T16:02:52Z</time>
      </trkpt>
      <trkpt lat="43.46171" lon="6.87826">
        <ele>22.25</ele>
        <time>2010-12-12T16:03:07Z</time>
      </trkpt>
      <trkpt lat="43.46152" lon="6.87827">
        <ele>20.32</ele>
        <time>2010-12-12T16:03:22Z</time>
      </trkpt>
      <trkpt lat="43.46137" lon="6.87834">
        <ele>18.88</ele>
        <time>2010-12-12T16:03:36Z</time>
      </trkpt>
      <trkpt lat="43.46129" lon="6.87841">
        <ele>17.44</ele>
        <time>2010-12-12T16:03:43Z</time>
      </trkpt>
      <trkpt lat="43.46121" lon="6.87865">
        <ele>15.52</ele>
        <time>2010-12-12T16:03:59Z</time>
      </trkpt>
      <trkpt lat="43.46116" lon="6.87875">
        <ele>15.04</ele>
        <time>2010-12-12T16:04:05Z</time>
      </trkpt>
      <trkpt lat="43.46108" lon="6.87875">
        <ele>11.67</ele>
        <time>2010-12-12T16:04:10Z</time>
      </trkpt>
      <trkpt lat="43.46106" lon="6.87875">
        <ele>16</ele>
        <time>2010-12-12T16:04:11Z</time>
      </trkpt>
      <trkpt lat="43.46106" lon="6.87876">
        <ele>12.15</ele>
        <time>2010-12-12T16:04:12Z</time>
      </trkpt>
      <trkpt lat="43.46104" lon="6.87877">
        <ele>15.52</ele>
        <time>2010-12-12T16:04:14Z</time>
      </trkpt>
      <trkpt lat="43.4609" lon="6.87886">
        <ele>16</ele>
        <time>2010-12-12T16:04:32Z</time>
      </trkpt>
      <trkpt lat="43.46088" lon="6.87887">
        <ele>16</ele>
        <time>2010-12-12T16:04:43Z</time>
      </trkpt>
      <trkpt lat="43.46084" lon="6.87889">
        <ele>16</ele>
        <time>2010-12-12T16:04:46Z</time>
      </trkpt>
      <trkpt lat="43.46059" lon="6.87891">
        <ele>18.4</ele>
        <time>2010-12-12T16:05:08Z</time>
      </trkpt>
      <trkpt lat="43.46039" lon="6.87882">
        <ele>19.36</ele>
        <time>2010-12-12T16:05:29Z</time>
      </trkpt>
      <trkpt lat="43.4603" lon="6.8788">
        <ele>18.88</ele>
        <time>2010-12-12T16:05:49Z</time>
      </trkpt>
      <trkpt lat="43.4603" lon="6.8788">
        <ele>18.88</ele>
        <time>2010-12-12T16:06:20Z</time>
      </trkpt>
      <trkpt lat="43.4603" lon="6.8788">
        <ele>18.88</ele>
        <time>2010-12-12T16:06:50Z</time>
      </trkpt>
      <trkpt lat="43.4603" lon="6.8788">
        <ele>18.88</ele>
        <time>2010-12-12T16:07:17Z</time>
      </trkpt>
      <trkpt lat="43.4603" lon="6.8788">
        <ele>18.88</ele>
        <time>2010-12-12T16:07:50Z</time>
      </trkpt>
      <trkpt lat="43.4603" lon="6.8788">
        <ele>18.88</ele>
        <time>2010-12-12T16:08:22Z</time>
      </trkpt>
      <trkpt lat="43.4603" lon="6.8788">
        <ele>18.4</ele>
        <time>2010-12-12T16:08:54Z</time>
      </trkpt>
      <trkpt lat="43.4603" lon="6.8788">
        <ele>18.4</ele>
        <time>2010-12-12T16:09:14Z</time>
      </trkpt>
      <trkpt lat="43.46029" lon="6.87883">
        <ele>17.92</ele>
        <time>2010-12-12T16:09:38Z</time>
      </trkpt>
      <trkpt lat="43.46029" lon="6.87883">
        <ele>17.92</ele>
        <time>2010-12-12T16:10:04Z</time>
      </trkpt>
      <trkpt lat="43.46029" lon="6.87883">
        <ele>18.88</ele>
        <time>2010-12-12T16:10:29Z</time>
      </trkpt>
      <trkpt lat="43.4603" lon="6.87883">
        <ele>18.4</ele>
        <time>2010-12-12T16:10:56Z</time>
      </trkpt>
      <trkpt lat="43.4603" lon="6.87883">
        <ele>18.4</ele>
        <time>2010-12-12T16:11:20Z</time>
      </trkpt>
      <trkpt lat="43.46029" lon="6.87883">
        <ele>18.4</ele>
        <time>2010-12-12T16:11:52Z</time>
      </trkpt>
      <trkpt lat="43.4603" lon="6.87883">
        <ele>18.4</ele>
        <time>2010-12-12T16:12:22Z</time>
      </trkpt>
      <trkpt lat="43.4603" lon="6.87884">
        <ele>18.4</ele>
        <time>2010-12-12T16:12:51Z</time>
      </trkpt>
      <trkpt lat="43.4603" lon="6.87884">
        <ele>17.92</ele>
        <time>2010-12-12T16:13:21Z</time>
      </trkpt>
      <trkpt lat="43.4603" lon="6.87884">
        <ele>17.92</ele>
        <time>2010-12-12T16:13:54Z</time>
      </trkpt>
      <trkpt lat="43.4603" lon="6.87883">
        <ele>17.44</ele>
        <time>2010-12-12T16:14:08Z</time>
      </trkpt>
      <trkpt lat="43.46038" lon="6.87883">
        <ele>18.4</ele>
        <time>2010-12-12T16:14:16Z</time>
      </trkpt>
      <trkpt lat="43.46045" lon="6.8788">
        <ele>18.4</ele>
        <time>2010-12-12T16:14:24Z</time>
      </trkpt>
      <trkpt lat="43.46046" lon="6.87872">
        <ele>18.4</ele>
        <time>2010-12-12T16:14:31Z</time>
      </trkpt>
      <trkpt lat="43.46046" lon="6.8787">
        <ele>17.44</ele>
        <time>2010-12-12T16:14:33Z</time>
      </trkpt>
      <trkpt lat="43.46043" lon="6.87854">
        <ele>19.36</ele>
        <time>2010-12-12T16:14:45Z</time>
      </trkpt>
      <trkpt lat="43.46036" lon="6.8783">
        <ele>20.81</ele>
        <time>2010-12-12T16:15:02Z</time>
      </trkpt>
      <trkpt lat="43.46024" lon="6.87811">
        <ele>20.81</ele>
        <time>2010-12-12T16:15:19Z</time>
      </trkpt>
      <trkpt lat="43.46025" lon="6.87811">
        <ele>20.32</ele>
        <time>2010-12-12T16:15:36Z</time>
      </trkpt>
      <trkpt lat="43.46028" lon="6.8781">
        <ele>20.32</ele>
        <time>2010-12-12T16:15:54Z</time>
      </trkpt>
      <trkpt lat="43.46028" lon="6.8781">
        <ele>20.81</ele>
        <time>2010-12-12T16:16:18Z</time>
      </trkpt>
      <trkpt lat="43.46028" lon="6.8781">
        <ele>20.81</ele>
        <time>2010-12-12T16:16:46Z</time>
      </trkpt>
      <trkpt lat="43.46025" lon="6.87808">
        <ele>20.81</ele>
        <time>2010-12-12T16:16:56Z</time>
      </trkpt>
      <trkpt lat="43.46012" lon="6.87785">
        <ele>21.77</ele>
        <time>2010-12-12T16:17:13Z</time>
      </trkpt>
      <trkpt lat="43.46011" lon="6.87784">
        <ele>21.77</ele>
        <time>2010-12-12T16:17:14Z</time>
      </trkpt>
      <trkpt lat="43.46" lon="6.87765">
        <ele>22.25</ele>
        <time>2010-12-12T16:17:29Z</time>
      </trkpt>
      <trkpt lat="43.45996" lon="6.87759">
        <ele>22.73</ele>
        <time>2010-12-12T16:17:35Z</time>
      </trkpt>
      <trkpt lat="43.45985" lon="6.8774">
        <ele>23.21</ele>
        <time>2010-12-12T16:17:48Z</time>
      </trkpt>
      <trkpt lat="43.45974" lon="6.8772">
        <ele>23.69</ele>
        <time>2010-12-12T16:18:01Z</time>
      </trkpt>
      <trkpt lat="43.45966" lon="6.87701">
        <ele>24.17</ele>
        <time>2010-12-12T16:18:13Z</time>
      </trkpt>
      <trkpt lat="43.45956" lon="6.87684">
        <ele>25.13</ele>
        <time>2010-12-12T16:18:25Z</time>
      </trkpt>
      <trkpt lat="43.45944" lon="6.87669">
        <ele>25.13</ele>
        <time>2010-12-12T16:18:38Z</time>
      </trkpt>
      <trkpt lat="43.45943" lon="6.87668">
        <ele>25.61</ele>
        <time>2010-12-12T16:18:40Z</time>
      </trkpt>
      <trkpt lat="43.45932" lon="6.87652">
        <ele>26.09</ele>
        <time>2010-12-12T16:18:54Z</time>
      </trkpt>
      <trkpt lat="43.45928" lon="6.87638">
        <ele>27.05</ele>
        <time>2010-12-12T16:19:03Z</time>
      </trkpt>
      <trkpt lat="43.45919" lon="6.87618">
        <ele>27.05</ele>
        <time>2010-12-12T16:19:16Z</time>
      </trkpt>
      <trkpt lat="43.45907" lon="6.87602">
        <ele>28.02</ele>
        <time>2010-12-12T16:19:29Z</time>
      </trkpt>
      <trkpt lat="43.45895" lon="6.8759">
        <ele>28.98</ele>
        <time>2010-12-12T16:19:41Z</time>
      </trkpt>
      <trkpt lat="43.45876" lon="6.87584">
        <ele>28.5</ele>
        <time>2010-12-12T16:19:56Z</time>
      </trkpt>
      <trkpt lat="43.45863" lon="6.87579">
        <ele>29.46</ele>
        <time>2010-12-12T16:20:08Z</time>
      </trkpt>
      <trkpt lat="43.45844" lon="6.87574">
        <ele>29.94</ele>
        <time>2010-12-12T16:20:23Z</time>
      </trkpt>
      <trkpt lat="43.45841" lon="6.87574">
        <ele>29.94</ele>
        <time>2010-12-12T16:20:26Z</time>
      </trkpt>
      <trkpt lat="43.45828" lon="6.87566">
        <ele>30.42</ele>
        <time>2010-12-12T16:20:39Z</time>
      </trkpt>
      <trkpt lat="43.45817" lon="6.87552">
        <ele>31.38</ele>
        <time>2010-12-12T16:20:51Z</time>
      </trkpt>
      <trkpt lat="43.45807" lon="6.8754">
        <ele>31.86</ele>
        <time>2010-12-12T16:21:03Z</time>
      </trkpt>
      <trkpt lat="43.45802" lon="6.87532">
        <ele>32.34</ele>
        <time>2010-12-12T16:21:10Z</time>
      </trkpt>
      <trkpt lat="43.45794" lon="6.8751">
        <ele>32.34</ele>
        <time>2010-12-12T16:21:25Z</time>
      </trkpt>
      <trkpt lat="43.45788" lon="6.87492">
        <ele>32.82</ele>
        <time>2010-12-12T16:21:36Z</time>
      </trkpt>
      <trkpt lat="43.45783" lon="6.87472">
        <ele>33.78</ele>
        <time>2010-12-12T16:21:49Z</time>
      </trkpt>
      <trkpt lat="43.45781" lon="6.87467">
        <ele>33.78</ele>
        <time>2010-12-12T16:21:52Z</time>
      </trkpt>
      <trkpt lat="43.45774" lon="6.87448">
        <ele>34.74</ele>
        <time>2010-12-12T16:22:05Z</time>
      </trkpt>
      <trkpt lat="43.45771" lon="6.87436">
        <ele>35.23</ele>
        <time>2010-12-12T16:22:12Z</time>
      </trkpt>
      <trkpt lat="43.45763" lon="6.87417">
        <ele>34.74</ele>
        <time>2010-12-12T16:22:24Z</time>
      </trkpt>
      <trkpt lat="43.45756" lon="6.87399">
        <ele>35.23</ele>
        <time>2010-12-12T16:22:37Z</time>
      </trkpt>
      <trkpt lat="43.45751" lon="6.87377">
        <ele>36.19</ele>
        <time>2010-12-12T16:22:50Z</time>
      </trkpt>
      <trkpt lat="43.45743" lon="6.8736">
        <ele>36.67</ele>
        <time>2010-12-12T16:23:01Z</time>
      </trkpt>
      <trkpt lat="43.45741" lon="6.87358">
        <ele>37.15</ele>
        <time>2010-12-12T16:23:04Z</time>
      </trkpt>
      <trkpt lat="43.45734" lon="6.87354">
        <ele>37.15</ele>
        <time>2010-12-12T16:23:09Z</time>
      </trkpt>
      <trkpt lat="43.45723" lon="6.87351">
        <ele>37.15</ele>
        <time>2010-12-12T16:23:18Z</time>
      </trkpt>
      <trkpt lat="43.45703" lon="6.87343">
        <ele>37.63</ele>
        <time>2010-12-12T16:23:34Z</time>
      </trkpt>
      <trkpt lat="43.457" lon="6.8734">
        <ele>37.15</ele>
        <time>2010-12-12T16:23:38Z</time>
      </trkpt>
      <trkpt lat="43.45695" lon="6.87331">
        <ele>37.15</ele>
        <time>2010-12-12T16:23:44Z</time>
      </trkpt>
      <trkpt lat="43.45693" lon="6.87313">
        <ele>36.67</ele>
        <time>2010-12-12T16:23:54Z</time>
      </trkpt>
      <trkpt lat="43.45689" lon="6.87286">
        <ele>36.67</ele>
        <time>2010-12-12T16:24:08Z</time>
      </trkpt>
      <trkpt lat="43.45687" lon="6.87268">
        <ele>36.19</ele>
        <time>2010-12-12T16:24:19Z</time>
      </trkpt>
      <trkpt lat="43.45686" lon="6.87262">
        <ele>36.67</ele>
        <time>2010-12-12T16:24:33Z</time>
      </trkpt>
      <trkpt lat="43.45682" lon="6.87239">
        <ele>36.67</ele>
        <time>2010-12-12T16:24:46Z</time>
      </trkpt>
      <trkpt lat="43.45678" lon="6.87216">
        <ele>37.15</ele>
        <time>2010-12-12T16:24:59Z</time>
      </trkpt>
      <trkpt lat="43.45675" lon="6.87189">
        <ele>36.67</ele>
        <time>2010-12-12T16:25:13Z</time>
      </trkpt>
      <trkpt lat="43.45673" lon="6.87168">
        <ele>36.67</ele>
        <time>2010-12-12T16:25:25Z</time>
      </trkpt>
      <trkpt lat="43.45672" lon="6.87146">
        <ele>36.67</ele>
        <time>2010-12-12T16:25:39Z</time>
      </trkpt>
      <trkpt lat="43.45667" lon="6.87124">
        <ele>37.15</ele>
        <time>2010-12-12T16:25:51Z</time>
      </trkpt>
      <trkpt lat="43.45667" lon="6.87095">
        <ele>37.15</ele>
        <time>2010-12-12T16:26:05Z</time>
      </trkpt>
      <trkpt lat="43.45665" lon="6.87075">
        <ele>37.15</ele>
        <time>2010-12-12T16:26:16Z</time>
      </trkpt>
      <trkpt lat="43.45662" lon="6.87046">
        <ele>37.15</ele>
        <time>2010-12-12T16:26:32Z</time>
      </trkpt>
      <trkpt lat="43.45662" lon="6.87024">
        <ele>36.67</ele>
        <time>2010-12-12T16:26:44Z</time>
      </trkpt>
      <trkpt lat="43.45663" lon="6.87015">
        <ele>37.15</ele>
        <time>2010-12-12T16:26:49Z</time>
      </trkpt>
      <trkpt lat="43.45665" lon="6.86994">
        <ele>37.63</ele>
        <time>2010-12-12T16:27:02Z</time>
      </trkpt>
      <trkpt lat="43.45665" lon="6.86964">
        <ele>37.15</ele>
        <time>2010-12-12T16:27:16Z</time>
      </trkpt>
      <trkpt lat="43.45663" lon="6.86943">
        <ele>37.15</ele>
        <time>2010-12-12T16:27:29Z</time>
      </trkpt>
      <trkpt lat="43.45663" lon="6.86925">
        <ele>36.67</ele>
        <time>2010-12-12T16:27:44Z</time>
      </trkpt>
      <trkpt lat="43.45659" lon="6.86904">
        <ele>37.15</ele>
        <time>2010-12-12T16:27:58Z</time>
      </trkpt>
      <trkpt lat="43.45659" lon="6.869">
        <ele>36.67</ele>
        <time>2010-12-12T16:28:01Z</time>
      </trkpt>
      <trkpt lat="43.4565" lon="6.86895">
        <ele>35.71</ele>
        <time>2010-12-12T16:28:15Z</time>
      </trkpt>
      <trkpt lat="43.4565" lon="6.86895">
        <ele>35.23</ele>
        <time>2010-12-12T16:28:41Z</time>
      </trkpt>
      <trkpt lat="43.4565" lon="6.86895">
        <ele>41.47</ele>
        <time>2010-12-12T16:28:43Z</time>
      </trkpt>
      <trkpt lat="43.4565" lon="6.86895">
        <ele>34.26</ele>
        <time>2010-12-12T16:28:44Z</time>
      </trkpt>
      <trkpt lat="43.4565" lon="6.86895">
        <ele>39.07</ele>
        <time>2010-12-12T16:28:47Z</time>
      </trkpt>
      <trkpt lat="43.4565" lon="6.86895">
        <ele>33.78</ele>
        <time>2010-12-12T16:28:52Z</time>
      </trkpt>
      <trkpt lat="43.4565" lon="6.86895">
        <ele>38.11</ele>
        <time>2010-12-12T16:28:55Z</time>
      </trkpt>
      <trkpt lat="43.45651" lon="6.86895">
        <ele>36.67</ele>
        <time>2010-12-12T16:28:59Z</time>
      </trkpt>
      <trkpt lat="43.45651" lon="6.86893">
        <ele>38.11</ele>
        <time>2010-12-12T16:29:09Z</time>
      </trkpt>
      <trkpt lat="43.45651" lon="6.86888">
        <ele>34.74</ele>
        <time>2010-12-12T16:29:12Z</time>
      </trkpt>
      <trkpt lat="43.45652" lon="6.86884">
        <ele>38.11</ele>
        <time>2010-12-12T16:29:14Z</time>
      </trkpt>
      <trkpt lat="43.45652" lon="6.86881">
        <ele>35.23</ele>
        <time>2010-12-12T16:29:16Z</time>
      </trkpt>
      <trkpt lat="43.45653" lon="6.86878">
        <ele>38.59</ele>
        <time>2010-12-12T16:29:18Z</time>
      </trkpt>
      <trkpt lat="43.45653" lon="6.86876">
        <ele>34.74</ele>
        <time>2010-12-12T16:29:19Z</time>
      </trkpt>
      <trkpt lat="43.45652" lon="6.86868">
        <ele>39.55</ele>
        <time>2010-12-12T16:29:25Z</time>
      </trkpt>
      <trkpt lat="43.45652" lon="6.86868">
        <ele>35.71</ele>
        <time>2010-12-12T16:29:26Z</time>
      </trkpt>
      <trkpt lat="43.45652" lon="6.86865">
        <ele>39.07</ele>
        <time>2010-12-12T16:29:33Z</time>
      </trkpt>
      <trkpt lat="43.45652" lon="6.86865">
        <ele>38.59</ele>
        <time>2010-12-12T16:29:34Z</time>
      </trkpt>
      <trkpt lat="43.45652" lon="6.86865">
        <ele>37.63</ele>
        <time>2010-12-12T16:29:36Z</time>
      </trkpt>
      <trkpt lat="43.45652" lon="6.86865">
        <ele>37.15</ele>
        <time>2010-12-12T16:30:05Z</time>
      </trkpt>
      <trkpt lat="43.45653" lon="6.86865">
        <ele>37.63</ele>
        <time>2010-12-12T16:30:34Z</time>
      </trkpt>
      <trkpt lat="43.45653" lon="6.86865">
        <ele>38.11</ele>
        <time>2010-12-12T16:31:09Z</time>
      </trkpt>
      <trkpt lat="43.45653" lon="6.86865">
        <ele>38.11</ele>
        <time>2010-12-12T16:31:41Z</time>
      </trkpt>
      <trkpt lat="43.45653" lon="6.86865">
        <ele>38.11</ele>
        <time>2010-12-12T16:32:12Z</time>
      </trkpt>
      <trkpt lat="43.45652" lon="6.86866">
        <ele>38.11</ele>
        <time>2010-12-12T16:32:35Z</time>
      </trkpt>
      <trkpt lat="43.45652" lon="6.86866">
        <ele>39.07</ele>
        <time>2010-12-12T16:33:02Z</time>
      </trkpt>
      <trkpt lat="43.45652" lon="6.86866">
        <ele>35.71</ele>
        <time>2010-12-12T16:33:25Z</time>
      </trkpt>
      <trkpt lat="43.45652" lon="6.86866">
        <ele>38.59</ele>
        <time>2010-12-12T16:33:30Z</time>
      </trkpt>
      <trkpt lat="43.45652" lon="6.86866">
        <ele>37.15</ele>
        <time>2010-12-12T16:33:53Z</time>
      </trkpt>
      <trkpt lat="43.45652" lon="6.86866">
        <ele>38.11</ele>
        <time>2010-12-12T16:34:17Z</time>
      </trkpt>
      <trkpt lat="43.45652" lon="6.86866">
        <ele>38.59</ele>
        <time>2010-12-12T16:34:45Z</time>
      </trkpt>
      <trkpt lat="43.45653" lon="6.86866">
        <ele>38.59</ele>
        <time>2010-12-12T16:35:09Z</time>
      </trkpt>
      <trkpt lat="43.45653" lon="6.86866">
        <ele>38.11</ele>
        <time>2010-12-12T16:35:39Z</time>
      </trkpt>
      <trkpt lat="43.45653" lon="6.86866">
        <ele>39.07</ele>
        <time>2010-12-12T16:36:05Z</time>
      </trkpt>
      <trkpt lat="43.45653" lon="6.86866">
        <ele>39.07</ele>
        <time>2010-12-12T16:36:21Z</time>
      </trkpt>
      <trkpt lat="43.45653" lon="6.86865">
        <ele>37.63</ele>
        <time>2010-12-12T16:36:45Z</time>
      </trkpt>
      <trkpt lat="43.45654" lon="6.8687">
        <ele>40.51</ele>
        <time>2010-12-12T16:36:48Z</time>
      </trkpt>
      <trkpt lat="43.45653" lon="6.86871">
        <ele>37.15</ele>
        <time>2010-12-12T16:36:49Z</time>
      </trkpt>
      <trkpt lat="43.45653" lon="6.86872">
        <ele>39.07</ele>
        <time>2010-12-12T16:36:50Z</time>
      </trkpt>
      <trkpt lat="43.45652" lon="6.86874">
        <ele>35.71</ele>
        <time>2010-12-12T16:36:52Z</time>
      </trkpt>
      <trkpt lat="43.45651" lon="6.86874">
        <ele>40.03</ele>
        <time>2010-12-12T16:36:53Z</time>
      </trkpt>
      <trkpt lat="43.45651" lon="6.86874">
        <ele>35.71</ele>
        <time>2010-12-12T16:36:56Z</time>
      </trkpt>
      <trkpt lat="43.45651" lon="6.86874">
        <ele>40.99</ele>
        <time>2010-12-12T16:36:57Z</time>
      </trkpt>
      <trkpt lat="43.45651" lon="6.86874">
        <ele>37.15</ele>
        <time>2010-12-12T16:37:18Z</time>
      </trkpt>
      <trkpt lat="43.45651" lon="6.86874">
        <ele>40.51</ele>
        <time>2010-12-12T16:37:19Z</time>
      </trkpt>
      <trkpt lat="43.45651" lon="6.86874">
        <ele>36.67</ele>
        <time>2010-12-12T16:37:23Z</time>
      </trkpt>
      <trkpt lat="43.45651" lon="6.86874">
        <ele>39.55</ele>
        <time>2010-12-12T16:37:27Z</time>
      </trkpt>
      <trkpt lat="43.45652" lon="6.86874">
        <ele>39.07</ele>
        <time>2010-12-12T16:37:33Z</time>
      </trkpt>
      <trkpt lat="43.45652" lon="6.86873">
        <ele>39.55</ele>
        <time>2010-12-12T16:37:57Z</time>
      </trkpt>
      <trkpt lat="43.45654" lon="6.86871">
        <ele>38.59</ele>
        <time>2010-12-12T16:38:13Z</time>
      </trkpt>
      <trkpt lat="43.45654" lon="6.86872">
        <ele>40.03</ele>
        <time>2010-12-12T16:38:40Z</time>
      </trkpt>
      <trkpt lat="43.4565" lon="6.86894">
        <ele>39.07</ele>
        <time>2010-12-12T16:38:53Z</time>
      </trkpt>
      <trkpt lat="43.4565" lon="6.86894">
        <ele>38.59</ele>
        <time>2010-12-12T16:39:12Z</time>
      </trkpt>
      <trkpt lat="43.4565" lon="6.86894">
        <ele>39.07</ele>
        <time>2010-12-12T16:39:41Z</time>
      </trkpt>
      <trkpt lat="43.4565" lon="6.86894">
        <ele>38.59</ele>
        <time>2010-12-12T16:40:18Z</time>
      </trkpt>
      <trkpt lat="43.4565" lon="6.86894">
        <ele>38.59</ele>
        <time>2010-12-12T16:40:29Z</time>
      </trkpt>
    </trkseg>
  </trk>
</gpx>